[[{"header":{"parameterUnit":"m.s-1","parameterCategory":1,"la1":31.0,"la2":29.5877,"lo1":-88.7671,"lo2":-86.6584,"dy":0.0162,"dx":0.0185,"nx":115,"ny":88,"refTime":"2026-03-24T12:00:00:Z","depth":0,"parameterNumber":2,"parameterNumberName":"U-component_of_WINDS"},"data":[0.0,0.0,0.0,0.0,0.0,0.0,0.0,0.0,0.0,0.0,0.0,0.0,0.0,0.0,0.0,0.0,0.0,0.0,0.0,0.0,0.0,0.0,0.0,0.0,0.0,0.0,0.0,0.0,0.0,0.0,0.0,0.0,0.0,0.0,0.0,0.0,0.0,0.0,0.0,0.0,0.0,0.0,0.0,0.0,0.0,0.0,0.0,0.0,0.0,0.0,0.0,0.0,0.0,0.0,0.0,0.0,0.0,0.0,0.0,0.0,0.0,0.0,0.0,0.0,0.0,0.0,0.0,0.0,0.0,0.0,0.0,0.0,0.0,0.0,0.0,0.0,0.0,0.0,0.0,0.0,0.0,0.0,0.0,0.0,0.0,0.0,0.0,0.0,0.0,0.0,0.0,0.0,0.0,0.0,0.0,0.0,0.0,0.0,0.0,0.0,0.0,0.0,0.0,0.0,0.0,0.0,0.0,0.0,0.0,0.0,0.0,0.0,0.0,0.0,0.0,0.0,0.0,0.0,0.0,0.0,0.0,0.0,0.0,0.0,0.0,0.0,0.0,0.0,0.0,0.0,0.0,0.0,0.0,0.0,0.0,0.0,0.0,0.0,0.0,0.0,0.0,0.0,0.0,0.0,0.0,0.0,0.0,0.0,0.0,0.0,0.0,0.0,0.0,0.0,0.0,0.0,0.0,0.0,0.0,0.0,0.0,0.0,0.0,0.0,0.0,0.0,0.0,0.0,0.0,0.0,0.0,0.0,0.0,0.0,0.0,0.0,0.0,0.0,0.0,0.0,0.0,0.0,0.0,0.0,0.0,0.0,0.0,0.0,0.0,0.0,0.0,0.0,0.0,0.0,0.0,0.0,0.0,0.0,0.0,0.0,0.0,0.0,0.0,0.0,0.0,0.0,0.0,0.0,0.0,0.0,0.0,0.0,0.0,0.0,0.0,0.0,0.0,0.0,0.0,0.0,0.0,0.0,0.0,0.0,0.0,0.0,0.0,0.0,0.0,0.0,0.0,0.0,0.0,0.0,0.0,0.0,0.0,0.0,0.0,0.0,0.0,0.0,0.0,0.0,0.0,0.0,0.0,0.0,0.0,0.0,0.0,0.0,0.0,0.0,0.0,0.0,0.0,0.0,0.0,0.0,0.0,0.0,0.0,0.0,0.0,0.0,0.0,0.0,0.0,0.0,0.0,0.0,0.0,0.0,0.0,0.0,0.0,0.0,0.0,0.0,0.0,0.0,0.0,0.0,0.0,0.0,0.0,0.0,0.0,0.0,0.0,0.0,0.0,0.0,0.0,0.0,0.0,0.0,0.0,0.0,0.0,0.0,0.0,0.0,0.0,0.0,0.0,0.0,0.0,0.0,0.0,0.0,0.0,0.0,0.0,0.0,0.0,0.0,0.0,0.0,0.0,0.0,0.0,0.0,0.0,0.0,0.0,0.0,0.0,0.0,0.0,0.0,0.0,0.0,0.0,0.0,0.0,0.0,0.0,0.0,0.0,0.0,0.0,0.0,0.0,0.0,0.0,0.0,0.0,0.0,0.0,0.0,0.0,0.0,0.0,0.0,0.0,0.0,0.0,0.0,0.0,0.0,0.0,0.0,0.0,0.0,0.0,0.0,0.0,0.0,0.0,0.0,0.0,0.0,0.0,0.0,0.0,0.0,0.0,0.0,0.0,0.0,0.0,0.0,0.0,0.0,0.0,0.0,0.0,0.0,0.0,0.0,0.0,0.0,0.0,0.0,0.0,0.0,0.0,0.0,0.0,0.0,0.0,0.0,0.0,0.0,0.0,0.0,0.0,0.0,0.0,0.0,0.0,0.0,0.0,0.0,0.0,0.0,0.0,0.0,0.0,0.0,0.0,0.0,0.0,0.0,0.0,0.0,0.0,0.0,0.0,0.0,0.0,0.0,0.0,0.0,0.0,0.0,0.0,0.0,0.0,0.0,0.0,0.0,0.0,0.0,0.0,0.0,0.0,0.0,0.0,0.0,0.0,0.0,0.0,0.0,0.0,0.0,0.0,0.0,0.0,0.0,0.0,0.0,0.0,0.0,0.0,0.0,0.0,0.0,0.0,0.0,0.0,0.0,0.0,0.0,0.0,0.0,0.0,0.0,0.0,0.0,0.0,0.0,0.0,0.0,0.0,0.0,0.0,0.0,0.0,0.0,0.0,0.0,0.0,0.0,0.0,0.0,0.0,0.0,0.0,0.0,0.0,0.0,0.0,0.0,0.0,0.0,0.0,0.0,0.0,0.0,0.0,0.0,0.0,0.0,0.0,0.0,0.0,0.0,0.0,0.0,0.0,0.0,0.0,0.0,0.0,0.0,0.0,0.0,0.0,0.0,0.0,0.0,0.0,0.0,0.0,0.0,0.0,0.0,0.0,0.0,0.0,0.0,0.0,0.0,0.0,0.0,0.0,0.0,0.0,0.0,0.0,0.0,0.0,0.0,0.0,0.0,0.0,0.0,0.0,0.0,0.0,0.0,0.0,0.0,0.0,0.0,0.0,0.0,0.0,0.0,0.0,0.0,0.0,0.0,0.0,0.0,0.0,0.0,0.0,0.0,0.0,0.0,0.0,0.0,0.0,0.0,0.0,0.0,0.0,0.0,0.0,0.0,0.0,0.0,0.0,0.0,0.0,0.0,0.0,0.0,0.0,0.0,0.0,0.0,0.0,0.0,0.0,0.0,0.0,0.0,0.0,0.0,0.0,0.0,0.0,0.0,0.0,0.0,0.0,0.0,0.0,0.0,0.0,0.0,0.0,0.0,0.0,0.0,0.0,0.0,0.0,0.0,0.0,0.0,0.0,0.0,0.0,0.0,0.0,0.0,0.0,0.0,0.0,0.0,0.0,0.0,0.0,0.0,0.0,0.0,0.0,0.0,0.0,0.0,0.0,0.0,0.0,0.0,0.0,0.0,0.0,0.0,0.0,0.0,0.0,0.0,0.0,0.0,0.0,0.0,0.0,0.0,0.0,0.0,0.0,0.0,0.0,0.0,0.0,0.0,0.0,0.0,0.0,0.0,0.0,0.0,0.0,0.0,0.0,0.0,0.0,0.0,0.0,0.0,0.0,0.0,0.0,0.0,0.0,0.0,0.0,0.0,0.0,0.0,0.0,0.0,0.0,0.0,0.0,0.0,0.0,0.0,0.0,0.0,0.0,0.0,0.0,0.0,0.0,0.0,0.0,0.0,0.0,0.0,0.0,0.0,0.0,0.0,0.0,0.0,0.0,0.0,0.0,0.0,0.0,0.0,0.0,0.0,0.0,0.0,0.0,0.0,0.0,0.0,0.0,0.0,0.0,0.0,0.0,0.0,0.0,0.0,0.0,0.0,0.0,0.0,0.0,0.0,0.0,0.0,0.0,0.0,0.0,0.0,0.0,0.0,0.0,0.0,0.0,0.0,0.0,0.0,0.0,0.0,0.0,0.0,0.0,0.0,0.0,0.0,0.0,0.0,0.0,0.0,0.0,0.0,0.0,0.0,0.0,0.0,0.0,0.0,0.0,0.0,0.0,0.0,0.0,0.0,0.0,0.0,0.0,0.0,0.0,0.0,0.0,0.0,0.0,0.0,0.0,0.0,0.0,0.0,0.0,0.0,0.0,0.0,0.0,0.0,0.0,0.0,0.0,0.0,0.0,0.0,0.0,0.0,0.0,0.0,0.0,0.0,0.0,0.0,0.0,0.0,0.0,0.0,0.0,0.0,0.0,0.0,0.0,0.0,0.0,0.0,0.0,0.0,0.0,0.0,0.0,0.0,0.0,0.0,0.0,0.0,0.0,0.0,0.0,0.0,0.0,0.0,0.0,0.0,0.0,0.0,0.0,0.0,0.0,0.0,0.0,0.0,0.0,0.0,0.0,0.0,0.0,0.0,0.0,0.0,0.0,0.0,0.0,0.0,0.0,0.0,0.0,0.0,0.0,0.0,0.0,0.0,0.0,0.0,0.0,0.0,0.0,0.0,0.0,0.0,0.0,0.0,0.0,0.0,0.0,0.0,0.0,0.0,0.0,0.0,0.0,0.0,0.0,0.0,0.0,0.0,0.0,0.0,0.0,0.0,0.0,0.0,0.0,0.0,0.0,0.0,0.0,0.0,0.0,0.0,0.0,0.0,0.0,0.0,0.0,0.0,0.0,0.0,0.0,0.0,0.0,0.0,0.0,0.0,0.0,0.0,0.0,0.0,0.0,0.0,0.0,0.0,0.0,0.0,0.0,0.0,0.0,0.0,0.0,0.0,0.0,0.0,0.0,0.0,0.0,0.0,-1.083,0.0,0.0,0.0,0.0,0.0,0.0,0.0,0.0,0.0,0.0,0.0,0.0,0.0,0.0,0.0,0.0,0.0,0.0,0.0,0.0,0.0,0.0,0.0,0.0,0.0,0.0,0.0,0.0,0.0,0.0,0.0,0.0,0.0,0.0,0.0,0.0,0.0,0.0,0.0,0.0,0.0,0.0,0.0,0.0,0.0,0.0,0.0,0.0,0.0,0.0,0.0,0.0,0.0,0.0,0.0,0.0,0.0,0.0,0.0,0.0,0.0,0.0,0.0,0.0,0.0,0.0,0.0,0.0,0.0,0.0,0.0,0.0,0.0,0.0,0.0,0.0,0.0,0.0,0.0,0.0,0.0,0.0,0.0,0.0,0.0,0.0,0.0,0.0,0.0,0.0,0.0,0.0,0.0,0.0,0.0,0.0,0.0,0.0,0.0,0.0,0.0,0.0,0.0,0.0,0.0,0.0,0.0,0.0,0.0,0.0,-1.2722,-1.1765,-1.2286,-1.2506,-1.2272,0.0,0.0,0.0,0.0,0.0,0.0,0.0,0.0,0.0,0.0,0.0,0.0,0.0,0.0,0.0,0.0,0.0,0.0,0.0,0.0,0.0,0.0,0.0,0.0,0.0,0.0,0.0,0.0,0.0,0.0,0.0,0.0,0.0,0.0,0.0,0.0,0.0,0.0,0.0,0.0,0.0,0.0,0.0,0.0,0.0,0.0,0.0,0.0,0.0,0.0,0.0,0.0,0.0,0.0,0.0,0.0,0.0,0.0,0.0,0.0,0.0,0.0,0.0,0.0,0.0,0.0,0.0,0.0,0.0,0.0,0.0,0.0,0.0,0.0,0.0,0.0,0.0,0.0,0.0,0.0,0.0,0.0,0.0,0.0,0.0,0.0,0.0,0.0,0.0,0.0,0.0,0.0,0.0,0.0,0.0,0.0,0.0,0.0,0.0,0.0,0.0,0.0,0.0,0.0,0.0,0.0,0.0,0.0,0.0,0.0,0.0,0.0,-1.3283,-1.356,-1.3319,0.0,0.0,0.0,0.0,0.0,0.0,0.0,0.0,0.0,0.0,0.0,0.0,0.0,0.0,0.0,0.0,0.0,0.0,0.0,0.0,0.0,0.0,0.0,0.0,0.0,0.0,0.0,0.0,0.0,0.0,0.0,0.0,0.0,0.0,0.0,0.0,0.0,0.0,0.0,0.0,0.0,0.0,0.0,0.0,0.0,0.0,0.0,0.0,0.0,0.0,0.0,0.0,0.0,0.0,0.0,0.0,0.0,0.0,0.0,0.0,0.0,0.0,0.0,0.0,0.0,0.0,0.0,0.0,0.0,0.0,0.0,0.0,0.0,0.0,0.0,0.0,0.0,0.0,0.0,0.0,0.0,0.0,0.0,0.0,0.0,0.0,0.0,0.0,0.0,0.0,0.0,0.0,0.0,0.0,0.0,0.0,0.0,0.0,0.0,0.0,0.0,0.0,0.0,0.0,0.0,0.0,0.0,0.0,0.0,0.0,-1.3683,-1.292,-1.362,0.0,-1.2954,0.0,0.0,0.0,0.0,0.0,0.0,0.0,0.0,0.0,0.0,0.0,0.0,0.0,0.0,0.0,0.0,0.0,0.0,0.0,0.0,0.0,0.0,0.0,0.0,0.0,0.0,0.0,0.0,0.0,0.0,0.0,0.0,0.0,0.0,0.0,0.0,0.0,0.0,0.0,0.0,0.0,0.0,0.0,0.0,0.0,0.0,0.0,0.0,0.0,0.0,0.0,0.0,0.0,0.0,0.0,0.0,0.0,0.0,0.0,0.0,0.0,0.0,0.0,0.0,0.0,0.0,0.0,0.0,0.0,0.0,0.0,0.0,0.0,0.0,0.0,0.0,0.0,0.0,0.0,0.0,0.0,0.0,0.0,0.0,0.0,0.0,0.0,0.0,0.0,0.0,0.0,0.0,0.0,0.0,0.0,0.0,0.0,0.0,0.0,0.0,0.0,0.0,0.0,0.0,0.0,0.0,0.0,0.0,0.0,0.0,0.0,-1.4339,-1.43,-1.4002,0.0,0.0,0.0,0.0,0.0,0.0,0.0,0.0,0.0,0.0,0.0,0.0,0.0,0.0,0.0,0.0,0.0,0.0,0.0,0.0,0.0,0.0,0.0,0.0,0.0,0.0,0.0,0.0,0.0,0.0,0.0,0.0,0.0,0.0,0.0,0.0,0.0,0.0,0.0,0.0,0.0,0.0,0.0,0.0,0.0,0.0,0.0,0.0,0.0,0.0,0.0,0.0,0.0,0.0,0.0,0.0,0.0,0.0,0.0,0.0,0.0,0.0,0.0,0.0,0.0,0.0,0.0,0.0,0.0,0.0,0.0,0.0,0.0,0.0,0.0,0.0,0.0,0.0,0.0,0.0,0.0,0.0,0.0,0.0,0.0,0.0,0.0,0.0,0.0,0.0,0.0,0.0,0.0,0.0,0.0,0.0,0.0,0.0,0.0,0.0,0.0,0.0,0.0,0.0,0.0,0.0,0.0,0.0,0.0,0.0,-1.4779,0.0,-1.5276,-1.4752,-1.4297,-1.3831,0.0,0.0,0.0,0.0,0.0,0.0,0.0,0.0,0.0,0.0,0.0,0.0,0.0,0.0,0.0,0.0,0.0,0.0,0.0,0.0,0.0,0.0,0.0,0.0,0.0,0.0,0.0,0.0,0.0,0.0,0.0,0.0,0.0,0.0,0.0,0.0,0.0,0.0,0.0,0.0,0.0,0.0,0.0,0.0,0.0,0.0,0.0,0.0,0.0,0.0,0.0,0.0,0.0,0.0,0.0,0.0,0.0,0.0,0.0,0.0,0.0,0.0,0.0,0.0,0.0,0.0,0.0,0.0,0.0,0.0,0.0,0.0,0.0,0.0,0.0,0.0,0.0,0.0,0.0,0.0,0.0,0.0,0.0,0.0,0.0,0.0,0.0,0.0,0.0,0.0,0.0,0.0,0.0,0.0,0.0,0.0,0.0,0.0,0.0,0.0,0.0,0.0,0.0,0.0,0.0,0.0,0.0,0.0,0.0,-1.5494,-1.6061,-1.5361,-1.4926,-1.4392,0.0,0.0,0.0,0.0,0.0,0.0,0.0,0.0,0.0,0.0,0.0,0.0,0.0,0.0,0.0,0.0,0.0,0.0,0.0,0.0,0.0,0.0,0.0,0.0,0.0,0.0,0.0,0.0,0.0,0.0,0.0,0.0,0.0,0.0,0.0,0.0,0.0,0.0,0.0,0.0,0.0,0.0,0.0,0.0,0.0,0.0,0.0,0.0,0.0,0.0,0.0,0.0,0.0,0.0,0.0,0.0,0.0,0.0,0.0,0.0,0.0,0.0,0.0,0.0,0.0,0.0,0.0,0.0,0.0,0.0,0.0,0.0,0.0,0.0,0.0,0.0,0.0,0.0,0.0,0.0,0.0,0.0,0.0,0.0,0.0,0.0,0.0,0.0,0.0,0.0,0.0,0.0,0.0,0.0,0.0,0.0,0.0,0.0,0.0,0.0,0.0,0.0,0.0,0.0,0.0,0.0,0.0,0.0,0.0,-1.496,-1.5975,-1.6359,-1.6065,-1.5549,-1.5005,0.0,0.0,0.0,0.0,0.0,0.0,0.0,0.0,0.0,0.0,0.0,0.0,0.0,0.0,0.0,0.0,0.0,0.0,0.0,0.0,0.0,0.0,0.0,0.0,0.0,0.0,0.0,0.0,0.0,0.0,0.0,0.0,0.0,0.0,0.0,0.0,0.0,0.0,0.0,0.0,0.0,0.0,0.0,0.0,0.0,0.0,0.0,0.0,0.0,0.0,0.0,0.0,0.0,0.0,0.0,0.0,0.0,0.0,0.0,0.0,0.0,0.0,0.0,0.0,0.0,0.0,0.0,0.0,0.0,0.0,0.0,0.0,0.0,0.0,0.0,0.0,0.0,0.0,0.0,0.0,0.0,0.0,0.0,0.0,0.0,0.0,0.0,0.0,0.0,0.0,0.0,0.0,0.0,0.0,0.0,0.0,0.0,0.0,0.0,0.0,0.0,0.0,0.0,0.0,0.0,0.0,0.0,0.0,0.0,-1.6219,0.0,-1.6752,0.0,-1.6386,-1.579,0.0,0.0,0.0,0.0,0.0,0.0,0.0,0.0,0.0,0.0,0.0,0.0,0.0,0.0,0.0,0.0,0.0,0.0,0.0,0.0,0.0,0.0,0.0,0.0,0.0,0.0,0.0,0.0,0.0,0.0,0.0,0.0,0.0,0.0,0.0,0.0,0.0,0.0,0.0,0.0,0.0,0.0,0.0,0.0,0.0,0.0,0.0,0.0,0.0,0.0,0.0,0.0,0.0,0.0,0.0,0.0,0.0,0.0,0.0,0.0,0.0,0.0,0.0,0.0,0.0,0.0,0.0,0.0,0.0,0.0,0.0,0.0,0.0,0.0,0.0,0.0,0.0,0.0,0.0,0.0,0.0,0.0,0.0,0.0,0.0,0.0,0.0,0.0,0.0,0.0,0.0,0.0,0.0,0.0,0.0,0.0,0.0,0.0,0.0,0.0,0.0,0.0,0.0,0.0,0.0,0.0,0.0,0.0,-1.6059,-1.7507,-1.7393,-1.7305,-1.7319,-1.7271,-1.6744,0.0,0.0,0.0,0.0,0.0,0.0,0.0,0.0,0.0,0.0,0.0,0.0,0.0,0.0,0.0,0.0,0.0,0.0,0.0,0.0,0.0,0.0,0.0,0.0,0.0,0.0,0.0,0.0,0.0,0.0,0.0,0.0,0.0,0.0,0.0,0.0,0.0,0.0,0.0,0.0,0.0,0.0,0.0,0.0,0.0,0.0,0.0,0.0,0.0,0.0,0.0,0.0,0.0,0.0,0.0,0.0,0.0,0.0,0.0,0.0,0.0,0.0,0.0,0.0,0.0,0.0,0.0,0.0,0.0,0.0,0.0,0.0,0.0,0.0,0.0,0.0,0.0,0.0,0.0,0.0,0.0,0.0,0.0,0.0,0.0,0.0,0.0,0.0,0.0,0.0,0.0,0.0,0.0,0.0,0.0,0.0,0.0,0.0,0.0,0.0,0.0,0.0,0.0,0.0,0.0,0.0,0.0,0.0,0.0,-1.7585,-1.7773,-1.786,-1.786,-1.7463,-1.6967,0.0,0.0,0.0,0.0,0.0,0.0,0.0,0.0,0.0,0.0,0.0,0.0,0.0,0.0,0.0,0.0,0.0,0.0,0.0,0.0,0.0,0.0,0.0,0.0,0.0,0.0,0.0,0.0,0.0,0.0,0.0,0.0,0.0,0.0,0.0,0.0,0.0,0.0,0.0,0.0,0.0,0.0,0.0,0.0,0.0,0.0,0.0,0.0,0.0,0.0,0.0,0.0,0.0,0.0,0.0,0.0,0.0,0.0,0.0,0.0,0.0,0.0,0.0,0.0,0.0,0.0,0.0,0.0,0.0,0.0,0.0,0.0,0.0,0.0,0.0,0.0,0.0,0.0,0.0,0.0,0.0,0.0,0.0,0.0,0.0,0.0,0.0,0.0,0.0,0.0,0.0,0.0,0.0,0.0,0.0,0.0,0.0,0.0,0.0,0.0,0.0,0.0,0.0,0.0,0.0,0.0,0.0,0.0,0.0,-1.8697,-1.8517,-1.8419,-1.8412,-1.786,-1.7327,-1.6731,0.0,0.0,0.0,0.0,0.0,0.0,0.0,0.0,0.0,0.0,0.0,0.0,0.0,0.0,0.0,0.0,0.0,0.0,0.0,0.0,0.0,0.0,0.0,0.0,0.0,0.0,0.0,0.0,0.0,0.0,0.0,0.0,0.0,0.0,0.0,0.0,0.0,0.0,0.0,0.0,0.0,0.0,0.0,0.0,0.0,0.0,0.0,0.0,0.0,0.0,0.0,0.0,0.0,0.0,0.0,0.0,0.0,0.0,0.0,0.0,0.0,0.0,0.0,0.0,0.0,0.0,0.0,0.0,0.0,0.0,0.0,0.0,0.0,0.0,0.0,0.0,0.0,0.0,0.0,0.0,0.0,0.0,0.0,0.0,0.0,0.0,0.0,0.0,0.0,0.0,0.0,0.0,0.0,0.0,0.0,0.0,0.0,0.0,0.0,0.0,0.0,0.0,0.0,0.0,0.0,0.0,0.0,0.0,-2.0707,-1.961,-1.9036,-1.8968,-1.8412,-1.786,0.0,0.0,0.0,0.0,0.0,0.0,0.0,0.0,0.0,0.0,0.0,0.0,0.0,0.0,0.0,0.0,0.0,0.0,0.0,0.0,0.0,0.0,0.0,0.0,0.0,0.0,0.0,0.0,0.0,0.0,0.0,0.0,0.0,0.0,0.0,0.0,0.0,0.0,0.0,0.0,0.0,0.0,0.0,0.0,0.0,0.0,0.0,0.0,0.0,0.0,0.0,0.0,0.0,0.0,0.0,0.0,0.0,0.0,0.0,0.0,0.0,0.0,0.0,0.0,0.0,0.0,0.0,0.0,0.0,0.0,0.0,0.0,0.0,0.0,0.0,0.0,0.0,0.0,0.0,0.0,0.0,0.0,0.0,0.0,0.0,0.0,0.0,0.0,0.0,0.0,0.0,0.0,0.0,0.0,0.0,0.0,0.0,0.0,0.0,0.0,0.0,0.0,0.0,0.0,0.0,0.0,0.0,0.0,0.0,-2.2178,-2.1077,-2.0291,-1.9919,-1.8736,-1.802,0.0,0.0,0.0,0.0,0.0,0.0,0.0,0.0,0.0,0.0,0.0,0.0,0.0,0.0,0.0,0.0,0.0,0.0,0.0,0.0,0.0,0.0,0.0,0.0,0.0,0.0,0.0,0.0,0.0,0.0,0.0,0.0,0.0,0.0,0.0,0.0,0.0,0.0,0.0,0.0,0.0,0.0,0.0,0.0,0.0,0.0,0.0,0.0,0.0,0.0,0.0,0.0,0.0,0.0,0.0,0.0,0.0,0.0,0.0,0.0,0.0,0.0,0.0,0.0,0.0,0.0,0.0,0.0,0.0,0.0,0.0,0.0,0.0,0.0,0.0,0.0,0.0,0.0,0.0,0.0,0.0,0.0,0.0,0.0,0.0,0.0,0.0,0.0,0.0,0.0,0.0,0.0,0.0,0.0,0.0,0.0,0.0,0.0,0.0,0.0,0.0,0.0,0.0,0.0,0.0,0.0,0.0,0.0,-2.1335,-2.2312,-2.1631,-2.1047,-2.0575,-1.9382,-1.8538,0.0,0.0,0.0,0.0,0.0,0.0,0.0,0.0,0.0,0.0,0.0,0.0,0.0,0.0,0.0,0.0,0.0,0.0,0.0,0.0,0.0,0.0,0.0,0.0,0.0,0.0,0.0,0.0,0.0,0.0,0.0,0.0,0.0,0.0,0.0,0.0,0.0,0.0,0.0,0.0,0.0,0.0,0.0,0.0,0.0,0.0,0.0,0.0,0.0,0.0,0.0,0.0,0.0,0.0,0.0,0.0,0.0,0.0,0.0,0.0,0.0,0.0,0.0,0.0,0.0,0.0,0.0,0.0,0.0,0.0,0.0,0.0,0.0,0.0,0.0,0.0,0.0,0.0,0.0,0.0,0.0,0.0,0.0,0.0,0.0,0.0,0.0,0.0,0.0,0.0,0.0,0.0,0.0,0.0,0.0,0.0,0.0,0.0,0.0,0.0,0.0,0.0,0.0,0.0,0.0,0.0,0.0,0.0,-2.1661,-2.1812,-2.173,-2.1469,-2.0991,-2.0097,-1.9133,0.0,0.0,0.0,0.0,0.0,0.0,0.0,0.0,0.0,0.0,0.0,0.0,0.0,0.0,0.0,0.0,0.0,0.0,0.0,0.0,0.0,0.0,0.0,0.0,0.0,0.0,0.0,0.0,0.0,0.0,0.0,0.0,0.0,0.0,0.0,0.0,0.0,0.0,0.0,0.0,0.0,0.0,0.0,0.0,0.0,0.0,0.0,0.0,0.0,0.0,0.0,0.0,0.0,0.0,0.0,0.0,0.0,0.0,0.0,0.0,0.0,0.0,0.0,0.0,0.0,0.0,0.0,0.0,0.0,0.0,0.0,0.0,0.0,0.0,0.0,0.0,0.0,0.0,0.0,0.0,0.0,0.0,0.0,0.0,0.0,0.0,0.0,0.0,0.0,0.0,0.0,0.0,0.0,0.0,0.0,0.0,0.0,0.0,0.0,0.0,0.0,0.0,0.0,0.0,0.0,0.0,0.0,0.0,-2.2068,-2.2996,-2.2437,-2.1781,-2.1031,-2.0078,-1.9133,0.0,0.0,0.0,0.0,0.0,0.0,0.0,0.0,0.0,0.0,0.0,0.0,0.0,0.0,0.0,0.0,0.0,0.0,0.0,0.0,0.0,0.0,0.0,0.0,0.0,0.0,0.0,0.0,0.0,0.0,0.0,0.0,0.0,0.0,0.0,0.0,0.0,0.0,0.0,0.0,0.0,0.0,0.0,0.0,0.0,0.0,0.0,0.0,-1.9609,0.0,0.0,0.0,0.0,0.0,0.0,0.0,0.0,0.0,0.0,0.0,0.0,0.0,0.0,0.0,0.0,0.0,0.0,0.0,0.0,0.0,0.0,0.0,0.0,0.0,0.0,0.0,0.0,0.0,0.0,0.0,0.0,0.0,0.0,0.0,0.0,0.0,0.0,0.0,0.0,0.0,0.0,0.0,0.0,0.0,0.0,0.0,0.0,0.0,0.0,0.0,0.0,0.0,0.0,0.0,0.0,0.0,0.0,0.0,-2.2375,-2.286,-2.2613,-2.2022,-2.1023,-2.0501,-1.9598,0.0,0.0,0.0,0.0,0.0,0.0,0.0,0.0,0.0,0.0,0.0,0.0,0.0,0.0,0.0,0.0,0.0,0.0,0.0,0.0,0.0,0.0,0.0,0.0,0.0,0.0,0.0,0.0,0.0,0.0,0.0,0.0,0.0,0.0,0.0,0.0,0.0,0.0,0.0,0.0,0.0,0.0,0.0,0.0,0.0,0.0,0.0,0.0,0.0,0.0,0.0,0.0,0.0,0.0,0.0,0.0,0.0,0.0,0.0,0.0,0.0,0.0,0.0,0.0,0.0,0.0,0.0,0.0,0.0,0.0,0.0,0.0,0.0,0.0,0.0,0.0,0.0,0.0,0.0,0.0,0.0,0.0,0.0,0.0,0.0,0.0,0.0,0.0,0.0,0.0,0.0,0.0,0.0,0.0,0.0,0.0,0.0,0.0,0.0,0.0,0.0,0.0,0.0,0.0,0.0,0.0,0.0,-2.259,-2.2608,-2.2379,-2.2581,-2.2211,-2.1215,-2.1047,-2.0143,-1.8356,0.0,0.0,0.0,0.0,0.0,0.0,0.0,0.0,0.0,0.0,0.0,0.0,0.0,0.0,0.0,0.0,0.0,0.0,0.0,0.0,0.0,0.0,0.0,0.0,0.0,0.0,0.0,0.0,0.0,0.0,0.0,0.0,0.0,0.0,0.0,0.0,0.0,0.0,-2.0278,-2.1381,0.0,0.0,0.0,0.0,0.0,0.0,0.0,0.0,-2.3131,0.0,0.0,0.0,0.0,0.0,0.0,0.0,0.0,0.0,0.0,0.0,0.0,0.0,0.0,0.0,0.0,0.0,0.0,0.0,0.0,0.0,0.0,0.0,0.0,0.0,0.0,0.0,0.0,0.0,0.0,0.0,0.0,0.0,0.0,0.0,0.0,0.0,0.0,0.0,0.0,0.0,0.0,0.0,0.0,0.0,0.0,0.0,0.0,0.0,0.0,0.0,0.0,0.0,0.0,0.0,0.0,-2.2626,-2.2669,-2.2678,-2.2634,-2.2678,-2.2412,-2.1856,-2.1311,-2.0358,-1.9055,0.0,0.0,0.0,0.0,0.0,0.0,0.0,0.0,0.0,0.0,0.0,0.0,0.0,0.0,0.0,0.0,0.0,0.0,0.0,0.0,0.0,0.0,0.0,0.0,0.0,0.0,0.0,0.0,0.0,0.0,0.0,0.0,0.0,0.0,0.0,0.0,0.0,0.0,0.0,-2.303,-2.4384,0.0,0.0,0.0,0.0,0.0,0.0,0.0,0.0,-2.5746,0.0,0.0,0.0,0.0,0.0,0.0,0.0,0.0,0.0,0.0,0.0,0.0,0.0,0.0,0.0,0.0,0.0,0.0,0.0,0.0,0.0,0.0,0.0,0.0,0.0,0.0,0.0,0.0,0.0,0.0,0.0,0.0,0.0,0.0,0.0,0.0,0.0,0.0,0.0,0.0,0.0,0.0,0.0,0.0,0.0,0.0,0.0,0.0,0.0,0.0,0.0,0.0,0.0,0.0,0.0,-2.2686,-2.2864,-2.2864,-2.2738,-2.3111,-2.2902,-2.2015,-2.1711,-2.0801,0.0,0.0,0.0,0.0,0.0,0.0,0.0,0.0,0.0,0.0,0.0,0.0,0.0,0.0,0.0,0.0,0.0,0.0,0.0,0.0,0.0,0.0,0.0,0.0,0.0,0.0,0.0,0.0,0.0,0.0,0.0,0.0,0.0,0.0,0.0,0.0,0.0,0.0,0.0,0.0,-2.4397,-2.5529,-2.6538,0.0,0.0,0.0,0.0,0.0,0.0,-2.5456,-2.6449,0.0,0.0,0.0,0.0,0.0,0.0,0.0,0.0,0.0,0.0,0.0,0.0,0.0,0.0,0.0,0.0,0.0,0.0,0.0,0.0,0.0,0.0,0.0,0.0,0.0,0.0,0.0,0.0,0.0,0.0,0.0,0.0,0.0,0.0,0.0,0.0,0.0,0.0,0.0,0.0,0.0,0.0,0.0,0.0,0.0,0.0,0.0,0.0,0.0,0.0,0.0,0.0,0.0,0.0,0.0,-2.2788,-2.2988,-2.2996,-2.2849,-2.3371,-2.3148,-2.2064,-2.192,-2.1013,0.0,0.0,0.0,0.0,0.0,0.0,0.0,0.0,0.0,0.0,0.0,0.0,0.0,0.0,0.0,0.0,0.0,0.0,0.0,0.0,0.0,0.0,0.0,0.0,0.0,0.0,0.0,0.0,0.0,0.0,0.0,0.0,0.0,0.0,0.0,0.0,0.0,0.0,0.0,0.0,0.0,-2.6545,-2.6664,-2.6047,0.0,0.0,0.0,0.0,-2.4901,-2.5922,0.0,0.0,0.0,0.0,0.0,0.0,0.0,0.0,0.0,0.0,0.0,0.0,0.0,0.0,0.0,0.0,0.0,0.0,0.0,0.0,0.0,0.0,0.0,0.0,0.0,0.0,0.0,0.0,0.0,0.0,0.0,0.0,0.0,0.0,0.0,0.0,0.0,0.0,0.0,0.0,0.0,0.0,0.0,0.0,0.0,0.0,0.0,0.0,0.0,0.0,0.0,0.0,0.0,0.0,0.0,0.0,-2.3093,-2.288,-2.2889,-2.3126,-2.3012,-2.2643,-2.1999,-2.1447,-2.0489,0.0,0.0,0.0,0.0,0.0,0.0,0.0,0.0,0.0,0.0,0.0,0.0,0.0,0.0,0.0,0.0,0.0,0.0,0.0,0.0,0.0,0.0,0.0,0.0,0.0,0.0,0.0,0.0,0.0,0.0,0.0,0.0,0.0,0.0,0.0,0.0,0.0,0.0,0.0,0.0,0.0,-2.7773,-2.6818,-2.602,-2.5975,0.0,0.0,-2.5975,-2.6396,-2.6597,0.0,0.0,0.0,0.0,0.0,0.0,0.0,0.0,0.0,0.0,0.0,0.0,0.0,0.0,0.0,0.0,0.0,0.0,0.0,0.0,0.0,0.0,0.0,0.0,0.0,0.0,0.0,0.0,0.0,0.0,0.0,0.0,0.0,0.0,0.0,0.0,0.0,0.0,0.0,0.0,0.0,0.0,0.0,0.0,0.0,0.0,0.0,0.0,0.0,0.0,0.0,0.0,0.0,0.0,0.0,-2.2958,-2.3189,-2.3045,-2.3045,-2.3183,-2.3154,-2.279,-2.2039,-2.1776,-2.0988,0.0,0.0,0.0,0.0,0.0,0.0,0.0,0.0,0.0,0.0,0.0,0.0,0.0,0.0,0.0,0.0,0.0,0.0,0.0,0.0,0.0,0.0,0.0,0.0,0.0,0.0,0.0,0.0,0.0,0.0,0.0,0.0,0.0,0.0,0.0,0.0,0.0,0.0,0.0,0.0,0.0,0.0,-2.7379,-2.7088,0.0,0.0,0.0,-2.7279,-2.7353,0.0,0.0,0.0,0.0,0.0,0.0,0.0,0.0,0.0,0.0,0.0,0.0,0.0,0.0,0.0,0.0,0.0,0.0,0.0,0.0,0.0,0.0,0.0,0.0,0.0,0.0,0.0,0.0,0.0,0.0,0.0,0.0,0.0,0.0,0.0,0.0,0.0,0.0,0.0,0.0,0.0,0.0,0.0,0.0,0.0,0.0,0.0,0.0,0.0,0.0,0.0,0.0,0.0,0.0,0.0,0.0,0.0,-2.3061,-2.3005,-2.3005,-2.3063,-2.3112,-2.2684,-2.1775,-2.1632,0.0,0.0,0.0,0.0,0.0,0.0,0.0,0.0,0.0,0.0,0.0,0.0,0.0,0.0,0.0,0.0,0.0,0.0,0.0,0.0,0.0,0.0,0.0,0.0,0.0,0.0,0.0,-1.6129,0.0,0.0,0.0,0.0,0.0,0.0,0.0,0.0,0.0,0.0,0.0,0.0,0.0,0.0,-2.7147,-2.7299,-2.7647,-2.7728,0.0,0.0,-2.7879,-2.8157,-2.8631,-2.8021,0.0,0.0,0.0,0.0,0.0,0.0,0.0,0.0,0.0,0.0,0.0,0.0,0.0,0.0,0.0,0.0,0.0,0.0,0.0,0.0,0.0,0.0,0.0,0.0,0.0,0.0,0.0,0.0,0.0,0.0,0.0,0.0,0.0,0.0,0.0,0.0,0.0,0.0,0.0,0.0,0.0,0.0,0.0,0.0,0.0,0.0,0.0,0.0,0.0,0.0,0.0,0.0,0.0,0.0,0.0,-2.2729,-2.249,-2.2473,-2.2695,-2.2496,-2.1944,-2.1095,-2.0462,-1.9791,0.0,0.0,0.0,0.0,0.0,0.0,0.0,0.0,0.0,0.0,0.0,0.0,0.0,0.0,0.0,0.0,0.0,0.0,0.0,0.0,0.0,0.0,0.0,0.0,0.0,0.0,0.0,0.0,0.0,0.0,0.0,0.0,0.0,0.0,0.0,0.0,0.0,0.0,0.0,0.0,0.0,-2.7597,-2.5985,-2.6927,-2.805,0.0,0.0,-2.7202,-2.8676,-2.8938,-2.8212,-2.5904,0.0,0.0,0.0,0.0,0.0,0.0,0.0,0.0,0.0,0.0,0.0,0.0,0.0,0.0,0.0,0.0,0.0,0.0,0.0,0.0,0.0,0.0,0.0,0.0,0.0,0.0,0.0,0.0,0.0,0.0,0.0,0.0,0.0,0.0,0.0,0.0,0.0,0.0,0.0,0.0,0.0,0.0,0.0,0.0,0.0,0.0,0.0,0.0,0.0,0.0,0.0,0.0,0.0,-2.2591,-2.2695,-2.2143,-2.191,-2.2002,-2.1284,-2.0506,-1.9725,-1.946,-1.9147,0.0,0.0,0.0,0.0,0.0,0.0,0.0,0.0,0.0,0.0,0.0,0.0,0.0,0.0,0.0,0.0,0.0,0.0,0.0,0.0,0.0,0.0,0.0,0.0,0.0,0.0,0.0,0.0,-1.7423,-1.8076,-1.9577,0.0,0.0,0.0,0.0,0.0,0.0,0.0,0.0,0.0,0.0,-2.6986,-2.76,-2.7607,0.0,0.0,-2.7411,-2.7386,-2.75,-2.7523,-2.6886,-2.5044,-2.3377,0.0,0.0,0.0,0.0,0.0,0.0,0.0,0.0,0.0,0.0,0.0,0.0,0.0,0.0,0.0,0.0,0.0,0.0,0.0,0.0,0.0,0.0,0.0,0.0,0.0,0.0,0.0,0.0,0.0,0.0,0.0,0.0,0.0,0.0,0.0,0.0,0.0,0.0,0.0,0.0,0.0,0.0,0.0,0.0,0.0,0.0,0.0,0.0,0.0,0.0,0.0,0.0,-2.247,-2.2263,-2.1738,-2.1351,-2.1144,-2.039,-1.9649,-1.8936,-1.8707,-1.852,0.0,0.0,0.0,0.0,0.0,0.0,0.0,0.0,0.0,0.0,0.0,0.0,0.0,0.0,0.0,0.0,0.0,0.0,0.0,0.0,0.0,0.0,0.0,0.0,0.0,0.0,0.0,0.0,-1.8292,-1.9064,-2.0447,0.0,0.0,0.0,0.0,0.0,0.0,0.0,0.0,0.0,0.0,-2.6217,-2.7403,-2.7184,-2.6863,-2.6616,-2.6866,-2.7129,-2.7273,-2.6524,-2.5485,-2.4387,0.0,0.0,0.0,0.0,0.0,0.0,0.0,0.0,0.0,0.0,0.0,0.0,0.0,0.0,0.0,0.0,0.0,0.0,0.0,0.0,0.0,0.0,0.0,0.0,0.0,0.0,0.0,-1.7271,0.0,0.0,-1.6515,0.0,0.0,0.0,0.0,0.0,0.0,0.0,0.0,0.0,0.0,0.0,0.0,0.0,0.0,0.0,0.0,0.0,0.0,0.0,0.0,0.0,0.0,-2.1957,-2.1246,-2.1205,-2.0806,-2.0061,-1.9993,-1.9616,-1.8872,-1.8262,-1.7851,-1.7715,0.0,0.0,0.0,0.0,0.0,0.0,0.0,0.0,0.0,0.0,0.0,0.0,0.0,0.0,0.0,0.0,0.0,0.0,0.0,0.0,0.0,0.0,0.0,0.0,0.0,0.0,-2.005,-2.0357,-2.0471,0.0,0.0,0.0,0.0,0.0,0.0,0.0,0.0,0.0,0.0,-2.5147,-2.543,-2.4503,-2.5189,-2.5984,-2.6474,-2.5965,-2.6243,-2.8436,-2.6287,-2.4231,0.0,0.0,0.0,0.0,0.0,0.0,0.0,0.0,0.0,0.0,0.0,0.0,0.0,0.0,0.0,0.0,0.0,0.0,0.0,0.0,0.0,0.0,0.0,0.0,0.0,0.0,0.0,-1.7088,-1.6572,0.0,0.0,0.0,0.0,0.0,0.0,0.0,0.0,0.0,0.0,0.0,-1.8026,-1.8051,0.0,0.0,0.0,0.0,0.0,0.0,0.0,0.0,0.0,0.0,0.0,0.0,-2.1448,-2.1178,-2.0357,-1.9712,-1.9274,-1.8777,-1.8316,-1.7861,-1.7418,-1.6962,-1.6593,0.0,0.0,0.0,0.0,0.0,0.0,0.0,0.0,0.0,0.0,0.0,0.0,0.0,0.0,0.0,0.0,0.0,0.0,0.0,0.0,0.0,0.0,0.0,0.0,0.0,-2.0275,0.0,0.0,0.0,0.0,0.0,0.0,0.0,0.0,0.0,0.0,0.0,-2.4199,-2.4199,-2.4521,-2.4612,-2.4243,-2.449,-2.4783,0.0,0.0,0.0,0.0,0.0,0.0,0.0,0.0,0.0,0.0,0.0,0.0,0.0,0.0,-2.5192,-2.5234,-2.4838,-2.4295,-2.368,0.0,0.0,0.0,0.0,0.0,0.0,0.0,0.0,0.0,0.0,0.0,0.0,0.0,0.0,-1.7099,0.0,-1.6944,0.0,0.0,0.0,0.0,0.0,0.0,0.0,0.0,-1.7887,-1.758,-1.7354,-1.7346,-1.7792,0.0,-1.8778,-1.9654,0.0,0.0,0.0,0.0,0.0,0.0,0.0,0.0,-2.1077,-2.0754,-1.9813,-1.9049,-1.8521,-1.8048,-1.7635,-1.732,-1.685,-1.6451,-1.6127,-1.6036,-1.5939,0.0,0.0,0.0,0.0,0.0,0.0,0.0,0.0,0.0,0.0,0.0,0.0,0.0,0.0,0.0,0.0,0.0,0.0,0.0,0.0,0.0,0.0,0.0,-2.0835,0.0,0.0,0.0,0.0,0.0,0.0,0.0,0.0,0.0,-2.4144,-2.4193,-2.4199,-2.4199,-2.4199,-2.4199,-2.4199,0.0,0.0,0.0,0.0,0.0,0.0,0.0,-2.5757,-2.5752,-2.4881,-2.4203,-2.4192,-2.4203,-2.4564,-2.564,0.0,0.0,-2.7201,-2.6912,-2.6309,-2.5931,-2.7551,-2.8984,-2.8997,-2.8993,-2.8981,0.0,0.0,0.0,0.0,0.0,0.0,0.0,0.0,-1.7642,-1.7673,0.0,-1.7134,0.0,0.0,0.0,0.0,0.0,-1.7788,0.0,0.0,-1.6436,-1.6121,-1.6622,-1.6652,-1.7053,-1.7825,-1.8418,-1.911,-1.981,-1.9823,0.0,0.0,0.0,0.0,0.0,0.0,-2.0763,-1.9968,-1.9467,-1.8786,-1.7862,-1.7789,-1.7635,-1.7264,-1.6678,-1.6301,-1.6269,-1.6046,-1.5647,-1.5053,-1.6243,0.0,0.0,0.0,0.0,0.0,0.0,0.0,0.0,0.0,0.0,0.0,0.0,0.0,0.0,0.0,0.0,0.0,0.0,0.0,0.0,-1.9986,0.0,0.0,0.0,0.0,0.0,0.0,0.0,0.0,0.0,0.0,-2.4208,-2.4199,-2.4199,-2.4199,0.0,0.0,0.0,0.0,-2.4207,-2.4191,-2.4196,-2.4752,-2.623,-2.5217,-2.422,-2.4236,0.0,0.0,-2.4198,-2.4205,-2.4218,-2.423,-2.4265,-2.5186,-2.8162,-2.8109,-2.7922,-2.8441,-2.8726,-2.8981,-2.8972,-2.8737,-2.8599,-1.7961,0.0,0.0,0.0,0.0,-1.8006,-1.76,-1.6995,-1.7005,-1.6748,-1.6416,-1.6644,0.0,0.0,0.0,0.0,0.0,0.0,-1.7443,-1.698,-1.66,-1.6076,-1.5366,-1.555,-1.5631,-1.5635,-1.5999,-1.6421,-1.6855,-1.6868,-1.8318,-2.1187,0.0,0.0,0.0,0.0,-1.9985,-1.9223,-1.8579,-1.8096,-1.7789,-1.7789,-1.7519,-1.696,-1.6763,-1.6421,-1.5962,-1.4981,-1.4614,-1.4977,-1.4937,0.0,0.0,0.0,0.0,0.0,0.0,0.0,0.0,0.0,0.0,0.0,0.0,0.0,0.0,0.0,0.0,0.0,0.0,0.0,-2.0578,-2.0344,-2.0584,0.0,0.0,0.0,0.0,0.0,0.0,0.0,0.0,0.0,-2.4209,-2.4199,-2.4199,0.0,0.0,-2.4199,-2.4199,-2.4199,-2.4208,-2.4197,-2.4198,0.0,-2.4816,-2.4502,-2.4207,-2.4199,-2.4198,-2.4207,-2.4199,-2.4211,-2.4203,-2.4206,-2.4203,-2.4534,-2.5349,-2.6368,-2.6603,-2.5981,-2.7365,-2.891,-2.8898,-2.727,-2.5604,-1.7138,-1.7482,-1.761,-1.7548,-1.7309,-1.7301,-1.6928,-1.6361,-1.6331,-1.6271,-1.6151,-1.6293,-1.6477,-1.6709,-1.7414,0.0,0.0,0.0,-1.645,-1.5547,-1.5547,-1.5156,-1.4453,-1.4696,-1.4782,-1.4702,-1.4978,-1.5271,-1.5586,-1.5906,-1.7173,-1.9366,0.0,0.0,-2.0695,-1.9959,-1.935,-1.8894,-1.8192,-1.7789,-1.7789,-1.7789,-1.7612,-1.7216,-1.6934,-1.6615,-1.6203,-1.517,-1.4572,-1.4536,-1.4659,-1.4729,0.0,0.0,0.0,0.0,0.0,0.0,0.0,0.0,0.0,0.0,0.0,-1.743,0.0,0.0,0.0,0.0,-1.9327,-2.0315,-2.0883,-2.0747,0.0,0.0,0.0,0.0,0.0,0.0,0.0,-2.4514,-2.4395,-2.4192,-2.4192,-2.3649,-2.3474,-2.4116,-2.4199,-2.4199,-2.4199,0.0,-2.4199,-2.4199,-2.384,-2.3712,-2.4136,-2.4211,-2.4008,-2.3336,-2.3805,-2.4183,-2.4201,-2.4201,-2.4192,-2.4192,-2.4201,-2.42,-2.419,-2.5025,-2.5415,-2.4459,-2.5727,-2.702,-2.7103,-2.5541,-2.4208,-1.6301,-1.6327,-1.7181,-1.7174,-1.6644,-1.6644,-1.6331,-1.5799,-1.5746,-1.6024,-1.6495,-1.5904,-1.6286,-1.7361,-1.7384,0.0,-1.5649,-1.5649,-1.5004,-1.3835,-1.3827,-1.3823,-1.38,-1.4061,-1.4313,-1.4574,-1.4821,-1.5123,-1.5415,-1.6087,-1.6495,-1.6631,-1.7287,-1.8346,-1.9697,-1.9156,-1.8817,-1.8792,-1.8132,-1.78,-1.78,-1.7794,-1.7789,-1.7743,-1.715,-1.6797,-1.6738,-1.6082,-1.5134,-1.4004,-1.5072,-1.5225,-1.4184,0.0,0.0,0.0,0.0,0.0,0.0,0.0,0.0,0.0,0.0,0.0,0.0,0.0,0.0,0.0,-1.8966,0.0,-2.0373,-2.1036,0.0,0.0,0.0,-2.2139,-2.141,-2.1543,-2.1729,-2.1785,0.0,0.0,-2.3799,-2.2515,-2.2153,-2.3611,-2.4034,-2.4181,-2.4089,-2.4126,-2.4154,-2.3859,-2.3171,-2.296,-2.3695,-2.3702,-2.3084,-2.1868,-2.2845,-2.3643,-2.3819,-2.369,-2.3775,-2.3612,-2.3861,-2.4072,-2.4173,-2.4264,-2.4198,-2.4213,-2.4266,-2.4282,-2.4394,-2.4312,-2.4203,-1.6143,-1.5928,-1.6158,-1.6144,-1.6009,-1.5994,-1.5941,-1.5761,-1.5274,-1.5119,-1.5216,-1.4573,-1.4453,-1.4745,-1.4737,-1.4565,-1.4281,-1.4274,-1.4222,-1.411,-1.4094,-1.3945,-1.3661,-1.3921,-1.3806,-1.3443,-1.3674,-1.3843,-1.3922,-1.4108,-1.476,-1.5807,-1.6035,-1.6864,-1.8253,-1.8166,-1.8082,-1.8065,-1.7884,-1.7791,-1.78,-1.7793,-1.7673,-1.7415,-1.7002,-1.6693,-1.6413,-1.5525,-1.4887,-1.4588,-1.4884,-1.4892,-1.4641,-1.5402,0.0,0.0,0.0,0.0,0.0,0.0,0.0,0.0,0.0,-1.8211,-1.8051,0.0,-2.0,0.0,-1.9278,-1.9464,-1.9854,-2.0072,0.0,0.0,-2.1432,-2.1612,-2.1671,-2.1164,-2.107,-2.173,-2.1035,-2.0471,-2.0477,-2.0152,-2.0045,-2.0471,-2.2629,-2.3923,-2.316,-2.3702,-2.3573,-2.2144,-2.2198,-2.2527,-2.2298,-2.1276,-2.0423,-1.9963,-2.026,-2.0876,-2.2159,-2.1303,-2.046,-2.0551,-2.155,-2.271,-2.3895,-2.4192,-2.4183,-2.421,-2.4201,-2.4207,-2.4207,-2.42,-2.4192,-1.594,-1.5364,-1.5364,-1.5371,-1.5386,-1.5671,-1.5814,-1.5746,-1.5074,-1.4817,-1.4772,-1.4101,-1.3802,-1.3802,-1.3802,-1.3645,-1.3353,-1.3353,-1.327,-1.3122,-1.313,-1.3021,-1.2818,-1.3187,-1.318,-1.2851,-1.3225,-1.3396,-1.3396,-1.3396,-1.382,-1.4589,-1.4606,-1.5198,-1.6348,-1.7312,-1.7789,-1.7803,-1.7471,-1.707,-1.654,-1.6707,-1.6879,-1.7025,-1.7027,-1.7071,-1.7229,-1.6701,-1.6128,-1.5526,-1.5347,-1.5117,-1.482,-1.5169,-1.5499,0.0,0.0,0.0,0.0,0.0,0.0,0.0,0.0,0.0,0.0,0.0,-1.9714,-1.9892,-1.9529,-1.9608,-2.0334,-2.0392,-2.0573,-2.0907,-2.0943,-2.0888,-2.0712,-2.0253,-2.0143,-2.062,-1.9856,-1.928,-1.9286,-1.9286,-1.9286,-1.9295,-2.0864,-2.2004,-2.1875,-2.1985,-2.1712,-2.104,-2.1028,-2.1051,-2.0712,-1.9925,-1.9286,-1.9286,-1.9286,-1.9645,-2.0494,-1.9943,-1.9279,-1.9364,-2.0085,-2.0946,-2.1858,-2.2682,-2.3306,-2.3839,-2.3004,-2.2676,-2.3888,-2.4201,-2.3924,-1.571,-1.4817,-1.4817,-1.4745,-1.4734,-1.5311,-1.5641,-1.5761,-1.5094,-1.47,-1.4517,-1.384,-1.3548,-1.3555,-1.3555,-1.3226,-1.2688,-1.2688,-1.2366,-1.1869,-1.1848,-1.1862,-1.1918,-1.2372,-1.2607,-1.263,-1.3121,-1.3337,-1.3363,-1.3388,-1.3439,-1.354,-1.354,-1.3904,-1.4707,-1.6547,-1.7557,-1.7596,-1.7012,-1.6175,-1.5132,-1.5606,-1.6179,-1.6813,-1.7138,-1.7584,-1.8227,-1.8214,-1.7671,-1.6518,-1.608,-1.5555,-1.4916,-1.4817,-1.5007,0.0,-1.5551,0.0,0.0,0.0,0.0,0.0,0.0,0.0,0.0,-1.8331,-1.9118,-2.0241,-1.976,-1.9852,-2.0949,-2.1041,-2.0862,-2.0413,-2.0354,-2.006,-1.9399,-1.9295,-1.9295,-1.9295,-1.9295,-1.9295,-1.9289,-1.9295,-1.9295,-1.9299,-1.9433,-1.9867,-2.0416,-2.0031,-1.9816,-2.0575,-1.9901,-1.9541,-1.9457,-1.9344,-1.9289,-1.928,-1.9289,-1.9295,-1.9354,-1.9326,-1.9286,-1.9289,-1.9355,-1.9394,-1.9303,-2.0556,-2.1875,-2.3024,-2.1291,-2.0432,-2.2589,-2.3276,-2.2614,-1.5725,-1.4817,-1.4817,-1.4476,-1.4019,-1.4124,-1.479,-1.5754,-1.5074,-1.4176,-1.3153,-1.2463,-1.2186,-1.2179,-1.2171,-1.2119,-1.1984,-1.1992,-1.2039,-1.2107,-1.2107,-1.2243,-1.2455,-1.2558,-1.2598,-1.261,-1.2936,-1.3063,-1.3085,-1.3311,-1.3692,-1.4266,-1.4301,-1.4656,-1.5375,0.0,0.0,0.0,-1.6664,-1.6474,-1.6075,-1.6932,-1.7447,-1.7569,-1.7396,0.0,-1.7494,-1.7239,-1.699,-1.6727,-1.6402,0.0,0.0,0.0,0.0,0.0,0.0,0.0,0.0,0.0,0.0,0.0,-1.6042,-1.6423,-1.7355,-1.9006,-1.9976,-1.9837,-1.9886,-1.9857,-1.9698,-1.9666,-1.9627,-1.9555,-1.9519,-1.9455,-1.9299,-1.9295,-1.9295,-1.9295,-1.9295,-1.9295,-1.9295,-1.9295,-1.9295,-1.9295,-1.9295,-1.9363,-1.9567,-1.9454,-1.9405,-1.9558,-1.9433,-1.9292,-1.928,-1.9286,-1.9268,-1.9295,-1.9295,-1.9286,-1.9286,-1.9286,-1.9295,-1.9292,-1.9292,-1.924,-1.92,-1.957,-1.9987,-2.0209,-1.974,-1.9497,-2.0088,-2.0257,-2.0036,-1.4732,0.0,-1.3802,-1.36,0.0,-1.3107,-1.3635,-1.4532,-1.3849,-1.2924,-1.1855,-1.1636,-1.1534,-1.1564,-1.1725,-1.1819,-1.1819,-1.1819,-1.1883,-1.201,-1.201,-1.2079,-1.2223,-1.235,-1.2485,-1.2618,-1.2878,-1.3063,-1.3199,-1.3329,-1.3591,-1.3946,-1.3954,-1.4132,-1.4479,-1.4522,-1.482,-1.5393,-1.553,-1.5388,-1.4918,-1.5363,-1.5798,-1.6141,-1.6361,0.0,0.0,0.0,0.0,0.0,0.0,0.0,0.0,0.0,0.0,-1.4035,-1.387,-1.3818,-1.3905,-1.4066,-1.4341,-1.4785,-1.4978,-1.5671,-1.7084,-1.8512,-1.9325,-1.9357,-1.947,-1.9494,-1.932,-1.9295,-1.9295,-1.9295,-1.9295,-1.9295,-1.9295,-1.9295,-1.9295,-1.9295,-1.9295,-1.9295,-1.9295,-1.9295,-1.9295,-1.9295,-1.9295,-1.9286,-1.9295,-1.9295,-1.9295,-1.9286,-1.9289,-1.928,-1.9292,-1.9287,-1.895,-1.843,-1.8774,-1.9234,-1.928,-1.9285,-1.9294,-1.9239,-1.8687,-1.7921,-1.7231,-1.8154,-1.9291,-1.9284,-1.9295,-1.9292,-1.9285,-1.9285,-1.9285,-1.376,-1.2808,-1.2777,-1.2679,-1.2505,-1.2255,-1.2391,-1.2767,0.0,0.0,0.0,-1.1246,-1.1296,-1.1326,-1.1659,-1.1819,-1.1819,-1.1819,-1.1819,-1.1819,-1.1819,-1.1819,-1.1819,-1.2033,-1.2251,-1.2463,-1.2732,-1.2981,-1.3183,-1.3286,-1.3329,-1.332,-1.3379,-1.3396,-1.3396,-1.3396,-1.3701,-1.4293,-1.4435,-1.4225,-1.3616,-1.3726,-1.4082,-1.468,-1.5274,-1.5883,-1.6466,-1.678,-1.6662,-1.613,-1.5669,-1.5137,-1.4546,-1.4248,-1.4031,-1.3915,-1.3719,-1.3552,-1.3495,-1.3496,-1.348,-1.3396,-1.409,-1.5148,-1.6732,-1.7457,-1.8107,-1.8689,-1.8802,-1.8972,-1.9274,-1.9295,-1.9295,-1.9295,-1.9161,-1.9093,-1.9069,-1.8941,-1.8901,-1.9215,-1.9285,-1.928,-1.9295,-1.8998,-1.8876,-1.891,-1.9068,-1.9295,-1.9289,-1.9292,-1.9143,-1.8797,-1.8958,-1.9219,-1.893,-1.9179,-1.8532,-1.6876,-1.7518,-1.8494,-1.8781,-1.8637,-1.8476,-1.8162,-1.7298,-1.6114,-1.5045,-1.6872,-1.8651,-1.8502,-1.8439,-1.8657,-1.917,-1.9291,-1.9284,-1.3891,-1.2777,-1.2777,-1.2296,-1.1508,-1.1462,-1.1188,-1.0881,-1.1612,-1.1873,-1.1744,-1.1431,-1.1296,-1.1326,-1.1637,-1.1819,-1.1819,-1.1819,-1.1819,-1.1819,-1.1819,-1.1819,-1.1819,-1.1834,-1.1863,-1.1926,-1.2169,-1.234,-1.2404,-1.2842,-1.3067,-1.3103,-1.3286,-1.3396,-1.3396,-1.3396,-1.3455,-1.3566,-1.4183,-1.4444,-1.436,-1.4969,-1.5333,-1.5443,-1.5494,-1.5629,-1.5747,-1.5772,-1.5777,-1.5676,-1.5366,-1.4852,-1.4214,-1.3867,-1.3436,-1.2892,-1.2796,-1.2847,-1.3061,-1.3063,-1.3166,-1.3413,-1.4073,-1.4887,-1.5733,-1.628,-1.6879,-1.7647,-1.8046,-1.852,-1.9185,-1.9277,-1.925,-1.9213,-1.8675,-1.8271,-1.8252,-1.7706,-1.7817,-1.9003,-1.9286,-1.9217,-1.8916,-1.7987,-1.7243,-1.7436,-1.825,-1.9179,-1.8985,-1.9293,-1.8696,-1.7795,-1.8428,-1.8591,-1.7849,-1.8448,-1.7807,-1.5275,-1.5167,-1.5936,-1.7059,-1.6319,-1.5637,-1.5293,-1.5198,-1.4873,-1.4549,-1.5928,-1.6577,-1.5855,-1.5613,-1.6242,-1.8444,-1.8998,-1.913,-1.2778,-1.2254,-1.208,-1.173,-1.128,-1.0943,-1.0567,-1.0186,-1.0617,-1.0819,-1.0818,-1.0811,-1.0909,-1.1087,-1.1408,-1.1534,-1.1534,-1.1725,-1.1703,-1.1557,-1.1725,-1.1819,-1.1819,-1.1819,-1.1869,-1.2003,-1.2128,-1.2279,-1.2451,-1.2676,-1.2861,-1.3013,-1.3269,-1.3396,-1.3396,-1.3396,-1.3396,-1.3405,-1.3718,-1.3718,-1.3337,-1.3633,-1.3802,-1.3811,-1.3802,-1.3997,-1.4395,-1.4014,-1.3802,-1.3802,-1.3251,-1.2982,-1.3099,-1.2844,-1.2649,-1.2602,-1.2602,-1.2657,-1.2786,-1.3042,-1.3269,-1.3396,-1.3718,-1.4031,-1.4395,-1.5558,-1.6659,-1.7521,-1.7912,-1.8436,-1.9179,-1.8904,-1.8647,-1.8647,-1.794,-1.7468,-1.7422,-1.7147,-1.7192,-1.7863,-1.7996,-1.767,-1.6785,-1.606,-1.5606,-1.5719,-1.6986,-1.7683,-1.694,-1.7486,-1.7765,-1.7133,-1.7532,-1.7646,-1.7009,-1.6653,-1.6072,-1.4632,-1.4504,-1.4794,-1.5515,-1.4852,-1.4581,-1.4487,-1.4475,-1.4499,-1.4499,-1.5041,-1.5123,-1.4883,-1.474,-1.5678,-1.6766,-1.7085,-1.7592,-1.1797,-1.1659,-1.1416,-1.1227,-1.1036,-1.0519,-1.0141,-0.9899,-0.9905,-0.9873,-0.9957,-1.026,-1.0539,-1.0811,-1.108,-1.1219,-1.1235,-1.1482,-1.1505,-1.1334,-1.1359,-1.1459,-1.1529,-1.1396,-1.1411,-1.168,-1.1808,-1.1998,-1.2195,-1.2302,-1.2516,-1.2844,-1.3219,-1.3396,-1.3396,-1.3396,-1.3312,-1.3168,-1.3142,-1.2888,-1.2322,-1.2136,-1.2026,-1.2026,-1.2035,-1.2312,-1.2812,-1.2331,-1.2111,-1.2263,-1.1696,-1.1654,-1.2246,-1.2215,-1.2269,-1.2521,-1.2633,-1.2714,-1.2807,-1.3157,-1.3396,-1.3396,-1.3396,-1.3404,-1.352,-1.4814,-1.6121,-1.6967,-1.7249,-1.7778,-1.8445,-1.8207,-1.7816,-1.7789,-1.7124,-1.6642,-1.6615,-1.6487,-1.6358,-1.6367,-1.6358,-1.5866,-1.4849,-1.449,-1.4557,-1.4777,-1.5599,-1.574,-1.4908,-1.5636,-1.6281,-1.6435,-1.6641,-1.67,-1.6426,-1.5444,-1.4693,-1.4493,-1.4496,-1.4552,-1.4607,-1.4545,-1.3949,-1.3604,-1.3638,-1.4003,-1.434,-1.4543,-1.4569,-1.4525,-1.4831,-1.5208,-1.5367,-1.5308,-1.6198,-1.1839,-1.1363,-1.1303,-1.0989,-1.047,-1.0091,-0.9925,-0.9899,-0.9873,-0.9873,-0.9925,-1.026,-1.0421,-1.0501,-1.0781,-1.0944,-1.0944,-1.0961,-1.1087,-1.1164,-1.0511,-1.0434,-1.0767,-1.0125,-0.9839,-1.0219,-1.0692,-1.0967,-1.1046,-1.1419,-1.1856,-1.2387,-1.305,-1.3337,-1.3362,-1.3354,-1.3057,-1.2415,-1.2407,-1.2365,-1.2263,-1.1586,-1.1206,-1.1214,-1.1197,-1.1231,-1.1392,-1.1223,-1.1553,-1.2221,-1.2162,-1.2178,-1.2298,-1.2648,-1.2696,-1.2362,-1.2704,-1.3059,-1.3286,-1.3371,-1.3396,-1.3396,-1.3413,-1.34,-1.3427,-1.385,-1.4468,-1.5258,-1.5585,-1.6228,-1.6977,-1.7064,-1.7009,-1.6972,-1.6307,-1.5802,-1.5738,-1.516,-1.4729,-1.4717,-1.4909,-1.465,-1.455,-1.4496,-1.4486,-1.4493,-1.4745,-1.4907,-1.4623,-1.4718,-1.4964,-1.5096,-1.5876,-1.6119,-1.5218,-1.468,-1.4403,-1.4428,-1.4478,-1.4478,-1.45,-1.4176,-1.3738,-1.158,-1.1715,-1.2924,-1.3711,-1.4493,-1.4495,-1.454,-1.4821,-1.5169,-1.515,-1.4894,-1.6006,-1.1445,-1.1048,-1.0855,-1.0519,-1.0122,-0.9951,-0.9873,-0.9873,-0.9873,-0.9873,-0.9899,-1.004,-1.021,-1.0403,-1.0532,-1.0612,-1.0619,-1.0787,-1.0673,-1.0306,-1.0068,-0.9954,-0.9821,-0.964,-0.9547,-0.9695,-1.0081,-1.0279,-1.0331,-1.0696,-1.1027,-1.1268,-1.1785,-1.2043,-1.2026,-1.2041,-1.1882,-1.1578,-1.1155,-1.093,-1.0918,-1.0617,-1.0445,-1.0453,-1.0445,-1.0682,-1.1003,-1.0698,-1.08,-1.1451,-1.0788,-1.0703,-1.1536,-1.1357,-1.1298,-1.1417,-1.2,-1.2664,-1.3346,-1.3396,-1.3438,-1.3509,-1.3526,-1.3541,-1.359,-1.3788,-1.4089,-1.449,-1.5143,-1.5949,-1.6697,-1.6468,-1.6197,-1.6096,-1.5472,-1.5004,-1.4976,-1.4719,-1.4497,-1.4497,-1.4497,-1.4497,-1.4497,-1.4497,-1.4497,-1.4497,-1.4497,-1.4497,-1.4497,-1.4497,-1.4497,-1.4582,-1.5122,-1.5196,-1.4609,-1.4497,-1.4107,-1.3538,-1.3915,-1.4483,-1.4257,-1.2603,-1.1094,-0.9852,-1.1138,-1.1744,-1.143,-1.3487,-1.4508,-1.441,-1.4532,-1.4796,-1.4791,-1.4644,-1.5521,-1.0551,-1.0299,-1.0105,-1.0,-0.9899,-0.9873,-0.9873,-0.9873,-0.9873,-0.9873,-0.9873,-0.9873,-0.9951,-1.0058,-1.0207,-1.0176,-1.0087,-1.0311,-1.005,-0.9402,-0.9318,-0.9144,-0.8933,-0.8804,-0.8806,-0.8932,-0.9238,-0.9492,-0.9656,-1.0178,-1.0352,-1.0325,-1.072,-1.0988,-1.1042,-1.1048,-1.0953,-1.0766,-1.0237,-0.9899,-0.9743,-0.97,-0.97,-0.9709,-0.97,-0.9954,-1.0458,-0.9971,-1.0047,-1.0724,-0.976,-0.9667,-1.0682,-1.0412,-1.0408,-1.08,-1.1554,-1.2306,-1.3058,-1.3295,-1.3454,-1.354,-1.3562,-1.3644,-1.3759,-1.3897,-1.4056,-1.4257,-1.4934,-1.5606,-1.6037,-1.5707,-1.5408,-1.5325,-1.4811,-1.4506,-1.4515,-1.4497,-1.4497,-1.4497,-1.4497,-1.4497,-1.4497,-1.4497,-1.4497,-1.4497,-1.4497,-1.4497,-1.4497,-1.4497,-1.4497,-1.4497,-1.4501,-1.4515,-1.4497,-1.4499,-1.3756,-1.2703,-1.2902,-1.3044,-1.3523,-1.1324,-0.9797,-0.9924,-1.1224,-1.182,-1.1442,-1.2806,-1.3232,-1.3196,-1.3228,-1.3713,-1.465,-1.4615,-1.4836,-0.9096,-0.8869,-0.9043,-0.9434,-0.9874,-0.9823,-0.9848,-0.9759,-0.9823,-0.9836,-0.9786,-0.9836,-0.9616,-0.9223,-0.9654,-0.9641,-0.923,-0.9209,-0.9063,-0.8668,-0.7971,-0.7809,-0.8173,-0.7408,-0.7166,-0.7509,-0.8082,-0.8515,-0.8864,-0.9713,-0.9978,-0.9593,-1.0185,-1.0673,-1.0752,-1.0762,-1.0595,-1.0068,-0.9959,-0.9658,-0.9086,-0.8976,-0.8993,-0.9001,-0.8959,-0.9044,-0.9069,-0.8993,-0.9315,-1.0047,-0.9925,-0.9942,-1.0115,-1.0472,-1.0653,-1.0857,-1.1679,-1.2256,-1.2441,-1.2965,-1.3379,-1.3437,-1.3556,-1.37,-1.3924,-1.4092,-1.4261,-1.4473,-1.4558,-1.4689,-1.4753,-1.479,-1.4662,-1.4634,-1.4561,-1.4497,-1.4497,-1.4497,-1.4497,-1.4497,-1.4497,-1.4497,-1.4497,-1.4497,-1.4497,-1.4497,-1.4497,-1.4497,-1.4478,-1.4488,-1.4378,-1.4316,-1.4335,-1.4466,-1.4456,-1.3745,-1.3227,-1.2285,-1.1092,-1.0674,-1.0959,-1.0966,-1.0209,-0.9935,-1.0942,-1.1511,-1.1588,-1.1269,-1.0685,-1.053,-1.0666,-1.1397,-1.3241,-1.4663,-1.5093,-0.8506,-0.8205,-0.8481,-0.8766,-0.8967,-0.8735,-0.87,-0.8797,-0.8675,-0.8606,-0.8653,-0.88,-0.8776,-0.8587,-0.8782,-0.8776,-0.8616,-0.8581,-0.8338,-0.7866,-0.7546,-0.7325,-0.7151,-0.6969,-0.6921,-0.7062,-0.7379,-0.7735,-0.8027,-0.8485,-0.8643,-0.8687,-0.8972,-0.9229,-0.9327,-0.9421,-0.9379,-0.9213,-0.9247,-0.9154,-0.8936,-0.8911,-0.8911,-0.8911,-0.8911,-0.8911,-0.8911,-0.8911,-0.9238,-0.9975,-0.9548,-0.9514,-0.9916,-0.9727,-0.9814,-1.0249,-1.0619,-1.1257,-1.2162,-1.2542,-1.3024,-1.3644,-1.3754,-1.3924,-1.421,-1.4371,-1.442,-1.4476,-1.4497,-1.4497,-1.4497,-1.4497,-1.4497,-1.4497,-1.4497,-1.4497,-1.4497,-1.4497,-1.4497,-1.4497,-1.4497,-1.4497,-1.4497,-1.4497,-1.4497,-1.4497,-1.4497,-1.4497,-1.4405,-1.4114,-1.3626,-1.3161,-1.3246,-1.3354,-1.2956,-1.1928,-1.111,-1.0628,-0.9995,-1.0042,-1.023,-1.0326,-0.9745,-0.9706,-1.0579,-1.0714,-1.0656,-1.0543,-0.9705,-0.9704,-0.9705,-1.0166,-1.1363,-1.298,-1.4106,-0.7709,-0.7763,-0.7869,-0.8071,-0.8246,-0.7932,-0.7888,-0.8055,-0.7875,-0.7806,-0.7894,-0.8,-0.7961,-0.7809,-0.7778,-0.7704,-0.7688,-0.7854,-0.7701,-0.7169,-0.7156,-0.6938,-0.6666,-0.674,-0.6807,-0.6845,-0.7073,-0.7301,-0.748,-0.7709,-0.7911,-0.8045,-0.8221,-0.8319,-0.8412,-0.86,-0.8717,-0.8768,-0.8843,-0.8911,-0.8911,-0.8911,-0.8911,-0.8911,-0.8911,-0.8911,-0.8911,-0.8911,-0.9103,-0.9489,-0.9171,-0.9128,-0.9531,-0.9188,-0.912,-0.9599,-0.9874,-1.0546,-1.1728,-1.2197,-1.279,-1.3701,-1.3924,-1.4118,-1.4299,-1.4437,-1.4488,-1.4497,-1.4497,-1.4497,-1.4497,-1.4497,-1.4497,-1.4497,-1.4497,-1.4497,-1.4497,-1.4497,-1.4497,-1.4497,-1.4497,-1.4497,-1.4497,-1.4497,-1.4497,-1.4497,-1.4497,-1.4497,-1.4405,-1.3802,-1.2732,-1.1687,-1.1907,-1.2233,-1.2068,-1.1259,-1.0458,-0.9906,-0.9582,-0.9555,-0.9617,-0.9649,-0.9658,-0.9681,-0.9699,-0.9698,-0.9712,-0.9705,-0.9709,-0.9706,-0.971,-0.9959,-1.0789,-1.1426,-1.2656,-0.6693,-0.7265,-0.7166,-0.7386,-0.7724,-0.7472,-0.7569,-0.7693,-0.7513,-0.7425,-0.7527,-0.7534,-0.7162,-0.6818,-0.6785,-0.656,-0.6504,-0.7074,-0.7137,-0.6718,-0.665,-0.6632,-0.6599,-0.6616,-0.6627,-0.6644,-0.6992,-0.7196,-0.7253,-0.7635,-0.787,-0.7913,-0.8072,-0.8185,-0.8374,-0.8567,-0.8748,-0.8815,-0.8807,-0.8835,-0.8894,-0.875,-0.8733,-0.8807,-0.8837,-0.8854,-0.8913,-0.8911,-0.8936,-0.897,-0.8936,-0.8911,-0.8987,-0.8928,-0.8928,-0.9069,-0.9591,-1.0296,-1.1115,-1.1961,-1.2684,-1.3587,-1.3974,-1.4125,-1.4113,-1.4314,-1.4497,-1.4497,-1.4497,-1.4497,-1.4497,-1.4497,-1.4497,-1.4497,-1.4497,-1.4497,-1.4497,-1.4497,-1.4497,-1.4497,-1.4497,-1.4497,-1.4497,-1.4497,-1.4497,-1.4497,-1.4497,-1.4499,-1.4382,-1.3695,-1.2249,-1.0662,-1.0535,-1.1114,-1.104,-1.083,-1.0186,-0.9621,-0.9375,-0.9251,-0.9412,-0.9475,-0.9447,-0.9466,-0.9661,-0.9668,-0.9699,-0.9709,-0.9709,-0.9698,-0.9707,-0.9706,-1.0165,-1.0826,-1.1636,-0.6051,-0.6111,-0.6225,-0.6442,-0.6656,-0.6299,-0.6264,-0.6419,-0.6206,-0.6173,-0.6247,-0.636,-0.6296,-0.6189,-0.6155,-0.6089,-0.602,-0.6397,-0.6565,-0.6566,-0.6412,-0.6436,-0.6546,-0.6593,-0.6599,-0.6644,-0.6861,-0.7073,-0.723,-0.7525,-0.7753,-0.7899,-0.8037,-0.8071,-0.8096,-0.8467,-0.8681,-0.8538,-0.8276,-0.8146,-0.8085,-0.7654,-0.7645,-0.8097,-0.8236,-0.8502,-0.9,-0.8957,-0.8911,-0.8911,-0.8911,-0.8911,-0.8911,-0.8911,-0.8911,-0.8908,-0.9095,-0.9904,-1.1123,-1.1612,-1.2446,-1.3636,-1.4131,-1.423,-1.4302,-1.4416,-1.4497,-1.4497,-1.4497,-1.4497,-1.4497,-1.4497,-1.4497,-1.4497,-1.4497,-1.4497,-1.4497,-1.4497,-1.4497,-1.4497,-1.4497,-1.4497,-1.4497,-1.4497,-1.4497,-1.4478,-1.4469,-1.4456,-1.432,-1.3319,-1.1779,-0.9927,-1.0095,-1.0105,-1.0123,-1.0085,-0.9699,-0.9394,-0.9242,-0.9135,-0.9268,-0.9277,-0.9233,-0.9358,-0.9543,-0.9654,-0.9684,-0.9709,-0.9701,-0.9704,-0.9701,-0.9699,-0.9706,-1.0257,-1.108,-0.5499,-0.5385,-0.5537,-0.5686,-0.5771,-0.545,-0.5487,-0.5633,-0.5461,-0.5411,-0.5517,-0.5582,-0.5603,-0.5622,-0.5708,-0.5819,-0.5911,-0.6057,-0.6266,-0.6535,-0.6429,-0.6361,-0.633,-0.6298,-0.618,-0.6173,-0.6606,-0.6847,-0.6835,-0.7334,-0.7657,-0.7805,-0.8057,-0.8125,-0.8045,-0.848,-0.8672,-0.8498,-0.8329,-0.8204,-0.8127,-0.7755,-0.7738,-0.8165,-0.8286,-0.8577,-0.8988,-0.8938,-0.8946,-0.9033,-0.9054,-0.9045,-0.9045,-0.9003,-0.8979,-0.8979,-0.9056,-0.9592,-1.08,-1.1361,-1.2156,-1.3482,-1.4089,-1.4353,-1.4485,-1.4497,-1.4497,-1.4497,-1.4497,-1.4497,-1.4497,-1.4497,-1.4497,-1.4497,-1.4497,-1.4497,-1.4497,-1.4497,-1.4497,-1.4497,-1.4497,-1.4497,-1.4497,-1.4497,-1.4497,-1.4469,-1.4233,-1.4267,-1.4009,-1.2915,-1.123,-0.994,-0.9652,-0.9564,-0.9376,-0.9268,-0.9147,-0.912,-0.9129,-0.914,-0.9229,-0.9094,-0.9033,-0.9323,-0.9545,-0.9586,-0.9617,-0.9681,-0.9707,-0.9707,-0.9716,-0.9771,-0.9808,-0.9875,-1.045,-0.5074,-0.5093,-0.5093,-0.5083,-0.5074,-0.5001,-0.5122,-0.5331,-0.5117,-0.5151,-0.53,-0.5098,-0.5088,-0.5146,-0.5319,-0.5491,-0.5813,-0.5874,-0.6069,-0.636,-0.6423,-0.6302,-0.6048,-0.6051,-0.5838,-0.5597,-0.6413,-0.6652,-0.6487,-0.7207,-0.7612,-0.7717,-0.81,-0.8275,-0.8171,-0.8607,-0.8755,-0.8636,-0.8669,-0.8649,-0.8663,-0.8608,-0.8661,-0.8695,-0.8748,-0.8829,-0.8979,-0.9024,-0.9078,-0.9228,-0.9227,-0.9237,-0.9246,-0.9178,-0.9117,-0.9107,-0.9109,-0.9543,-1.0313,-1.1128,-1.2119,-1.3072,-1.3849,-1.449,-1.4469,-1.4497,-1.4497,-1.4497,-1.4497,-1.4497,-1.4497,-1.4497,-1.4497,-1.4497,-1.4497,-1.4497,-1.4497,-1.4497,-1.4497,-1.4497,-1.4497,-1.4497,-1.4451,-1.4368,-1.4201,-1.4205,-1.3692,-1.3598,-1.3546,-1.2482,-1.1031,-1.0122,-0.9436,-0.9324,-0.9236,-0.9097,-0.9007,-0.9133,-0.9106,-0.9074,-0.9187,-0.9079,-0.9104,-0.9376,-0.9528,-0.9553,-0.9531,-0.9574,-0.9653,-0.97,-0.975,-0.9851,-0.9887,-0.9903,-0.9922,-0.4764,-0.48,-0.482,-0.4697,-0.4494,-0.4309,-0.4373,-0.4567,-0.4345,-0.4558,-0.4756,-0.4401,-0.4589,-0.5044,-0.4771,-0.4865,-0.5271,-0.552,-0.5633,-0.5806,-0.6015,-0.6242,-0.6355,-0.6367,-0.6265,-0.6167,-0.6564,-0.6917,-0.6947,-0.7345,-0.7657,-0.7834,-0.8057,-0.8125,-0.806,-0.8387,-0.8517,-0.8407,-0.8043,-0.8006,-0.8087,-0.7723,-0.7726,-0.822,-0.8462,-0.8815,-0.9269,-0.9439,-0.9294,-0.9024,-0.9107,-0.9139,-0.9198,-0.9218,-0.9246,-0.9246,-0.9264,-0.9622,-1.0386,-1.0851,-1.1683,-1.3033,-1.3477,-1.3875,-1.446,-1.4497,-1.4497,-1.4497,-1.4497,-1.4497,-1.4497,-1.4497,-1.4497,-1.4497,-1.4497,-1.4497,-1.4497,-1.4497,-1.4497,-1.4497,-1.4497,-1.4488,-1.4272,-1.3561,-1.3101,-1.3375,-1.302,-1.2528,-1.2659,-1.2066,-1.0629,-0.9831,-0.9235,-0.9216,-0.9144,-0.9001,-0.8985,-0.9155,-0.9112,-0.8953,-0.9116,-0.9232,-0.939,-0.9645,-0.9626,-0.9633,-0.9457,-0.9362,-0.9493,-0.9674,-0.9736,-0.9786,-0.9771,-0.9768,-0.9782,-0.4756,-0.4661,-0.4516,-0.439,-0.4305,-0.4252,-0.4256,-0.4268,-0.4147,-0.4224,-0.4434,-0.4236,-0.4316,-0.4706,-0.4567,-0.4637,-0.4937,-0.5214,-0.5333,-0.5372,-0.5606,-0.5806,-0.5946,-0.6028,-0.5982,-0.5862,-0.6465,-0.665,-0.6711,-0.7223,-0.7606,-0.779,-0.816,-0.8253,-0.8178,-0.843,-0.8567,-0.8506,-0.822,-0.8145,-0.8214,-0.7936,-0.8048,-0.8442,-0.8655,-0.8975,-0.9411,-0.9499,-0.9421,-0.9284,-0.9303,-0.9358,-0.9358,-0.9376,-0.9377,-0.9394,-0.9376,-0.9645,-1.0132,-1.0531,-1.1415,-1.2553,-1.305,-1.3701,-1.4295,-1.4497,-1.4497,-1.4497,-1.4497,-1.4497,-1.4497,-1.4497,-1.4497,-1.4497,-1.4497,-1.4497,-1.4497,-1.4497,-1.4497,-1.4497,-1.4488,-1.4407,-1.4256,-1.2885,-1.2575,-1.2685,-1.2252,-1.2073,-1.2022,-1.1176,-1.039,-0.9551,-0.9115,-0.9113,-0.912,-0.9009,-0.8919,-0.9067,-0.9094,-0.8922,-0.9033,-0.9242,-0.9321,-0.9474,-0.9599,-0.9668,-0.9509,-0.9396,-0.9462,-0.9603,-0.966,-0.9698,-0.9701,-0.9708,-0.9702,-0.4345,-0.4378,-0.4272,-0.424,-0.4326,-0.4467,-0.433,-0.4219,-0.4028,-0.4126,-0.4228,-0.4247,-0.4292,-0.4374,-0.4455,-0.4595,-0.4782,-0.504,-0.5093,-0.5194,-0.5325,-0.5404,-0.5298,-0.5484,-0.5436,-0.5346,-0.6105,-0.6279,-0.644,-0.7118,-0.7503,-0.7773,-0.8363,-0.8583,-0.8497,-0.8726,-0.8804,-0.8776,-0.8798,-0.8821,-0.8893,-0.8858,-0.8964,-0.91,-0.918,-0.9277,-0.9435,-0.9463,-0.9481,-0.9721,-0.9704,-0.9641,-0.9632,-0.9559,-0.9543,-0.9534,-0.9526,-0.9553,-0.9661,-1.0328,-1.1141,-1.2049,-1.2802,-1.3601,-1.4242,-1.4497,-1.4497,-1.4497,-1.4497,-1.4497,-1.4497,-1.4497,-1.4497,-1.4497,-1.4497,-1.4497,-1.4497,-1.4497,-1.4497,-1.4497,-1.4497,-1.4314,-1.376,-1.2933,-1.2218,-1.2855,-1.2126,-1.1421,-1.1177,-1.053,-0.9851,-0.9187,-0.8992,-0.9017,-0.9031,-0.9038,-0.8959,-0.896,-0.8981,-0.8918,-0.8974,-0.9084,-0.9082,-0.9203,-0.9544,-0.9694,-0.9667,-0.9603,-0.9583,-0.9594,-0.9689,-0.9704,-0.9709,-0.9703,-0.9698,-0.0613,-0.3123,-0.4359,-0.4658,-0.4262,-0.3937,-0.3737,-0.3627,-0.3233,-0.3459,-0.3928,-0.3814,-0.4154,-0.479,-0.4167,-0.4175,-0.4902,-0.5015,-0.5103,-0.5093,-0.5136,-0.517,-0.5113,-0.5193,-0.5582,-0.5875,-0.5938,-0.6222,-0.6687,-0.7231,-0.7743,-0.7967,-0.8432,-0.8754,-0.8739,-0.879,-0.8904,-0.8986,-0.9065,-0.9179,-0.9339,-0.9422,-0.9495,-0.9581,-0.9661,-0.9735,-0.9771,-0.9781,-0.9787,-0.9796,-0.9729,-0.9647,-0.9614,-0.9675,-0.9699,-0.9672,-0.9657,-0.9648,-0.9693,-0.9965,-1.0607,-1.1949,-1.2381,-1.2967,-1.4341,-1.4511,-1.4499,-1.4488,-1.4497,-1.4531,-1.4511,-1.4508,-1.4508,-1.4499,-1.4508,-1.4508,-1.4497,-1.4497,-1.4497,-1.4497,-1.4497,-1.4467,-1.4368,-1.3858,-1.3324,-1.3103,-1.214,-1.0985,-1.0349,-0.9861,-0.9474,-0.8973,-0.8926,-0.8966,-0.8973,-0.8981,-0.8951,-0.8911,-0.891,-0.8921,-0.8965,-0.911,-0.9179,-0.9349,-0.9607,-0.9685,-0.9676,-0.9739,-0.9707,-0.9716,-1.0013,-1.037,-1.0601,-1.0253,-1.0413,0.2213,-0.0197,-0.1121,-0.2259,-0.3343,-0.3186,-0.2929,-0.2673,-0.2417,-0.2551,-0.3108,-0.3505,-0.3787,-0.3626,-0.3791,-0.4252,-0.4598,-0.4722,-0.473,-0.4712,-0.4744,-0.4865,-0.4742,-0.4304,-0.4334,-0.5588,-0.6093,-0.635,-0.6784,-0.7501,-0.8053,-0.8167,-0.8636,-0.8824,-0.8895,-0.8972,-0.9077,-0.9198,-0.9304,-0.9419,-0.9545,-0.961,-0.9694,-0.9772,-0.991,-1.0005,-0.9991,-0.9963,-0.9968,-0.9963,-0.9886,-0.9784,-0.9729,-0.9795,-0.9815,-0.9798,-0.9784,-0.9784,-0.9794,-0.9894,-1.0526,-1.2072,-1.2239,-1.3207,-1.4202,-1.4677,-1.4677,-1.4677,-1.4686,-1.4685,-1.4612,-1.4656,-1.4635,-1.4533,-1.4558,-1.4567,-1.452,-1.4497,-1.4497,-1.4497,-1.4497,-1.4498,-1.4388,-1.4102,-1.3338,-1.2595,-1.2262,-1.1145,-0.987,-0.9448,-0.9373,-0.9075,-0.8962,-0.8917,-0.8916,-0.8925,-0.8927,-0.8908,-0.8905,-0.8915,-0.8926,-0.9129,-0.9349,-0.9527,-0.9672,-0.9626,-0.9635,-0.9716,-1.0522,-1.1838,-1.2344,-1.2044,-1.2071,-1.2514,-1.2645,0.5066,0.3692,0.3081,0.0855,-0.1849,-0.1685,-0.0805,-0.0191,-0.08,-0.0723,-0.1303,-0.2622,-0.1988,-0.2235,-0.2666,-0.3451,-0.3977,-0.4013,-0.395,-0.3949,-0.3049,-0.3054,-0.2918,-0.1968,-0.1649,-0.3892,-0.5125,-0.5825,-0.6787,-0.7724,-0.8454,-0.8532,-0.8897,-0.917,-0.9178,-0.9277,-0.9441,-0.9504,-0.96,-0.968,-0.9715,-0.9725,-0.9755,-0.9875,-0.9993,-1.009,-1.0092,-1.0067,-1.0038,-1.0097,-1.011,-1.0049,-0.9977,-0.994,-0.9925,-0.9895,-0.9868,-0.9868,-0.9869,-0.996,-1.054,-1.2102,-1.2376,-1.3085,-1.4199,-1.4746,-1.485,-1.4868,-1.485,-1.4832,-1.4756,-1.4804,-1.4747,-1.4645,-1.4667,-1.4666,-1.46,-1.4547,-1.4569,-1.4499,-1.4494,-1.4494,-1.4253,-1.3935,-1.2989,-1.2183,-1.1873,-1.1374,-1.0163,-0.9301,-0.9353,-0.9111,-0.8961,-0.8918,-0.8911,-0.8911,-0.8911,-0.9038,-0.901,-0.8916,-0.8911,-0.9023,-0.9237,-0.9537,-0.9659,-0.9854,-0.9983,-1.0078,-1.1397,-1.3691,-1.4344,-1.3693,-1.4077,-1.4871,-1.4606,0.9278,0.8725,0.518,0.2091,0.0175,0.1845,0.3909,0.5674,0.3685,0.2412,0.172,0.2126,0.0558,-0.0667,0.002,-0.0757,-0.215,-0.2308,-0.2363,-0.1949,-0.0628,0.0328,0.0525,0.1206,0.1536,0.0679,-0.2101,-0.5023,-0.6706,-0.8333,-0.8461,-0.8978,-0.9419,-0.9637,-0.9627,-0.9839,-0.9745,-0.9742,-0.9825,-0.9882,-0.995,-0.9935,-0.9919,-1.0001,-1.0066,-1.01,-1.0146,-1.0124,-1.0104,-1.0164,-1.0189,-1.0163,-1.0149,-1.0095,-1.0108,-1.0048,-0.9948,-0.9948,-1.006,-0.995,-1.0389,-1.1215,-1.2023,-1.2813,-1.3789,-1.4497,-1.4879,-1.4929,-1.492,-1.4904,-1.4868,-1.4912,-1.4905,-1.485,-1.4832,-1.4841,-1.4823,-1.4794,-1.4717,-1.4581,-1.4537,-1.4469,-1.4215,-1.3772,-1.2894,-1.2278,-1.2002,-1.1823,-1.119,-1.0282,-0.9781,-0.9397,-0.8933,-0.8908,-0.8917,-0.8908,-0.8947,-0.9201,-0.9188,-0.8921,-0.8913,-0.8911,-0.9136,-1.014,-1.0723,-1.1056,-1.1013,-1.0867,-1.1993,-1.4073,-1.465,-1.5039,-1.5066,-1.5085,-1.5109,0.9741,1.0066,0.8018,0.6252,0.4857,0.4457,0.604,0.8044,0.6722,0.591,0.5614,0.5221,0.4656,0.3736,0.3091,0.208,0.0719,0.1113,0.1333,0.1865,0.2794,0.3451,0.3442,0.3922,0.2348,0.0683,-0.176,-0.3202,-0.4725,-0.5786,-0.7352,-0.8638,-0.9079,-0.9212,-0.9333,-0.9373,-0.9551,-0.9638,-0.9747,-0.9852,-0.9979,-0.9958,-1.0018,-1.0036,-1.0046,-1.0058,-1.0086,-1.0081,-1.0065,-1.0091,-1.0104,-1.008,-1.0173,-1.0459,-1.0734,-1.0637,-1.0324,-1.0308,-1.0489,-1.0437,-1.0654,-1.1843,-1.2411,-1.3224,-1.4161,-1.4889,-1.5072,-1.5059,-1.5054,-1.5032,-1.4965,-1.4996,-1.5002,-1.4938,-1.4928,-1.4944,-1.4929,-1.4925,-1.4831,-1.4696,-1.4612,-1.451,-1.4334,-1.3718,-1.2842,-1.237,-1.2117,-1.1936,-1.1812,-1.1655,-1.0979,-0.9751,-0.9257,-0.8911,-0.8942,-0.901,-0.9715,-1.0036,-0.9881,-0.9606,-0.9694,-1.0051,-1.0795,-1.1751,-1.2131,-1.2314,-1.2604,-1.2674,-1.3606,-1.4275,-1.4756,-1.5131,-1.5169,-1.5196,-1.5202,0.8934,1.0033,1.002,0.975,0.8994,0.6913,0.7155,0.8743,0.8385,0.8228,0.8608,0.7375,0.7336,0.7927,0.6908,0.5312,0.3929,0.4927,0.5023,0.5484,0.5512,0.562,0.562,0.5121,0.397,0.1959,0.0566,-0.1027,-0.322,-0.425,-0.5834,-0.7413,-0.813,-0.8346,-0.8626,-0.8869,-0.8984,-0.913,-0.936,-0.9519,-0.9574,-0.9749,-0.9853,-0.9853,-0.9863,-0.9882,-0.99,-0.9862,-0.988,-0.9901,-0.9909,-0.9902,-1.0009,-1.0637,-1.1251,-1.1484,-1.0898,-1.1034,-1.1281,-1.0956,-1.1159,-1.2457,-1.2885,-1.3783,-1.4526,-1.4975,-1.5264,-1.5221,-1.5205,-1.5178,-1.5108,-1.5155,-1.5121,-1.5047,-1.503,-1.5033,-1.4973,-1.496,-1.4985,-1.486,-1.472,-1.4451,-1.4182,-1.4356,-1.3609,-1.2622,-1.2338,-1.1596,-1.1686,-1.3096,-1.2501,-1.0668,-0.9646,-0.908,-0.8979,-0.9151,-1.034,-1.1813,-1.1518,-1.1177,-1.1372,-1.1658,-1.2414,-1.3028,-1.3368,-1.3584,-1.3996,-1.416,-1.4391,-1.4659,-1.5022,-1.5197,-1.5195,-1.5204,-1.5197,0.8042,0.9145,0.9045,0.9426,0.9901,0.892,0.8812,0.9316,0.9045,0.8638,0.8449,0.8483,0.8171,0.8058,0.9151,0.8673,0.7592,0.6571,0.6627,0.7285,0.7329,0.7125,0.7142,0.6841,0.5715,0.386,0.3738,0.1096,-0.2038,-0.3893,-0.5499,-0.6859,-0.7251,-0.7609,-0.8202,-0.829,-0.8469,-0.8576,-0.888,-0.891,-0.8759,-0.909,-0.927,-0.9313,-0.9368,-0.9504,-0.9541,-0.9505,-0.9478,-0.9638,-0.9646,-0.9699,-0.9815,-0.9887,-1.0933,-1.1648,-1.1885,-1.168,-1.2177,-1.1719,-1.1551,-1.268,-1.3323,-1.3879,-1.4459,-1.4973,-1.5277,-1.5287,-1.5268,-1.5263,-1.5231,-1.5265,-1.5226,-1.5188,-1.5155,-1.5108,-1.5038,-1.5047,-1.5069,-1.502,-1.488,-1.4324,-1.3888,-1.4288,-1.4434,-1.3406,-1.2488,-1.1815,-1.1746,-1.3192,-1.3271,-1.1267,-0.9906,-0.9308,-1.004,-1.005,-1.1129,-1.3127,-1.2816,-1.2478,-1.2612,-1.2803,-1.3442,-1.3993,-1.4232,-1.4296,-1.4334,-1.4458,-1.4729,-1.4856,-1.497,-1.5091,-1.5193,-1.52,-1.5195,0.7368,0.8512,0.8678,0.9189,0.9814,0.9527,0.9441,0.9459,0.9185,0.9013,0.8877,0.8699,0.8518,0.8523,0.952,0.9138,0.8232,0.7861,0.7636,0.7735,0.7839,0.755,0.6362,0.5892,0.5492,0.4354,0.3314,0.1759,-0.0987,-0.1982,-0.308,-0.5729,-0.605,-0.6504,-0.7311,-0.7459,-0.7698,-0.7955,-0.822,-0.8144,-0.8016,-0.8269,-0.8599,-0.8573,-0.8641,-0.8856,-0.9046,-0.8847,-0.8982,-0.9229,-0.935,-0.9569,-1.0125,-1.0631,-1.1404,-1.1868,-1.2433,-1.2515,-1.2506,-1.2173,-1.2338,-1.2672,-1.344,-1.411,-1.4547,-1.4922,-1.5191,-1.5185,-1.5258,-1.5283,-1.5281,-1.5287,-1.5286,-1.527,-1.524,-1.5162,-1.5109,-1.5159,-1.5156,-1.51,-1.4949,-1.4357,-1.3928,-1.4247,-1.4513,-1.4002,-1.3386,-1.301,-1.2851,-1.3475,-1.2913,-1.1401,-1.0301,-0.9471,-1.0778,-1.1614,-1.2334,-1.3642,-1.3293,-1.3121,-1.3443,-1.3806,-1.4018,-1.3945,-1.3736,-1.3923,-1.4344,-1.4565,-1.4626,-1.4718,-1.4805,-1.4956,-1.5101,-1.5197,-1.5203,0.7069,0.8035,0.8296,0.8739,0.9233,0.9378,0.9509,0.9564,0.9293,0.9318,0.938,0.9005,0.8783,0.8816,0.9071,0.8822,0.7753,0.8651,0.8054,0.7541,0.7266,0.6833,0.5789,0.5001,0.399,0.249,0.2221,0.126,0.0925,0.0247,-0.1398,-0.4282,-0.4248,-0.4997,-0.5797,-0.609,-0.6266,-0.6842,-0.7229,-0.7221,-0.7091,-0.7468,-0.7707,-0.7783,-0.7856,-0.8058,-0.835,-0.8108,-0.8205,-0.8434,-0.8496,-0.8723,-0.9466,-0.9919,-1.0741,-1.1346,-1.2008,-1.234,-1.2453,-1.2501,-1.2701,-1.3065,-1.3581,-1.4493,-1.4862,-1.5065,-1.5063,-1.5088,-1.5215,-1.524,-1.5234,-1.5246,-1.5275,-1.527,-1.525,-1.5187,-1.5135,-1.5144,-1.5093,-1.497,-1.4766,-1.437,-1.412,-1.433,-1.4403,-1.4314,-1.4166,-1.4011,-1.3908,-1.3846,-1.3241,-1.2001,-1.1156,-1.0407,-1.1077,-1.2413,-1.3446,-1.4085,-1.3748,-1.3516,-1.3665,-1.3633,-1.3598,-1.3455,-1.332,-1.3427,-1.3746,-1.4139,-1.4503,-1.4587,-1.4691,-1.4852,-1.4989,-1.512,-1.5205,0.7396,0.781,0.7649,0.7854,0.8302,0.881,0.9235,0.9479,0.9481,0.9428,0.9406,0.9398,0.8737,0.8392,0.8567,0.8437,0.7509,0.7605,0.7198,0.6657,0.6224,0.6036,0.5245,0.4407,0.3583,0.3116,0.2252,0.1481,0.1014,0.0809,-0.0464,-0.1969,-0.2552,-0.3247,-0.4013,-0.4632,-0.4866,-0.5408,-0.5884,-0.62,-0.6239,-0.6548,-0.6863,-0.6913,-0.7,-0.7101,-0.7153,-0.7171,-0.736,-0.7577,-0.7635,-0.7928,-0.8714,-0.8936,-0.9724,-1.0647,-1.1376,-1.166,-1.1785,-1.269,-1.346,-1.386,-1.4249,-1.4664,-1.4932,-1.4989,-1.4993,-1.4946,-1.5025,-1.506,-1.5083,-1.5136,-1.5115,-1.5067,-1.5028,-1.5046,-1.5022,-1.5076,-1.5009,-1.4858,-1.4673,-1.4482,-1.4406,-1.4626,-1.4437,-1.4328,-1.4477,-1.4353,-1.3864,-1.3741,-1.3716,-1.303,-1.2205,-1.1642,-1.1448,-1.2527,-1.3957,-1.4405,-1.4231,-1.384,-1.3598,-1.3523,-1.3858,-1.329,-1.322,-1.3174,-1.3253,-1.3821,-1.4265,-1.4424,-1.4616,-1.4915,-1.5077,-1.5205,-1.5243,0.6931,0.7034,0.6963,0.7443,0.8219,0.8258,0.8471,0.8731,0.8581,0.8511,0.8508,0.8461,0.8269,0.8012,0.8001,0.7841,0.7182,0.7349,0.6787,0.6254,0.5898,0.5639,0.502,0.4422,0.381,0.3339,0.2505,0.1728,0.1195,0.0909,0.0243,-0.0673,-0.1265,-0.2164,-0.2928,-0.3554,-0.3901,-0.4111,-0.4567,-0.489,-0.5085,-0.5449,-0.5861,-0.6193,-0.6221,-0.6674,-0.7088,-0.687,-0.7198,-0.7505,-0.757,-0.79,-0.8372,-0.8518,-0.9101,-1.0021,-1.072,-1.0996,-1.0994,-1.2207,-1.3473,-1.3832,-1.406,-1.4289,-1.4671,-1.4728,-1.4588,-1.4593,-1.4721,-1.4766,-1.467,-1.4705,-1.4714,-1.4705,-1.4741,-1.482,-1.4869,-1.4912,-1.5058,-1.4968,-1.5017,-1.4987,-1.4947,-1.4957,-1.4653,-1.4376,-1.4571,-1.4628,-1.4176,-1.3874,-1.3946,-1.3901,-1.3152,-1.2291,-1.2025,-1.3202,-1.4606,-1.4606,-1.4577,-1.421,-1.3862,-1.4562,-1.466,-1.3897,-1.261,-1.1792,-1.1986,-1.3365,-1.4174,-1.4676,-1.4945,-1.5143,-1.5257,-1.4963,-1.4352,0.6672,0.6744,0.6661,0.7125,0.789,0.7722,0.7843,0.8074,0.7927,0.7624,0.7483,0.7653,0.7518,0.7359,0.7526,0.7201,0.6766,0.6729,0.637,0.5987,0.5648,0.5404,0.4854,0.4281,0.3737,0.3356,0.2767,0.205,0.1464,0.1022,0.0533,0.0022,-0.0506,-0.1237,-0.2044,-0.2807,-0.3192,-0.3238,-0.3543,-0.3828,-0.4006,-0.4353,-0.4706,-0.5082,-0.511,-0.5628,-0.605,-0.599,-0.613,-0.67,-0.7125,-0.7531,-0.8068,-0.8564,-0.8855,-0.9475,-1.0024,-1.0364,-1.0446,-1.1427,-1.3084,-1.3545,-1.3566,-1.3833,-1.4135,-1.4248,-1.4012,-1.4197,-1.4346,-1.4372,-1.424,-1.438,-1.4449,-1.4467,-1.4516,-1.4585,-1.4618,-1.4682,-1.4946,-1.5095,-1.5174,-1.5215,-1.4873,-1.4745,-1.4435,-1.4246,-1.4453,-1.4658,-1.4684,-1.446,-1.4465,-1.4372,-1.4055,-1.3203,-1.2496,-1.3851,-1.4907,-1.4399,-1.4368,-1.4355,-1.4357,-1.4921,-1.5197,-1.4614,-1.2987,-1.0655,-1.0669,-1.2051,-1.3655,-1.5154,-1.4729,-1.3818,-1.3183,-1.2625,-1.1904,0.6821,0.7137,0.6761,0.6848,0.7235,0.7234,0.7442,0.7773,0.7751,0.7378,0.6882,0.7386,0.7055,0.6407,0.69,0.6698,0.6224,0.6193,0.6008,0.5686,0.5322,0.5116,0.4646,0.4065,0.3468,0.3377,0.2783,0.2136,0.1692,0.1492,0.1069,0.0535,0.0044,-0.0331,-0.0993,-0.18,-0.2192,-0.2326,-0.2837,-0.3068,-0.3294,-0.3547,-0.3822,-0.4072,-0.4148,-0.4712,-0.5176,-0.4983,-0.5129,-0.5694,-0.5808,-0.6017,-0.6322,-0.6929,-0.7538,-0.8382,-0.8598,-0.9047,-0.9741,-1.1182,-1.2071,-1.2757,-1.2667,-1.3058,-1.3421,-1.3493,-1.3438,-1.3643,-1.3837,-1.385,-1.3946,-1.4066,-1.4052,-1.4088,-1.4109,-1.4175,-1.4194,-1.4199,-1.4398,-1.4811,-1.5152,-1.5254,-1.4793,-1.4418,-1.4136,-1.4072,-1.4317,-1.4546,-1.4766,-1.4603,-1.4432,-1.4529,-1.4358,-1.4335,-1.3832,-1.46,-1.5112,-1.4508,-1.4073,-1.3959,-1.401,-1.4257,-1.453,-1.4684,-1.2507,-0.941,-0.9772,-1.0728,-1.2723,-1.4377,-1.2652,-1.1632,-1.0971,-1.1096,-1.1376,0.6672,0.6788,0.6655,0.6672,0.6788,0.6805,0.7025,0.7359,0.7375,0.7093,0.6711,0.6929,0.6835,0.6489,0.634,0.6314,0.5961,0.5684,0.5579,0.5117,0.4894,0.4445,0.4037,0.3622,0.3072,0.2641,0.2237,0.1957,0.1452,0.1541,0.1113,0.0557,0.0246,-0.0112,-0.0556,-0.1108,-0.1397,-0.1642,-0.2109,-0.2517,-0.2871,-0.3125,-0.3389,-0.3733,-0.3739,-0.4078,-0.4682,-0.4295,-0.4499,-0.5014,-0.5064,-0.5174,-0.5339,-0.5876,-0.6075,-0.6563,-0.6751,-0.7534,-0.8359,-0.9383,-1.0211,-1.0915,-1.1497,-1.1933,-1.2724,-1.2997,-1.3015,-1.2899,-1.2907,-1.2916,-1.3109,-1.3076,-1.3092,-1.3273,-1.3346,-1.3475,-1.3521,-1.3506,-1.366,-1.4278,-1.4716,-1.3286,-1.2465,-1.2639,-1.2562,-1.3021,-1.3248,-1.4144,-1.457,-1.4157,-1.3888,-1.4251,-1.4415,-1.4849,-1.514,-1.4887,-1.3911,-1.2781,-1.2918,-1.3331,-1.3448,-1.3575,-1.2502,-1.1951,-1.006,-0.8299,-0.9144,-1.0244,-1.2371,-1.32,-1.2187,-1.2201,-1.2778,-1.311,-1.343,0.6599,0.6599,0.6599,0.6599,0.6599,0.6599,0.6754,0.6989,0.6989,0.6838,0.6638,0.6593,0.6516,0.6416,0.627,0.6,0.5747,0.5475,0.518,0.4715,0.4582,0.4297,0.3864,0.3301,0.3023,0.2447,0.2019,0.1694,0.1563,0.1496,0.116,0.0669,0.0201,-0.0045,-0.038,-0.0692,-0.107,-0.1379,-0.1807,-0.2223,-0.2511,-0.2741,-0.2971,-0.3246,-0.3435,-0.3679,-0.4075,-0.4237,-0.4219,-0.4597,-0.4765,-0.4762,-0.4796,-0.5016,-0.5113,-0.5363,-0.5603,-0.6286,-0.6869,-0.695,-0.7715,-0.8564,-0.9355,-1.0423,-1.1269,-1.1205,-1.0951,-1.0966,-1.1493,-1.1678,-1.1701,-1.1718,-1.1956,-1.2101,-1.2163,-1.2264,-1.2277,-1.2234,-1.2354,-1.3039,-1.3307,-1.1719,-1.0383,-1.0505,-1.0721,-1.1424,-1.2124,-1.2921,-1.3638,-1.3265,-1.2724,-1.2959,-1.3806,-1.4457,-1.4429,-1.4073,-1.2882,-1.118,-1.1189,-1.1509,-1.2661,-1.2665,-1.0948,-0.9327,-0.8261,-0.7732,-0.8502,-0.9823,-1.1524,-1.2735,-1.2981,-1.3436,-1.4584,-1.4522,-1.4248,0.6599,0.6599,0.6599,0.6575,0.6599,0.6599,0.6616,0.6616,0.6593,0.6593,0.6569,0.6524,0.6407,0.6218,0.6164,0.5917,0.5552,0.5269,0.4933,0.4668,0.4446,0.4248,0.3892,0.3386,0.2938,0.2682,0.2296,0.1781,0.1781,0.1626,0.1316,0.0871,0.0313,0.0067,-0.0202,-0.0517,-0.0875,-0.119,-0.1666,-0.2044,-0.2316,-0.2385,-0.257,-0.275,-0.2861,-0.3159,-0.3407,-0.3373,-0.3414,-0.3628,-0.3879,-0.3876,-0.413,-0.4667,-0.4953,-0.5048,-0.501,-0.5153,-0.5208,-0.5081,-0.5339,-0.6344,-0.7408,-0.8551,-0.9405,-0.9591,-0.9367,-0.9213,-0.9522,-0.9778,-0.9956,-1.0238,-1.0494,-1.0556,-1.0585,-1.0658,-1.068,-1.0725,-1.0819,-1.1234,-1.17,-1.085,-0.9617,-0.9344,-0.9216,-0.978,-1.0016,-0.8938,-0.9821,-1.1391,-1.0961,-1.0926,-1.2029,-1.3783,-1.3502,-1.1887,-0.9074,-0.6479,-0.8135,-0.8836,-1.0271,-1.056,-0.8083,-0.6542,-0.6852,-0.7319,-0.8585,-0.9426,-1.0257,-1.1195,-1.1544,-1.2909,-1.3493,-1.3789,-1.367,0.6424,0.6558,0.6236,0.629,0.6564,0.6599,0.6599,0.6582,0.6412,0.6306,0.6295,0.6177,0.6099,0.5974,0.578,0.5634,0.5454,0.5181,0.4793,0.4515,0.4289,0.3917,0.35,0.3102,0.2732,0.243,0.2084,0.1826,0.1716,0.1628,0.1315,0.087,0.0446,0.0224,-0.0067,-0.0358,-0.0664,-0.105,-0.1565,-0.1941,-0.2226,-0.24,-0.2522,-0.2613,-0.2627,-0.289,-0.2916,-0.2902,-0.2933,-0.2997,-0.3061,-0.3063,-0.3095,-0.3288,-0.3416,-0.3449,-0.3607,-0.3861,-0.3866,-0.4038,-0.4229,-0.4381,-0.5164,-0.6653,-0.7784,-0.83,-0.7972,-0.7844,-0.8053,-0.8511,-0.8717,-0.8935,-0.9146,-0.9216,-0.9247,-0.9279,-0.9329,-0.9429,-0.9529,-0.9711,-1.0173,-0.9375,-0.8254,-0.7905,-0.7868,-0.832,-0.7891,-0.6436,-0.6345,-0.8045,-0.8213,-0.809,-0.9892,-1.1541,-0.9666,-0.7854,-0.4641,-0.2265,0.0,0.0,-0.6407,-0.6143,-0.4328,-0.3721,-0.4035,-0.6338,-0.9138,-0.9726,-0.999,-0.888,-0.9089,-1.0891,-1.234,-1.2689,-1.2912,0.6453,0.6535,0.6307,0.6278,0.6418,0.6436,0.6407,0.6319,0.6242,0.6159,0.6088,0.5978,0.5881,0.5859,0.5647,0.549,0.5463,0.4932,0.4551,0.4394,0.4089,0.3741,0.3284,0.2961,0.274,0.2394,0.211,0.1914,0.1738,0.1473,0.1162,0.0892,0.0556,0.0268,0.0023,-0.0185,-0.04,-0.0836,-0.1334,-0.1818,-0.2162,-0.2447,-0.2644,-0.2681,-0.2681,-0.2679,-0.2679,-0.2679,-0.2679,-0.2679,-0.2679,-0.2679,-0.2714,-0.2712,-0.2374,-0.2439,-0.257,-0.2629,-0.2595,-0.2726,-0.2956,-0.3186,-0.3251,-0.418,-0.5383,-0.6115,-0.621,-0.6365,-0.7001,-0.751,-0.7595,-0.7674,-0.7789,-0.793,-0.7945,-0.7989,-0.8077,-0.8192,-0.8328,-0.8425,-0.8062,-0.7319,-0.6737,-0.6422,-0.6246,-0.6302,-0.5451,-0.3759,-0.3952,-0.5465,-0.4909,-0.4042,-0.6647,-0.8967,-0.663,0.0,0.0,0.0,0.0,0.0,0.0,0.0,0.0,0.0,-0.1234,-0.3798,-0.6498,-0.8903,-0.9512,-0.8187,-0.7278,-0.8792,-1.0521,-1.1704,-1.1874,0.6575,0.6599,0.6599,0.6442,0.6224,0.6212,0.61,0.5924,0.6046,0.6034,0.5863,0.5832,0.5747,0.5595,0.547,0.5385,0.522,0.4782,0.449,0.4285,0.3824,0.3499,0.3348,0.3153,0.2676,0.2546,0.2328,0.1935,0.1738,0.1517,0.1272,0.0914,0.0646,0.0357,0.0045,0.0,0.0,-0.0465,-0.1071,-0.1626,-0.1912,-0.2289,-0.2613,-0.2616,-0.2615,-0.2644,-0.2679,-0.2679,-0.2679,-0.2646,-0.2613,-0.258,-0.2444,-0.2411,-0.1974,-0.1807,-0.1907,-0.1839,-0.1737,-0.1769,-0.1833,-0.1927,-0.1987,-0.2475,-0.3426,-0.4345,-0.466,-0.4608,-0.5066,-0.5422,-0.551,-0.5601,-0.5733,-0.5837,-0.5901,-0.5867,-0.5856,-0.6243,-0.6834,-0.6907,-0.6746,-0.5834,-0.3982,-0.3605,-0.4158,-0.4154,-0.3695,-0.1946,0.0,0.0,0.0,0.0,0.0,0.0,-0.456,0.0,0.0,0.0,0.0,0.0,0.0,0.0,0.0,0.0,0.0,0.0,-0.3009,0.0,0.0,-0.6763,-0.6308,-0.7054,-0.8311,-0.9417,-1.0217,0.6412,0.6599,0.6599,0.6447,0.6212,0.6201,0.6088,0.5881,0.5721,0.5646,0.5558,0.5391,0.5194,0.5088,0.5257,0.5214,0.4919,0.4793,0.4568,0.4224,0.3745,0.3365,0.3135,0.2797,0.2483,0.2263,0.2066,0.1891,0.1782,0.1648,0.1404,0.0936,0.0735,0.0514,0.0,0.0,0.0,0.0,-0.0613,-0.1093,-0.1327,-0.1514,-0.174,-0.2043,-0.2213,-0.2379,-0.248,-0.2646,-0.2447,-0.2249,-0.2181,-0.1978,-0.164,-0.1672,-0.1538,-0.1371,-0.1372,-0.1339,-0.1238,-0.1137,-0.1236,-0.1337,-0.1435,-0.1502,-0.1929,-0.2647,-0.3001,-0.2928,-0.3054,-0.3379,-0.3607,-0.3701,-0.3792,-0.3881,-0.3969,-0.3866,-0.3765,-0.4451,-0.522,-0.5331,-0.5338,-0.393,-0.1967,0.0,0.0,-0.2201,-0.2394,0.0,0.0,0.0,0.0,0.0,0.0,0.0,0.0,0.0,0.0,0.0,0.0,0.0,0.0,0.0,0.0,0.0,0.0,0.0,0.0,0.0,0.0,0.0,-0.454,-0.4945,-0.4733,-0.5494,-0.6852,0.6453,0.6582,0.6599,0.6389,0.6106,0.6064,0.587,0.5561,0.5382,0.531,0.531,0.5146,0.4942,0.4768,0.5053,0.5043,0.4827,0.4807,0.456,0.4203,0.3775,0.3346,0.2936,0.2589,0.242,0.2195,0.1957,0.1804,0.1827,0.1736,0.1491,0.101,0.0876,0.0,0.0,0.0,0.0,0.0,0.0,0.0,0.0,-0.1018,-0.1338,-0.1674,-0.191,-0.2045,-0.2043,-0.2208,-0.211,-0.181,-0.1674,-0.1442,-0.1239,-0.1272,-0.1071,-0.087,-0.0838,-0.0939,-0.0837,0.0,0.0,0.0,0.0,0.0,0.0,-0.1428,-0.1956,-0.1951,-0.2639,-0.2999,-0.2999,-0.3094,-0.3094,-0.3153,-0.3183,-0.3147,-0.2917,-0.2982,-0.3582,-0.3896,-0.363,-0.2825,0.0,0.0,0.0,-0.0915,-0.1024,0.0,0.0,0.0,0.0,0.0,0.0,0.0,0.0,0.0,0.0,0.0,0.0,0.0,0.0,0.0,0.0,0.0,0.0,0.0,0.0,0.0,0.0,0.0,-0.2275,-0.2589,0.0,0.0,0.0,0.6599,0.6599,0.6599,0.6337,0.5967,0.5905,0.5641,0.5209,0.5127,0.5088,0.503,0.5035,0.4912,0.489,0.5033,0.4933,0.4849,0.4792,0.4553,0.4164,0.3686,0.3254,0.2921,0.2644,0.2408,0.2198,0.1986,0.1912,0.1872,0.1849,0.1661,0.1134,0.0888,0.0,0.0257,0.0,0.0,0.0,0.0,0.0,0.0,-0.0704,-0.1004,-0.1305,-0.1574,-0.161,-0.1541,-0.154,-0.1607,-0.1373,-0.1105,-0.0871,-0.0771,-0.0804,-0.0603,-0.0403,-0.0436,-0.0403,0.0,0.0,0.0,0.0,0.0,0.0,0.0,-0.0301,-0.0834,-0.1198,-0.1855,-0.2186,-0.2186,0.0,0.0,0.0,0.0,0.0,0.0,0.0,0.0,0.0,0.0,0.0,0.0,0.0,0.0,0.0,0.0,0.0,0.0,0.0,0.0,0.0,0.0,0.0,0.0,0.0,0.0,0.0,0.0,0.0,0.0,0.0,0.0,0.0,0.0,0.0,0.0,0.0,0.0,0.0,0.0,0.0,0.0,0.0,0.0,0.6599,0.6599,0.6599,0.6407,0.613,0.5973,0.5721,0.5406,0.52,0.4995,0.4895,0.4808,0.473,0.4724,0.5048,0.5055,0.4844,0.4797,0.4548,0.4161,0.3659,0.3179,0.2777,0.2496,0.2274,0.2146,0.2098,0.2109,0.2011,0.2044,0.195,0.1532,0.1538,0.1211,0.0632,0.0465,0.0,0.0,0.0,0.0,0.0,0.0,0.0,-0.0704,-0.0873,-0.1106,-0.1239,-0.1371,-0.1173,-0.0838,-0.0504,-0.0302,-0.0235,-0.0269,-0.0134,0.0034,-0.0034,0.0,0.0,0.0,0.0,0.0,0.0,0.0,0.0268,0.0201,-0.0067,0.0067,-0.0434,-0.0701,0.0,0.0,0.0,0.0,0.0,0.0,0.0,0.0,0.0,0.0,0.0,0.0,0.0,0.0,0.0,0.0303,0.0269,0.0,0.0,0.0,0.0503,0.0704,0.0804,0.0,0.0,0.0,0.0,0.0,0.0,0.0,0.0,0.0,0.0,0.0,0.0737,0.0,0.0,0.0,0.0,0.0,0.0,0.0,0.0,0.0,0.0]},{"header":{"parameterUnit":"m.s-1","parameterCategory":1,"la1":31.0,"la2":29.5877,"lo1":-88.7671,"lo2":-86.6584,"dy":0.0162,"dx":0.0185,"nx":115,"ny":88,"refTime":"2026-03-24T12:00:00:Z","depth":0,"parameterNumber":3,"parameterNumberName":"V-component_of_WINDS"},"data":[0.0,0.0,0.0,0.0,0.0,0.0,0.0,0.0,0.0,0.0,0.0,0.0,0.0,0.0,0.0,0.0,0.0,0.0,0.0,0.0,0.0,0.0,0.0,0.0,0.0,0.0,0.0,0.0,0.0,0.0,0.0,0.0,0.0,0.0,0.0,0.0,0.0,0.0,0.0,0.0,0.0,0.0,0.0,0.0,0.0,0.0,0.0,0.0,0.0,0.0,0.0,0.0,0.0,0.0,0.0,0.0,0.0,0.0,0.0,0.0,0.0,0.0,0.0,0.0,0.0,0.0,0.0,0.0,0.0,0.0,0.0,0.0,0.0,0.0,0.0,0.0,0.0,0.0,0.0,0.0,0.0,0.0,0.0,0.0,0.0,0.0,0.0,0.0,0.0,0.0,0.0,0.0,0.0,0.0,0.0,0.0,0.0,0.0,0.0,0.0,0.0,0.0,0.0,0.0,0.0,0.0,0.0,0.0,0.0,0.0,0.0,0.0,0.0,0.0,0.0,0.0,0.0,0.0,0.0,0.0,0.0,0.0,0.0,0.0,0.0,0.0,0.0,0.0,0.0,0.0,0.0,0.0,0.0,0.0,0.0,0.0,0.0,0.0,0.0,0.0,0.0,0.0,0.0,0.0,0.0,0.0,0.0,0.0,0.0,0.0,0.0,0.0,0.0,0.0,0.0,0.0,0.0,0.0,0.0,0.0,0.0,0.0,0.0,0.0,0.0,0.0,0.0,0.0,0.0,0.0,0.0,0.0,0.0,0.0,0.0,0.0,0.0,0.0,0.0,0.0,0.0,0.0,0.0,0.0,0.0,0.0,0.0,0.0,0.0,0.0,0.0,0.0,0.0,0.0,0.0,0.0,0.0,0.0,0.0,0.0,0.0,0.0,0.0,0.0,0.0,0.0,0.0,0.0,0.0,0.0,0.0,0.0,0.0,0.0,0.0,0.0,0.0,0.0,0.0,0.0,0.0,0.0,0.0,0.0,0.0,0.0,0.0,0.0,0.0,0.0,0.0,0.0,0.0,0.0,0.0,0.0,0.0,0.0,0.0,0.0,0.0,0.0,0.0,0.0,0.0,0.0,0.0,0.0,0.0,0.0,0.0,0.0,0.0,0.0,0.0,0.0,0.0,0.0,0.0,0.0,0.0,0.0,0.0,0.0,0.0,0.0,0.0,0.0,0.0,0.0,0.0,0.0,0.0,0.0,0.0,0.0,0.0,0.0,0.0,0.0,0.0,0.0,0.0,0.0,0.0,0.0,0.0,0.0,0.0,0.0,0.0,0.0,0.0,0.0,0.0,0.0,0.0,0.0,0.0,0.0,0.0,0.0,0.0,0.0,0.0,0.0,0.0,0.0,0.0,0.0,0.0,0.0,0.0,0.0,0.0,0.0,0.0,0.0,0.0,0.0,0.0,0.0,0.0,0.0,0.0,0.0,0.0,0.0,0.0,0.0,0.0,0.0,0.0,0.0,0.0,0.0,0.0,0.0,0.0,0.0,0.0,0.0,0.0,0.0,0.0,0.0,0.0,0.0,0.0,0.0,0.0,0.0,0.0,0.0,0.0,0.0,0.0,0.0,0.0,0.0,0.0,0.0,0.0,0.0,0.0,0.0,0.0,0.0,0.0,0.0,0.0,0.0,0.0,0.0,0.0,0.0,0.0,0.0,0.0,0.0,0.0,0.0,0.0,0.0,0.0,0.0,0.0,0.0,0.0,0.0,0.0,0.0,0.0,0.0,0.0,0.0,0.0,0.0,0.0,0.0,0.0,0.0,0.0,0.0,0.0,0.0,0.0,0.0,0.0,0.0,0.0,0.0,0.0,0.0,0.0,0.0,0.0,0.0,0.0,0.0,0.0,0.0,0.0,0.0,0.0,0.0,0.0,0.0,0.0,0.0,0.0,0.0,0.0,0.0,0.0,0.0,0.0,0.0,0.0,0.0,0.0,0.0,0.0,0.0,0.0,0.0,0.0,0.0,0.0,0.0,0.0,0.0,0.0,0.0,0.0,0.0,0.0,0.0,0.0,0.0,0.0,0.0,0.0,0.0,0.0,0.0,0.0,0.0,0.0,0.0,0.0,0.0,0.0,0.0,0.0,0.0,0.0,0.0,0.0,0.0,0.0,0.0,0.0,0.0,0.0,0.0,0.0,0.0,0.0,0.0,0.0,0.0,0.0,0.0,0.0,0.0,0.0,0.0,0.0,0.0,0.0,0.0,0.0,0.0,0.0,0.0,0.0,0.0,0.0,0.0,0.0,0.0,0.0,0.0,0.0,0.0,0.0,0.0,0.0,0.0,0.0,0.0,0.0,0.0,0.0,0.0,0.0,0.0,0.0,0.0,0.0,0.0,0.0,0.0,0.0,0.0,0.0,0.0,0.0,0.0,0.0,0.0,0.0,0.0,0.0,0.0,0.0,0.0,0.0,0.0,0.0,0.0,0.0,0.0,0.0,0.0,0.0,0.0,0.0,0.0,0.0,0.0,0.0,0.0,0.0,0.0,0.0,0.0,0.0,0.0,0.0,0.0,0.0,0.0,0.0,0.0,0.0,0.0,0.0,0.0,0.0,0.0,0.0,0.0,0.0,0.0,0.0,0.0,0.0,0.0,0.0,0.0,0.0,0.0,0.0,0.0,0.0,0.0,0.0,0.0,0.0,0.0,0.0,0.0,0.0,0.0,0.0,0.0,0.0,0.0,0.0,0.0,0.0,0.0,0.0,0.0,0.0,0.0,0.0,0.0,0.0,0.0,0.0,0.0,0.0,0.0,0.0,0.0,0.0,0.0,0.0,0.0,0.0,0.0,0.0,0.0,0.0,0.0,0.0,0.0,0.0,0.0,0.0,0.0,0.0,0.0,0.0,0.0,0.0,0.0,0.0,0.0,0.0,0.0,0.0,0.0,0.0,0.0,0.0,0.0,0.0,0.0,0.0,0.0,0.0,0.0,0.0,0.0,0.0,0.0,0.0,0.0,0.0,0.0,0.0,0.0,0.0,0.0,0.0,0.0,0.0,0.0,0.0,0.0,0.0,0.0,0.0,0.0,0.0,0.0,0.0,0.0,0.0,0.0,0.0,0.0,0.0,0.0,0.0,0.0,0.0,0.0,0.0,0.0,0.0,0.0,0.0,0.0,0.0,0.0,0.0,0.0,0.0,0.0,0.0,0.0,0.0,0.0,0.0,0.0,0.0,0.0,0.0,0.0,0.0,0.0,0.0,0.0,0.0,0.0,0.0,0.0,0.0,0.0,0.0,0.0,0.0,0.0,0.0,0.0,0.0,0.0,0.0,0.0,0.0,0.0,0.0,0.0,0.0,0.0,0.0,0.0,0.0,0.0,0.0,0.0,0.0,0.0,0.0,0.0,0.0,0.0,0.0,0.0,0.0,0.0,0.0,0.0,0.0,0.0,0.0,0.0,0.0,0.0,0.0,0.0,0.0,0.0,0.0,0.0,0.0,0.0,0.0,0.0,0.0,0.0,0.0,0.0,0.0,0.0,0.0,0.0,0.0,0.0,0.0,0.0,0.0,0.0,0.0,0.0,0.0,0.0,0.0,0.0,0.0,0.0,0.0,0.0,0.0,0.0,0.0,0.0,0.0,0.0,0.0,0.0,0.0,0.0,0.0,0.0,0.0,0.0,0.0,0.0,0.0,0.0,0.0,0.0,0.0,0.0,0.0,0.0,0.0,0.0,0.0,0.0,0.0,0.0,0.0,0.0,0.0,0.0,0.0,0.0,0.0,0.0,0.0,0.0,0.0,0.0,0.0,0.0,0.0,0.0,0.0,0.0,0.0,0.0,0.0,0.0,0.0,0.0,0.0,0.0,0.0,0.0,0.0,0.0,0.0,0.0,0.0,0.0,0.0,0.0,0.0,0.0,0.0,0.0,0.0,0.0,0.0,0.0,0.0,0.0,0.0,0.0,0.0,0.0,0.0,0.0,0.0,0.0,0.0,0.0,0.0,0.0,0.0,0.0,0.0,0.0,0.0,0.0,0.0,0.0,0.0,0.0,0.0,0.0,0.0,0.0,0.0,0.0,0.0,0.0,0.0,0.0,0.0,0.0,0.0,0.0,0.0,0.0,0.0,0.0,0.0,0.0,0.0,0.0,0.0,0.0,0.0,0.0,0.0,0.0,0.0,0.0,0.0,0.0,0.0,0.0,0.0,0.0,0.0,0.0,0.0,0.0,0.0,0.0,0.0,0.0,0.0,0.0,0.0,0.0,0.0,0.0,0.0,0.0,0.0,0.0,0.0,0.0,0.0,0.0,0.0,0.0,-2.3224,0.0,0.0,0.0,0.0,0.0,0.0,0.0,0.0,0.0,0.0,0.0,0.0,0.0,0.0,0.0,0.0,0.0,0.0,0.0,0.0,0.0,0.0,0.0,0.0,0.0,0.0,0.0,0.0,0.0,0.0,0.0,0.0,0.0,0.0,0.0,0.0,0.0,0.0,0.0,0.0,0.0,0.0,0.0,0.0,0.0,0.0,0.0,0.0,0.0,0.0,0.0,0.0,0.0,0.0,0.0,0.0,0.0,0.0,0.0,0.0,0.0,0.0,0.0,0.0,0.0,0.0,0.0,0.0,0.0,0.0,0.0,0.0,0.0,0.0,0.0,0.0,0.0,0.0,0.0,0.0,0.0,0.0,0.0,0.0,0.0,0.0,0.0,0.0,0.0,0.0,0.0,0.0,0.0,0.0,0.0,0.0,0.0,0.0,0.0,0.0,0.0,0.0,0.0,0.0,0.0,0.0,0.0,0.0,0.0,0.0,-2.3927,-2.3597,-2.3727,-2.3644,-2.3326,0.0,0.0,0.0,0.0,0.0,0.0,0.0,0.0,0.0,0.0,0.0,0.0,0.0,0.0,0.0,0.0,0.0,0.0,0.0,0.0,0.0,0.0,0.0,0.0,0.0,0.0,0.0,0.0,0.0,0.0,0.0,0.0,0.0,0.0,0.0,0.0,0.0,0.0,0.0,0.0,0.0,0.0,0.0,0.0,0.0,0.0,0.0,0.0,0.0,0.0,0.0,0.0,0.0,0.0,0.0,0.0,0.0,0.0,0.0,0.0,0.0,0.0,0.0,0.0,0.0,0.0,0.0,0.0,0.0,0.0,0.0,0.0,0.0,0.0,0.0,0.0,0.0,0.0,0.0,0.0,0.0,0.0,0.0,0.0,0.0,0.0,0.0,0.0,0.0,0.0,0.0,0.0,0.0,0.0,0.0,0.0,0.0,0.0,0.0,0.0,0.0,0.0,0.0,0.0,0.0,0.0,0.0,0.0,0.0,0.0,0.0,0.0,-2.3598,-2.3486,-2.3185,0.0,0.0,0.0,0.0,0.0,0.0,0.0,0.0,0.0,0.0,0.0,0.0,0.0,0.0,0.0,0.0,0.0,0.0,0.0,0.0,0.0,0.0,0.0,0.0,0.0,0.0,0.0,0.0,0.0,0.0,0.0,0.0,0.0,0.0,0.0,0.0,0.0,0.0,0.0,0.0,0.0,0.0,0.0,0.0,0.0,0.0,0.0,0.0,0.0,0.0,0.0,0.0,0.0,0.0,0.0,0.0,0.0,0.0,0.0,0.0,0.0,0.0,0.0,0.0,0.0,0.0,0.0,0.0,0.0,0.0,0.0,0.0,0.0,0.0,0.0,0.0,0.0,0.0,0.0,0.0,0.0,0.0,0.0,0.0,0.0,0.0,0.0,0.0,0.0,0.0,0.0,0.0,0.0,0.0,0.0,0.0,0.0,0.0,0.0,0.0,0.0,0.0,0.0,0.0,0.0,0.0,0.0,0.0,0.0,0.0,-2.382,-2.2491,-2.371,0.0,-2.255,0.0,0.0,0.0,0.0,0.0,0.0,0.0,0.0,0.0,0.0,0.0,0.0,0.0,0.0,0.0,0.0,0.0,0.0,0.0,0.0,0.0,0.0,0.0,0.0,0.0,0.0,0.0,0.0,0.0,0.0,0.0,0.0,0.0,0.0,0.0,0.0,0.0,0.0,0.0,0.0,0.0,0.0,0.0,0.0,0.0,0.0,0.0,0.0,0.0,0.0,0.0,0.0,0.0,0.0,0.0,0.0,0.0,0.0,0.0,0.0,0.0,0.0,0.0,0.0,0.0,0.0,0.0,0.0,0.0,0.0,0.0,0.0,0.0,0.0,0.0,0.0,0.0,0.0,0.0,0.0,0.0,0.0,0.0,0.0,0.0,0.0,0.0,0.0,0.0,0.0,0.0,0.0,0.0,0.0,0.0,0.0,0.0,0.0,0.0,0.0,0.0,0.0,0.0,0.0,0.0,0.0,0.0,0.0,0.0,0.0,0.0,-2.2186,-2.2996,-2.2962,0.0,0.0,0.0,0.0,0.0,0.0,0.0,0.0,0.0,0.0,0.0,0.0,0.0,0.0,0.0,0.0,0.0,0.0,0.0,0.0,0.0,0.0,0.0,0.0,0.0,0.0,0.0,0.0,0.0,0.0,0.0,0.0,0.0,0.0,0.0,0.0,0.0,0.0,0.0,0.0,0.0,0.0,0.0,0.0,0.0,0.0,0.0,0.0,0.0,0.0,0.0,0.0,0.0,0.0,0.0,0.0,0.0,0.0,0.0,0.0,0.0,0.0,0.0,0.0,0.0,0.0,0.0,0.0,0.0,0.0,0.0,0.0,0.0,0.0,0.0,0.0,0.0,0.0,0.0,0.0,0.0,0.0,0.0,0.0,0.0,0.0,0.0,0.0,0.0,0.0,0.0,0.0,0.0,0.0,0.0,0.0,0.0,0.0,0.0,0.0,0.0,0.0,0.0,0.0,0.0,0.0,0.0,0.0,0.0,0.0,-2.2224,0.0,-2.2123,-2.2183,-2.2015,-2.1606,0.0,0.0,0.0,0.0,0.0,0.0,0.0,0.0,0.0,0.0,0.0,0.0,0.0,0.0,0.0,0.0,0.0,0.0,0.0,0.0,0.0,0.0,0.0,0.0,0.0,0.0,0.0,0.0,0.0,0.0,0.0,0.0,0.0,0.0,0.0,0.0,0.0,0.0,0.0,0.0,0.0,0.0,0.0,0.0,0.0,0.0,0.0,0.0,0.0,0.0,0.0,0.0,0.0,0.0,0.0,0.0,0.0,0.0,0.0,0.0,0.0,0.0,0.0,0.0,0.0,0.0,0.0,0.0,0.0,0.0,0.0,0.0,0.0,0.0,0.0,0.0,0.0,0.0,0.0,0.0,0.0,0.0,0.0,0.0,0.0,0.0,0.0,0.0,0.0,0.0,0.0,0.0,0.0,0.0,0.0,0.0,0.0,0.0,0.0,0.0,0.0,0.0,0.0,0.0,0.0,0.0,0.0,0.0,0.0,-2.1923,-2.2106,-2.204,-2.1415,-2.1237,0.0,0.0,0.0,0.0,0.0,0.0,0.0,0.0,0.0,0.0,0.0,0.0,0.0,0.0,0.0,0.0,0.0,0.0,0.0,0.0,0.0,0.0,0.0,0.0,0.0,0.0,0.0,0.0,0.0,0.0,0.0,0.0,0.0,0.0,0.0,0.0,0.0,0.0,0.0,0.0,0.0,0.0,0.0,0.0,0.0,0.0,0.0,0.0,0.0,0.0,0.0,0.0,0.0,0.0,0.0,0.0,0.0,0.0,0.0,0.0,0.0,0.0,0.0,0.0,0.0,0.0,0.0,0.0,0.0,0.0,0.0,0.0,0.0,0.0,0.0,0.0,0.0,0.0,0.0,0.0,0.0,0.0,0.0,0.0,0.0,0.0,0.0,0.0,0.0,0.0,0.0,0.0,0.0,0.0,0.0,0.0,0.0,0.0,0.0,0.0,0.0,0.0,0.0,0.0,0.0,0.0,0.0,0.0,0.0,-2.0781,-2.0632,-2.0566,-2.0562,-2.054,-2.0748,0.0,0.0,0.0,0.0,0.0,0.0,0.0,0.0,0.0,0.0,0.0,0.0,0.0,0.0,0.0,0.0,0.0,0.0,0.0,0.0,0.0,0.0,0.0,0.0,0.0,0.0,0.0,0.0,0.0,0.0,0.0,0.0,0.0,0.0,0.0,0.0,0.0,0.0,0.0,0.0,0.0,0.0,0.0,0.0,0.0,0.0,0.0,0.0,0.0,0.0,0.0,0.0,0.0,0.0,0.0,0.0,0.0,0.0,0.0,0.0,0.0,0.0,0.0,0.0,0.0,0.0,0.0,0.0,0.0,0.0,0.0,0.0,0.0,0.0,0.0,0.0,0.0,0.0,0.0,0.0,0.0,0.0,0.0,0.0,0.0,0.0,0.0,0.0,0.0,0.0,0.0,0.0,0.0,0.0,0.0,0.0,0.0,0.0,0.0,0.0,0.0,0.0,0.0,0.0,0.0,0.0,0.0,0.0,0.0,-1.9851,0.0,-1.9442,0.0,-1.9702,-2.012,0.0,0.0,0.0,0.0,0.0,0.0,0.0,0.0,0.0,0.0,0.0,0.0,0.0,0.0,0.0,0.0,0.0,0.0,0.0,0.0,0.0,0.0,0.0,0.0,0.0,0.0,0.0,0.0,0.0,0.0,0.0,0.0,0.0,0.0,0.0,0.0,0.0,0.0,0.0,0.0,0.0,0.0,0.0,0.0,0.0,0.0,0.0,0.0,0.0,0.0,0.0,0.0,0.0,0.0,0.0,0.0,0.0,0.0,0.0,0.0,0.0,0.0,0.0,0.0,0.0,0.0,0.0,0.0,0.0,0.0,0.0,0.0,0.0,0.0,0.0,0.0,0.0,0.0,0.0,0.0,0.0,0.0,0.0,0.0,0.0,0.0,0.0,0.0,0.0,0.0,0.0,0.0,0.0,0.0,0.0,0.0,0.0,0.0,0.0,0.0,0.0,0.0,0.0,0.0,0.0,0.0,0.0,0.0,-1.9831,-1.8939,-1.8898,-1.8885,-1.89,-1.893,-1.9346,0.0,0.0,0.0,0.0,0.0,0.0,0.0,0.0,0.0,0.0,0.0,0.0,0.0,0.0,0.0,0.0,0.0,0.0,0.0,0.0,0.0,0.0,0.0,0.0,0.0,0.0,0.0,0.0,0.0,0.0,0.0,0.0,0.0,0.0,0.0,0.0,0.0,0.0,0.0,0.0,0.0,0.0,0.0,0.0,0.0,0.0,0.0,0.0,0.0,0.0,0.0,0.0,0.0,0.0,0.0,0.0,0.0,0.0,0.0,0.0,0.0,0.0,0.0,0.0,0.0,0.0,0.0,0.0,0.0,0.0,0.0,0.0,0.0,0.0,0.0,0.0,0.0,0.0,0.0,0.0,0.0,0.0,0.0,0.0,0.0,0.0,0.0,0.0,0.0,0.0,0.0,0.0,0.0,0.0,0.0,0.0,0.0,0.0,0.0,0.0,0.0,0.0,0.0,0.0,0.0,0.0,0.0,0.0,0.0,-1.8369,-1.8324,-1.8334,-1.8334,-1.8727,-1.9177,0.0,0.0,0.0,0.0,0.0,0.0,0.0,0.0,0.0,0.0,0.0,0.0,0.0,0.0,0.0,0.0,0.0,0.0,0.0,0.0,0.0,0.0,0.0,0.0,0.0,0.0,0.0,0.0,0.0,0.0,0.0,0.0,0.0,0.0,0.0,0.0,0.0,0.0,0.0,0.0,0.0,0.0,0.0,0.0,0.0,0.0,0.0,0.0,0.0,0.0,0.0,0.0,0.0,0.0,0.0,0.0,0.0,0.0,0.0,0.0,0.0,0.0,0.0,0.0,0.0,0.0,0.0,0.0,0.0,0.0,0.0,0.0,0.0,0.0,0.0,0.0,0.0,0.0,0.0,0.0,0.0,0.0,0.0,0.0,0.0,0.0,0.0,0.0,0.0,0.0,0.0,0.0,0.0,0.0,0.0,0.0,0.0,0.0,0.0,0.0,0.0,0.0,0.0,0.0,0.0,0.0,0.0,0.0,0.0,-1.7208,-1.7572,-1.7787,-1.778,-1.8334,-1.8826,-1.9332,0.0,0.0,0.0,0.0,0.0,0.0,0.0,0.0,0.0,0.0,0.0,0.0,0.0,0.0,0.0,0.0,0.0,0.0,0.0,0.0,0.0,0.0,0.0,0.0,0.0,0.0,0.0,0.0,0.0,0.0,0.0,0.0,0.0,0.0,0.0,0.0,0.0,0.0,0.0,0.0,0.0,0.0,0.0,0.0,0.0,0.0,0.0,0.0,0.0,0.0,0.0,0.0,0.0,0.0,0.0,0.0,0.0,0.0,0.0,0.0,0.0,0.0,0.0,0.0,0.0,0.0,0.0,0.0,0.0,0.0,0.0,0.0,0.0,0.0,0.0,0.0,0.0,0.0,0.0,0.0,0.0,0.0,0.0,0.0,0.0,0.0,0.0,0.0,0.0,0.0,0.0,0.0,0.0,0.0,0.0,0.0,0.0,0.0,0.0,0.0,0.0,0.0,0.0,0.0,0.0,0.0,0.0,0.0,-1.5604,-1.6601,-1.714,-1.7229,-1.778,-1.8334,0.0,0.0,0.0,0.0,0.0,0.0,0.0,0.0,0.0,0.0,0.0,0.0,0.0,0.0,0.0,0.0,0.0,0.0,0.0,0.0,0.0,0.0,0.0,0.0,0.0,0.0,0.0,0.0,0.0,0.0,0.0,0.0,0.0,0.0,0.0,0.0,0.0,0.0,0.0,0.0,0.0,0.0,0.0,0.0,0.0,0.0,0.0,0.0,0.0,0.0,0.0,0.0,0.0,0.0,0.0,0.0,0.0,0.0,0.0,0.0,0.0,0.0,0.0,0.0,0.0,0.0,0.0,0.0,0.0,0.0,0.0,0.0,0.0,0.0,0.0,0.0,0.0,0.0,0.0,0.0,0.0,0.0,0.0,0.0,0.0,0.0,0.0,0.0,0.0,0.0,0.0,0.0,0.0,0.0,0.0,0.0,0.0,0.0,0.0,0.0,0.0,0.0,0.0,0.0,0.0,0.0,0.0,0.0,0.0,-1.5385,-1.5384,-1.557,-1.6058,-1.7395,-1.8178,0.0,0.0,0.0,0.0,0.0,0.0,0.0,0.0,0.0,0.0,0.0,0.0,0.0,0.0,0.0,0.0,0.0,0.0,0.0,0.0,0.0,0.0,0.0,0.0,0.0,0.0,0.0,0.0,0.0,0.0,0.0,0.0,0.0,0.0,0.0,0.0,0.0,0.0,0.0,0.0,0.0,0.0,0.0,0.0,0.0,0.0,0.0,0.0,0.0,0.0,0.0,0.0,0.0,0.0,0.0,0.0,0.0,0.0,0.0,0.0,0.0,0.0,0.0,0.0,0.0,0.0,0.0,0.0,0.0,0.0,0.0,0.0,0.0,0.0,0.0,0.0,0.0,0.0,0.0,0.0,0.0,0.0,0.0,0.0,0.0,0.0,0.0,0.0,0.0,0.0,0.0,0.0,0.0,0.0,0.0,0.0,0.0,0.0,0.0,0.0,0.0,0.0,0.0,0.0,0.0,0.0,0.0,0.0,-1.4801,-1.4698,-1.4453,-1.4601,-1.5225,-1.6627,-1.7592,0.0,0.0,0.0,0.0,0.0,0.0,0.0,0.0,0.0,0.0,0.0,0.0,0.0,0.0,0.0,0.0,0.0,0.0,0.0,0.0,0.0,0.0,0.0,0.0,0.0,0.0,0.0,0.0,0.0,0.0,0.0,0.0,0.0,0.0,0.0,0.0,0.0,0.0,0.0,0.0,0.0,0.0,0.0,0.0,0.0,0.0,0.0,0.0,0.0,0.0,0.0,0.0,0.0,0.0,0.0,0.0,0.0,0.0,0.0,0.0,0.0,0.0,0.0,0.0,0.0,0.0,0.0,0.0,0.0,0.0,0.0,0.0,0.0,0.0,0.0,0.0,0.0,0.0,0.0,0.0,0.0,0.0,0.0,0.0,0.0,0.0,0.0,0.0,0.0,0.0,0.0,0.0,0.0,0.0,0.0,0.0,0.0,0.0,0.0,0.0,0.0,0.0,0.0,0.0,0.0,0.0,0.0,0.0,-1.38,-1.3762,-1.371,-1.4009,-1.4698,-1.5772,-1.6928,0.0,0.0,0.0,0.0,0.0,0.0,0.0,0.0,0.0,0.0,0.0,0.0,0.0,0.0,0.0,0.0,0.0,0.0,0.0,0.0,0.0,0.0,0.0,0.0,0.0,0.0,0.0,0.0,0.0,0.0,0.0,0.0,0.0,0.0,0.0,0.0,0.0,0.0,0.0,0.0,0.0,0.0,0.0,0.0,0.0,0.0,0.0,0.0,0.0,0.0,0.0,0.0,0.0,0.0,0.0,0.0,0.0,0.0,0.0,0.0,0.0,0.0,0.0,0.0,0.0,0.0,0.0,0.0,0.0,0.0,0.0,0.0,0.0,0.0,0.0,0.0,0.0,0.0,0.0,0.0,0.0,0.0,0.0,0.0,0.0,0.0,0.0,0.0,0.0,0.0,0.0,0.0,0.0,0.0,0.0,0.0,0.0,0.0,0.0,0.0,0.0,0.0,0.0,0.0,0.0,0.0,0.0,0.0,-1.3723,-1.3546,-1.3283,-1.361,-1.4658,-1.5828,-1.6928,0.0,0.0,0.0,0.0,0.0,0.0,0.0,0.0,0.0,0.0,0.0,0.0,0.0,0.0,0.0,0.0,0.0,0.0,0.0,0.0,0.0,0.0,0.0,0.0,0.0,0.0,0.0,0.0,0.0,0.0,0.0,0.0,0.0,0.0,0.0,0.0,0.0,0.0,0.0,0.0,0.0,0.0,0.0,0.0,0.0,0.0,0.0,0.0,-2.0217,0.0,0.0,0.0,0.0,0.0,0.0,0.0,0.0,0.0,0.0,0.0,0.0,0.0,0.0,0.0,0.0,0.0,0.0,0.0,0.0,0.0,0.0,0.0,0.0,0.0,0.0,0.0,0.0,0.0,0.0,0.0,0.0,0.0,0.0,0.0,0.0,0.0,0.0,0.0,0.0,0.0,0.0,0.0,0.0,0.0,0.0,0.0,0.0,0.0,0.0,0.0,0.0,0.0,0.0,0.0,0.0,0.0,0.0,0.0,-1.2983,-1.3198,-1.2664,-1.3102,-1.4652,-1.5309,-1.6372,0.0,0.0,0.0,0.0,0.0,0.0,0.0,0.0,0.0,0.0,0.0,0.0,0.0,0.0,0.0,0.0,0.0,0.0,0.0,0.0,0.0,0.0,0.0,0.0,0.0,0.0,0.0,0.0,0.0,0.0,0.0,0.0,0.0,0.0,0.0,0.0,0.0,0.0,0.0,0.0,0.0,0.0,0.0,0.0,0.0,0.0,0.0,0.0,0.0,0.0,0.0,0.0,0.0,0.0,0.0,0.0,0.0,0.0,0.0,0.0,0.0,0.0,0.0,0.0,0.0,0.0,0.0,0.0,0.0,0.0,0.0,0.0,0.0,0.0,0.0,0.0,0.0,0.0,0.0,0.0,0.0,0.0,0.0,0.0,0.0,0.0,0.0,0.0,0.0,0.0,0.0,0.0,0.0,0.0,0.0,0.0,0.0,0.0,0.0,0.0,0.0,0.0,0.0,0.0,0.0,0.0,0.0,-1.2138,-1.2084,-1.2662,-1.2133,-1.2759,-1.4717,-1.4737,-1.5808,-1.8117,0.0,0.0,0.0,0.0,0.0,0.0,0.0,0.0,0.0,0.0,0.0,0.0,0.0,0.0,0.0,0.0,0.0,0.0,0.0,0.0,0.0,0.0,0.0,0.0,0.0,0.0,0.0,0.0,0.0,0.0,0.0,0.0,0.0,0.0,0.0,0.0,0.0,0.0,-1.8663,-1.9,0.0,0.0,0.0,0.0,0.0,0.0,0.0,0.0,-1.7352,0.0,0.0,0.0,0.0,0.0,0.0,0.0,0.0,0.0,0.0,0.0,0.0,0.0,0.0,0.0,0.0,0.0,0.0,0.0,0.0,0.0,0.0,0.0,0.0,0.0,0.0,0.0,0.0,0.0,0.0,0.0,0.0,0.0,0.0,0.0,0.0,0.0,0.0,0.0,0.0,0.0,0.0,0.0,0.0,0.0,0.0,0.0,0.0,0.0,0.0,0.0,0.0,0.0,0.0,0.0,0.0,-1.1967,-1.1864,-1.1868,-1.1972,-1.1868,-1.2939,-1.5233,-1.4922,-1.5977,-1.8562,0.0,0.0,0.0,0.0,0.0,0.0,0.0,0.0,0.0,0.0,0.0,0.0,0.0,0.0,0.0,0.0,0.0,0.0,0.0,0.0,0.0,0.0,0.0,0.0,0.0,0.0,0.0,0.0,0.0,0.0,0.0,0.0,0.0,0.0,0.0,0.0,0.0,0.0,0.0,-1.7275,-1.7393,0.0,0.0,0.0,0.0,0.0,0.0,0.0,0.0,-1.7695,0.0,0.0,0.0,0.0,0.0,0.0,0.0,0.0,0.0,0.0,0.0,0.0,0.0,0.0,0.0,0.0,0.0,0.0,0.0,0.0,0.0,0.0,0.0,0.0,0.0,0.0,0.0,0.0,0.0,0.0,0.0,0.0,0.0,0.0,0.0,0.0,0.0,0.0,0.0,0.0,0.0,0.0,0.0,0.0,0.0,0.0,0.0,0.0,0.0,0.0,0.0,0.0,0.0,0.0,0.0,-1.181,-1.1462,-1.1462,-1.1774,-1.2031,-1.3223,-1.5415,-1.5202,-1.6251,0.0,0.0,0.0,0.0,0.0,0.0,0.0,0.0,0.0,0.0,0.0,0.0,0.0,0.0,0.0,0.0,0.0,0.0,0.0,0.0,0.0,0.0,0.0,0.0,0.0,0.0,0.0,0.0,0.0,0.0,0.0,0.0,0.0,0.0,0.0,0.0,0.0,0.0,0.0,0.0,-1.6379,-1.6578,-1.6502,0.0,0.0,0.0,0.0,0.0,0.0,-1.5984,-1.6367,0.0,0.0,0.0,0.0,0.0,0.0,0.0,0.0,0.0,0.0,0.0,0.0,0.0,0.0,0.0,0.0,0.0,0.0,0.0,0.0,0.0,0.0,0.0,0.0,0.0,0.0,0.0,0.0,0.0,0.0,0.0,0.0,0.0,0.0,0.0,0.0,0.0,0.0,0.0,0.0,0.0,0.0,0.0,0.0,0.0,0.0,0.0,0.0,0.0,0.0,0.0,0.0,0.0,0.0,0.0,-1.1611,-1.1212,-1.1216,-1.1579,-1.2101,-1.3364,-1.5378,-1.5277,-1.6344,0.0,0.0,0.0,0.0,0.0,0.0,0.0,0.0,0.0,0.0,0.0,0.0,0.0,0.0,0.0,0.0,0.0,0.0,0.0,0.0,0.0,0.0,0.0,0.0,0.0,0.0,0.0,0.0,0.0,0.0,0.0,0.0,0.0,0.0,0.0,0.0,0.0,0.0,0.0,0.0,0.0,-1.5871,-1.5163,-1.4587,0.0,0.0,0.0,0.0,-1.4449,-1.4591,0.0,0.0,0.0,0.0,0.0,0.0,0.0,0.0,0.0,0.0,0.0,0.0,0.0,0.0,0.0,0.0,0.0,0.0,0.0,0.0,0.0,0.0,0.0,0.0,0.0,0.0,0.0,0.0,0.0,0.0,0.0,0.0,0.0,0.0,0.0,0.0,0.0,0.0,0.0,0.0,0.0,0.0,0.0,0.0,0.0,0.0,0.0,0.0,0.0,0.0,0.0,0.0,0.0,0.0,0.0,0.0,-1.1015,-1.1408,-1.1412,-1.0969,-1.1536,-1.3007,-1.5404,-1.5017,-1.608,0.0,0.0,0.0,0.0,0.0,0.0,0.0,0.0,0.0,0.0,0.0,0.0,0.0,0.0,0.0,0.0,0.0,0.0,0.0,0.0,0.0,0.0,0.0,0.0,0.0,0.0,0.0,0.0,0.0,0.0,0.0,0.0,0.0,0.0,0.0,0.0,0.0,0.0,0.0,0.0,0.0,-1.4767,-1.3961,-1.2902,-1.2459,0.0,0.0,-1.2459,-1.3089,-1.3772,0.0,0.0,0.0,0.0,0.0,0.0,0.0,0.0,0.0,0.0,0.0,0.0,0.0,0.0,0.0,0.0,0.0,0.0,0.0,0.0,0.0,0.0,0.0,0.0,0.0,0.0,0.0,0.0,0.0,0.0,0.0,0.0,0.0,0.0,0.0,0.0,0.0,0.0,0.0,0.0,0.0,0.0,0.0,0.0,0.0,0.0,0.0,0.0,0.0,0.0,0.0,0.0,0.0,0.0,0.0,-1.1384,-1.0813,-1.1116,-1.1116,-1.0872,-1.2117,-1.3626,-1.5432,-1.5177,-1.6105,0.0,0.0,0.0,0.0,0.0,0.0,0.0,0.0,0.0,0.0,0.0,0.0,0.0,0.0,0.0,0.0,0.0,0.0,0.0,0.0,0.0,0.0,0.0,0.0,0.0,0.0,0.0,0.0,0.0,0.0,0.0,0.0,0.0,0.0,0.0,0.0,0.0,0.0,0.0,0.0,0.0,0.0,-1.328,-1.2848,0.0,0.0,0.0,-1.2648,-1.2973,0.0,0.0,0.0,0.0,0.0,0.0,0.0,0.0,0.0,0.0,0.0,0.0,0.0,0.0,0.0,0.0,0.0,0.0,0.0,0.0,0.0,0.0,0.0,0.0,0.0,0.0,0.0,0.0,0.0,0.0,0.0,0.0,0.0,0.0,0.0,0.0,0.0,0.0,0.0,0.0,0.0,0.0,0.0,0.0,0.0,0.0,0.0,0.0,0.0,0.0,0.0,0.0,0.0,0.0,0.0,0.0,0.0,-1.1061,-1.122,-1.122,-1.1124,-1.2549,-1.3969,-1.5247,-1.5076,0.0,0.0,0.0,0.0,0.0,0.0,0.0,0.0,0.0,0.0,0.0,0.0,0.0,0.0,0.0,0.0,0.0,0.0,0.0,0.0,0.0,0.0,0.0,0.0,0.0,0.0,0.0,-1.8392,0.0,0.0,0.0,0.0,0.0,0.0,0.0,0.0,0.0,0.0,0.0,0.0,0.0,0.0,-1.2443,-1.2441,-1.2309,-1.2273,0.0,0.0,-1.2195,-1.2243,-1.2375,-1.2622,0.0,0.0,0.0,0.0,0.0,0.0,0.0,0.0,0.0,0.0,0.0,0.0,0.0,0.0,0.0,0.0,0.0,0.0,0.0,0.0,0.0,0.0,0.0,0.0,0.0,0.0,0.0,0.0,0.0,0.0,0.0,0.0,0.0,0.0,0.0,0.0,0.0,0.0,0.0,0.0,0.0,0.0,0.0,0.0,0.0,0.0,0.0,0.0,0.0,0.0,0.0,0.0,0.0,0.0,0.0,-1.1769,-1.2403,-1.2393,-1.1814,-1.2534,-1.3513,-1.4702,-1.4261,-1.505,0.0,0.0,0.0,0.0,0.0,0.0,0.0,0.0,0.0,0.0,0.0,0.0,0.0,0.0,0.0,0.0,0.0,0.0,0.0,0.0,0.0,0.0,0.0,0.0,0.0,0.0,0.0,0.0,0.0,0.0,0.0,0.0,0.0,0.0,0.0,0.0,0.0,0.0,0.0,0.0,0.0,-1.1714,-1.0963,-1.0539,-1.0418,0.0,0.0,-1.0035,-1.0296,-1.0747,-1.1113,-1.1398,0.0,0.0,0.0,0.0,0.0,0.0,0.0,0.0,0.0,0.0,0.0,0.0,0.0,0.0,0.0,0.0,0.0,0.0,0.0,0.0,0.0,0.0,0.0,0.0,0.0,0.0,0.0,0.0,0.0,0.0,0.0,0.0,0.0,0.0,0.0,0.0,0.0,0.0,0.0,0.0,0.0,0.0,0.0,0.0,0.0,0.0,0.0,0.0,0.0,0.0,0.0,0.0,0.0,-1.2075,-1.1814,-1.1836,-1.1711,-1.1454,-1.1859,-1.2628,-1.3747,-1.3563,-1.4363,0.0,0.0,0.0,0.0,0.0,0.0,0.0,0.0,0.0,0.0,0.0,0.0,0.0,0.0,0.0,0.0,0.0,0.0,0.0,0.0,0.0,0.0,0.0,0.0,0.0,0.0,0.0,0.0,-1.5619,-1.4703,-1.4158,0.0,0.0,0.0,0.0,0.0,0.0,0.0,0.0,0.0,0.0,-1.0224,-1.0114,-0.998,0.0,0.0,-0.9977,-0.99,-0.9873,-1.0154,-1.0455,-1.0631,-1.0963,0.0,0.0,0.0,0.0,0.0,0.0,0.0,0.0,0.0,0.0,0.0,0.0,0.0,0.0,0.0,0.0,0.0,0.0,0.0,0.0,0.0,0.0,0.0,0.0,0.0,0.0,0.0,0.0,0.0,0.0,0.0,0.0,0.0,0.0,0.0,0.0,0.0,0.0,0.0,0.0,0.0,0.0,0.0,0.0,0.0,0.0,0.0,0.0,0.0,0.0,0.0,0.0,-1.2073,-1.19,-1.1619,-1.1472,-1.1302,-1.1536,-1.21,-1.3137,-1.3038,-1.3767,0.0,0.0,0.0,0.0,0.0,0.0,0.0,0.0,0.0,0.0,0.0,0.0,0.0,0.0,0.0,0.0,0.0,0.0,0.0,0.0,0.0,0.0,0.0,0.0,0.0,0.0,0.0,0.0,-1.4747,-1.3851,-1.3089,0.0,0.0,0.0,0.0,0.0,0.0,0.0,0.0,0.0,0.0,-0.9284,-0.9503,-0.9626,-0.9711,-0.9819,-0.9845,-0.9807,-0.9725,-0.9785,-0.991,-1.0101,0.0,0.0,0.0,0.0,0.0,0.0,0.0,0.0,0.0,0.0,0.0,0.0,0.0,0.0,0.0,0.0,0.0,0.0,0.0,0.0,0.0,0.0,0.0,0.0,0.0,0.0,0.0,-1.893,0.0,0.0,-1.9682,0.0,0.0,0.0,0.0,0.0,0.0,0.0,0.0,0.0,0.0,0.0,0.0,0.0,0.0,0.0,0.0,0.0,0.0,0.0,0.0,0.0,0.0,-1.2613,-1.2205,-1.2119,-1.1952,-1.1582,-1.1601,-1.208,-1.3092,-1.2669,-1.3209,-1.4864,0.0,0.0,0.0,0.0,0.0,0.0,0.0,0.0,0.0,0.0,0.0,0.0,0.0,0.0,0.0,0.0,0.0,0.0,0.0,0.0,0.0,0.0,0.0,0.0,0.0,0.0,-1.5594,-1.4122,-1.3105,0.0,0.0,0.0,0.0,0.0,0.0,0.0,0.0,0.0,0.0,-0.9029,-0.9193,-0.9222,-0.948,-0.978,-1.003,-0.9579,-0.9358,-0.9653,-0.9438,-0.9362,0.0,0.0,0.0,0.0,0.0,0.0,0.0,0.0,0.0,0.0,0.0,0.0,0.0,0.0,0.0,0.0,0.0,0.0,0.0,0.0,0.0,0.0,0.0,0.0,0.0,0.0,0.0,-1.7465,-1.7311,0.0,0.0,0.0,0.0,0.0,0.0,0.0,0.0,0.0,0.0,0.0,-1.5193,-1.5147,0.0,0.0,0.0,0.0,0.0,0.0,0.0,0.0,0.0,0.0,0.0,0.0,-1.2383,-1.2166,-1.1635,-1.1267,-1.1128,-1.0895,-1.106,-1.171,-1.1915,-1.2898,-1.4745,0.0,0.0,0.0,0.0,0.0,0.0,0.0,0.0,0.0,0.0,0.0,0.0,0.0,0.0,0.0,0.0,0.0,0.0,0.0,0.0,0.0,0.0,0.0,0.0,0.0,-1.5072,0.0,0.0,0.0,0.0,0.0,0.0,0.0,0.0,0.0,0.0,0.0,-0.8808,-0.8808,-0.8864,-0.8958,-0.8944,-0.9035,-0.9143,0.0,0.0,0.0,0.0,0.0,0.0,0.0,0.0,0.0,0.0,0.0,0.0,0.0,0.0,-1.2767,-1.2857,-1.2384,-1.1784,-1.1168,0.0,0.0,0.0,0.0,0.0,0.0,0.0,0.0,0.0,0.0,0.0,0.0,0.0,0.0,-1.6015,0.0,-1.6221,0.0,0.0,0.0,0.0,0.0,0.0,0.0,0.0,-1.5009,-1.4751,-1.4626,-1.462,-1.4863,0.0,-1.3895,-1.3071,0.0,0.0,0.0,0.0,0.0,0.0,0.0,0.0,-1.2107,-1.1982,-1.1267,-1.0833,-1.0693,-1.042,-1.0544,-1.0981,-1.1689,-1.2681,-1.3957,-1.4502,-1.5392,0.0,0.0,0.0,0.0,0.0,0.0,0.0,0.0,0.0,0.0,0.0,0.0,0.0,0.0,0.0,0.0,0.0,0.0,0.0,0.0,0.0,0.0,0.0,-1.3922,0.0,0.0,0.0,0.0,0.0,0.0,0.0,0.0,0.0,-0.945,-0.9106,-0.8808,-0.8808,-0.8808,-0.8808,-0.8808,0.0,0.0,0.0,0.0,0.0,0.0,0.0,-0.9121,-0.8867,-0.8872,-0.9049,-0.9408,-1.0461,-1.1259,-1.1149,0.0,0.0,-1.2111,-1.1702,-1.11,-1.0609,-1.0576,-1.0478,-0.9914,-0.9983,-1.005,0.0,0.0,0.0,0.0,0.0,0.0,0.0,0.0,-1.4478,-1.5095,0.0,-1.5632,0.0,0.0,0.0,0.0,0.0,-1.5395,0.0,0.0,-1.3791,-1.3527,-1.4009,-1.4035,-1.3748,-1.313,-1.3077,-1.2351,-1.1094,-1.1387,0.0,0.0,0.0,0.0,0.0,0.0,-1.1987,-1.1587,-1.1126,-1.0683,-1.0312,-1.0322,-1.0544,-1.1051,-1.1951,-1.2508,-1.2597,-1.3887,-1.4464,-1.4099,-1.6032,0.0,0.0,0.0,0.0,0.0,0.0,0.0,0.0,0.0,0.0,0.0,0.0,0.0,0.0,0.0,0.0,0.0,0.0,0.0,0.0,-1.38,0.0,0.0,0.0,0.0,0.0,0.0,0.0,0.0,0.0,0.0,-0.8811,-0.8808,-0.8808,-0.8808,0.0,0.0,0.0,0.0,-0.8871,-0.9165,-0.8986,-0.8887,-0.916,-0.9178,-0.9116,-0.8821,0.0,0.0,-0.8867,-0.9903,-1.0719,-1.0473,-1.0614,-1.0821,-1.0811,-1.0649,-1.037,-1.0141,-0.9891,-0.9838,-1.0046,-1.0036,-0.9987,-1.4223,0.0,0.0,0.0,0.0,-1.5109,-1.4834,-1.4324,-1.4206,-1.4178,-1.4145,-1.4405,0.0,0.0,0.0,0.0,0.0,0.0,-1.4702,-1.4311,-1.399,-1.349,-1.2893,-1.3281,-1.335,-1.3119,-1.1838,-1.0664,-0.9634,-0.969,-1.0576,-1.2171,0.0,0.0,0.0,0.0,-1.1538,-1.1099,-1.0672,-1.0395,-1.0322,-1.0322,-1.0736,-1.1547,-1.1847,-1.2318,-1.2984,-1.2683,-1.2987,-1.3966,-1.4237,0.0,0.0,0.0,0.0,0.0,0.0,0.0,0.0,0.0,0.0,0.0,0.0,0.0,0.0,0.0,0.0,0.0,0.0,0.0,-1.3047,-1.2406,-1.2004,0.0,0.0,0.0,0.0,0.0,0.0,0.0,0.0,0.0,-0.8752,-0.8808,-0.8808,0.0,0.0,-0.8808,-0.8808,-0.8808,-0.8811,-0.8927,-0.8867,0.0,-0.891,-0.8918,-0.8871,-0.8808,-0.8867,-0.8871,-0.8808,-0.9112,-0.9351,-0.9292,-0.9351,-0.9418,-0.9415,-0.9728,-0.988,-0.9843,-0.9758,-0.9743,-0.981,-0.9791,-0.9764,-1.315,-1.3536,-1.4517,-1.479,-1.4588,-1.4582,-1.4267,-1.3728,-1.3764,-1.3653,-1.3552,-1.3672,-1.4135,-1.4848,-1.4873,0.0,0.0,0.0,-1.3804,-1.3103,-1.3103,-1.2718,-1.2128,-1.2551,-1.2404,-1.1747,-1.0634,-0.9635,-0.8863,-0.9091,-0.9865,-1.1125,0.0,0.0,-1.1948,-1.1523,-1.1172,-1.0908,-1.0503,-1.0322,-1.0322,-1.0322,-1.0582,-1.118,-1.1584,-1.2071,-1.2603,-1.2395,-1.2501,-1.3031,-1.3142,-1.3616,0.0,0.0,0.0,0.0,0.0,0.0,0.0,0.0,0.0,0.0,0.0,-1.6759,0.0,0.0,0.0,0.0,-1.3345,-1.251,-1.1636,-1.15,0.0,0.0,0.0,0.0,0.0,0.0,0.0,-0.8681,-0.84,-0.8271,-0.8389,-0.8433,-0.8544,-0.8778,-0.8808,-0.8808,-0.8808,0.0,-0.8808,-0.8808,-0.8736,-0.8631,-0.8666,-0.8514,-0.8443,-0.8436,-0.843,-0.8445,-0.8452,-0.8452,-0.8508,-0.8626,-0.8629,-0.8689,-0.8804,-0.9108,-0.9376,-0.945,-0.9491,-0.9502,-0.9531,-0.9486,-0.9475,-1.2508,-1.2698,-1.4163,-1.4475,-1.4028,-1.4028,-1.3703,-1.3198,-1.3154,-1.3446,-1.3902,-1.3345,-1.3665,-1.4632,-1.4651,0.0,-1.3073,-1.3073,-1.2534,-1.1558,-1.1551,-1.1496,-1.1477,-1.1851,-1.1183,-0.951,-0.9488,-0.9132,-0.8589,-0.9148,-0.9476,-0.9554,-0.998,-1.0645,-1.143,-1.106,-1.0864,-1.085,-1.0469,-1.0225,-1.0225,-1.0273,-1.0322,-1.04,-1.1298,-1.1816,-1.1884,-1.2678,-1.2699,-1.1751,-1.2591,-1.3119,-1.3169,0.0,0.0,0.0,0.0,0.0,0.0,0.0,0.0,0.0,0.0,0.0,0.0,0.0,0.0,0.0,-1.2974,0.0,-1.0606,-1.0834,0.0,0.0,0.0,-0.9227,-0.8868,-0.827,-0.7855,-0.7929,0.0,0.0,-0.7905,-0.7918,-0.8118,-0.8652,-0.8748,-0.8742,-0.8708,-0.8722,-0.8732,-0.8684,-0.8491,-0.8357,-0.8333,-0.8103,-0.7948,-0.7959,-0.7922,-0.7911,-0.797,-0.7926,-0.807,-0.8303,-0.8391,-0.8406,-0.8679,-0.8771,-0.8867,-0.9053,-0.9133,-0.92,-0.9181,-0.915,-0.9049,-1.2726,-1.3072,-1.3438,-1.3546,-1.3433,-1.3421,-1.3317,-1.3167,-1.276,-1.2686,-1.2768,-1.2228,-1.2128,-1.2372,-1.2366,-1.2222,-1.1983,-1.1977,-1.1672,-1.1173,-1.1161,-1.0749,-1.0155,-1.1222,-1.069,-0.8813,-0.8338,-0.8073,-0.7917,-0.8063,-0.8479,-0.9126,-0.9258,-0.9736,-1.0592,-1.0488,-1.0439,-1.043,-1.0016,-0.9761,-0.9765,-1.0118,-1.0462,-1.0829,-1.1468,-1.1962,-1.2312,-1.2516,-1.2492,-1.2241,-1.2434,-1.2607,-1.2615,-1.3213,0.0,0.0,0.0,0.0,0.0,0.0,0.0,0.0,0.0,-1.4551,-1.4423,0.0,-1.3238,0.0,-1.1469,-1.0404,-0.9684,-0.9682,0.0,0.0,-0.9042,-0.8787,-0.821,-0.7808,-0.7669,-0.7909,-0.7708,-0.7654,-0.786,-0.7887,-0.7946,-0.8064,-0.8125,-0.8121,-0.8088,-0.8103,-0.8117,-0.8115,-0.808,-0.8032,-0.8006,-0.7955,-0.7891,-0.7914,-0.7879,-0.7909,-0.7901,-0.7912,-0.7905,-0.7992,-0.8004,-0.8042,-0.8111,-0.833,-0.8386,-0.8277,-0.857,-0.8871,-0.8871,-0.8748,-0.8567,-1.2622,-1.2835,-1.2835,-1.2841,-1.2854,-1.3091,-1.321,-1.3154,-1.2649,-1.2378,-1.234,-1.1833,-1.1581,-1.1581,-1.1581,-1.145,-1.1205,-1.1205,-1.0939,-1.0532,-1.0491,-1.0219,-0.9747,-1.0165,-0.9753,-0.8627,-0.7986,-0.7695,-0.7695,-0.7695,-0.7939,-0.8423,-0.8433,-0.8774,-0.9438,-0.9995,-1.0322,-1.0278,-0.9834,-0.9511,-0.9358,-0.9597,-0.9943,-1.0382,-1.1058,-1.1678,-1.212,-1.2757,-1.2887,-1.2405,-1.2595,-1.2628,-1.2435,-1.2672,-1.2947,0.0,0.0,0.0,0.0,0.0,0.0,0.0,0.0,0.0,0.0,0.0,-1.22,-1.1659,-1.0714,-0.983,-0.9213,-0.9133,-0.8892,-0.8341,-0.825,-0.807,-0.7538,-0.7371,-0.7331,-0.7505,-0.7375,-0.7353,-0.75,-0.75,-0.75,-0.7504,-0.7491,-0.7576,-0.7854,-0.7894,-0.7903,-0.7919,-0.781,-0.7662,-0.7538,-0.7499,-0.75,-0.75,-0.75,-0.7492,-0.751,-0.7506,-0.7546,-0.7676,-0.771,-0.7779,-0.7902,-0.8032,-0.8082,-0.8034,-0.8146,-0.8366,-0.8401,-0.8274,-0.8179,-1.244,-1.2378,-1.2378,-1.2372,-1.2309,-1.2791,-1.3066,-1.3167,-1.2609,-1.2335,-1.2127,-1.1613,-1.1368,-1.1374,-1.1374,-1.1098,-1.06,-1.06,-1.033,-0.9828,-0.9854,-0.9822,-0.9738,-0.9155,-0.8828,-0.8761,-0.8119,-0.7778,-0.7754,-0.7729,-0.772,-0.7778,-0.7778,-0.8027,-0.8491,-0.9602,-1.0137,-1.0108,-0.9772,-0.9386,-0.9003,-0.9101,-0.9341,-0.9707,-1.0554,-1.1202,-1.1612,-1.2992,-1.3255,-1.2335,-1.2791,-1.288,-1.235,-1.2378,-1.2592,0.0,-1.2991,0.0,0.0,0.0,0.0,0.0,0.0,0.0,0.0,-1.1847,-1.1318,-1.0649,-1.0177,-0.9576,-0.8731,-0.8662,-0.8323,-0.7531,-0.7408,-0.7301,-0.7061,-0.6975,-0.6975,-0.6975,-0.6975,-0.6975,-0.7021,-0.6975,-0.6975,-0.7024,-0.7025,-0.7231,-0.7633,-0.774,-0.7756,-0.7795,-0.7589,-0.7355,-0.713,-0.7041,-0.7021,-0.7017,-0.7021,-0.6975,-0.7044,-0.7034,-0.7115,-0.7356,-0.743,-0.7493,-0.775,-0.7788,-0.7854,-0.776,-0.7802,-0.7894,-0.7944,-0.7901,-0.7842,-1.2452,-1.2378,-1.2378,-1.2146,-1.1763,-1.1851,-1.241,-1.316,-1.2649,-1.1895,-1.0988,-1.0458,-1.0226,-1.0219,-1.0213,-1.0169,-1.0056,-1.0062,-0.9837,-0.9502,-0.9502,-0.931,-0.9008,-0.9082,-0.9027,-0.8789,-0.8481,-0.8322,-0.8176,-0.7841,-0.7905,-0.8278,-0.8257,-0.8462,-0.8877,0.0,0.0,0.0,-0.9476,-0.9415,-0.9049,-0.9677,-1.0073,-1.0195,-1.0712,0.0,-1.1145,-1.1848,-1.2119,-1.1932,-1.236,0.0,0.0,0.0,0.0,0.0,0.0,0.0,0.0,0.0,0.0,0.0,-1.0024,-1.0113,-1.1163,-1.1084,-1.0565,-0.9675,-0.9115,-0.8429,-0.7463,-0.7353,-0.729,-0.7118,-0.7104,-0.7081,-0.7024,-0.6975,-0.6975,-0.6975,-0.6975,-0.6975,-0.6975,-0.6975,-0.6975,-0.6975,-0.6975,-0.7047,-0.717,-0.7225,-0.7159,-0.7167,-0.7169,-0.707,-0.7017,-0.6972,-0.6965,-0.6975,-0.6975,-0.6972,-0.6972,-0.6972,-0.6975,-0.707,-0.707,-0.7098,-0.7179,-0.7414,-0.7473,-0.7206,-0.738,-0.7631,-0.7862,-0.7725,-0.7591,-1.1614,0.0,-1.1581,-1.1412,0.0,-1.1344,-1.1853,-1.2577,-1.2038,-1.1434,-1.0768,-1.034,-1.016,-1.0141,-0.997,-0.9873,-0.9873,-0.9873,-0.9796,-0.9639,-0.9639,-0.9522,-0.9337,-0.9476,-0.9281,-0.8795,-0.8605,-0.8322,-0.801,-0.7812,-0.7807,-0.8052,-0.8057,-0.8159,-0.8359,-0.8342,-0.8471,-0.8709,-0.8921,-0.8795,-0.8397,-0.8781,-0.9121,-0.9366,-0.9782,0.0,0.0,0.0,0.0,0.0,0.0,0.0,0.0,0.0,0.0,-1.1314,-1.1485,-1.124,-1.0383,-1.008,-0.9719,-0.9105,-0.8822,-0.9048,-0.9863,-1.0051,-0.974,-0.872,-0.8365,-0.7876,-0.708,-0.6975,-0.6975,-0.6975,-0.6975,-0.6975,-0.6975,-0.6975,-0.6975,-0.6975,-0.6975,-0.6975,-0.6975,-0.6975,-0.6975,-0.6975,-0.6975,-0.6972,-0.6975,-0.6975,-0.6975,-0.6972,-0.6878,-0.6875,-0.6927,-0.6735,-0.6664,-0.6754,-0.6694,-0.6623,-0.6639,-0.6593,-0.6596,-0.6577,-0.6617,-0.6611,-0.6614,-0.6742,-0.6784,-0.6687,-0.6833,-0.707,-0.7258,-0.7258,-0.7258,-1.0702,-1.07,-1.0721,-1.0686,-1.068,-1.0938,-1.1354,-1.1854,0.0,0.0,0.0,-1.0579,-1.0396,-1.0378,-1.0046,-0.9873,-0.9873,-0.9873,-0.9873,-0.9873,-0.9873,-0.9873,-0.9873,-0.9875,-0.9572,-0.9013,-0.8751,-0.843,-0.7999,-0.7865,-0.7812,-0.7807,-0.7725,-0.7695,-0.7695,-0.7695,-0.787,-0.8252,-0.8376,-0.8213,-0.7861,-0.7885,-0.8089,-0.8518,-0.8818,-0.917,-0.9507,-1.0334,-1.0615,-1.0177,-1.0719,-1.0797,-1.028,-1.0543,-1.0718,-1.0629,-1.0912,-1.0588,-0.9449,-0.9363,-0.888,-0.7773,-0.8135,-0.8527,-0.8803,-0.9039,-0.8832,-0.7981,-0.7788,-0.7473,-0.7063,-0.6975,-0.6975,-0.6975,-0.6974,-0.6902,-0.6941,-0.6894,-0.6833,-0.6852,-0.6829,-0.6875,-0.6833,-0.6821,-0.687,-0.6836,-0.6799,-0.6833,-0.6878,-0.6927,-0.6967,-0.6888,-0.676,-0.6665,-0.675,-0.651,-0.6291,-0.6478,-0.6376,-0.6188,-0.6193,-0.6191,-0.6182,-0.6254,-0.6211,-0.6226,-0.6193,-0.6266,-0.615,-0.6101,-0.6259,-0.6378,-0.6321,-0.6455,-0.6687,-1.0515,-1.0721,-1.0721,-1.0595,-1.0453,-1.0503,-1.0851,-1.1416,-1.1562,-1.1617,-1.154,-1.0753,-1.0396,-1.0378,-1.0072,-0.9873,-0.9873,-0.9873,-0.9873,-0.9873,-0.9873,-0.9873,-0.9873,-0.9886,-0.9866,-0.9744,-0.9422,-0.9214,-0.9095,-0.85,-0.8205,-0.8148,-0.7865,-0.7695,-0.7695,-0.7695,-0.7729,-0.7793,-0.8188,-0.8381,-0.8291,-0.8643,-0.8853,-0.8916,-0.8945,-0.9023,-0.9092,-0.9244,-0.9293,-0.9234,-0.9649,-0.9691,-0.9186,-0.953,-0.9584,-0.9153,-0.9169,-0.8996,-0.8523,-0.8483,-0.8267,-0.7783,-0.8125,-0.8552,-0.8901,-0.8295,-0.7916,-0.7903,-0.7291,-0.6878,-0.6935,-0.6969,-0.6959,-0.6945,-0.6797,-0.665,-0.6643,-0.6488,-0.6353,-0.6358,-0.6313,-0.6337,-0.6375,-0.637,-0.6361,-0.6346,-0.6418,-0.6324,-0.6444,-0.669,-0.6851,-0.6698,-0.6616,-0.6538,-0.6409,-0.6262,-0.6175,-0.6249,-0.6205,-0.6117,-0.6125,-0.6101,-0.6081,-0.6179,-0.6102,-0.6123,-0.6138,-0.6194,-0.5993,-0.5692,-0.5644,-0.5593,-0.5332,-0.5313,-0.5666,-1.0164,-1.0282,-1.0455,-1.0469,-1.0427,-1.0753,-1.1136,-1.1564,-1.1689,-1.1756,-1.1703,-1.1146,-1.0815,-1.066,-1.0317,-1.016,-1.016,-0.997,-0.9995,-1.0135,-0.997,-0.9873,-0.9873,-0.9873,-0.9828,-0.9633,-0.9475,-0.9295,-0.9046,-0.8712,-0.8472,-0.829,-0.7894,-0.7695,-0.7695,-0.7695,-0.7695,-0.77,-0.792,-0.792,-0.77,-0.7871,-0.7969,-0.7974,-0.7969,-0.8081,-0.8269,-0.8091,-0.7969,-0.7969,-0.7923,-0.7916,-0.7949,-0.8301,-0.8612,-0.8783,-0.8783,-0.8739,-0.8584,-0.8189,-0.7894,-0.7734,-0.788,-0.8101,-0.8269,-0.7884,-0.7504,-0.7258,-0.6831,-0.671,-0.6981,-0.688,-0.6787,-0.6787,-0.653,-0.6401,-0.6384,-0.6283,-0.6215,-0.6194,-0.6197,-0.6214,-0.6192,-0.6205,-0.6187,-0.6192,-0.6182,-0.6175,-0.6166,-0.6408,-0.6554,-0.6406,-0.6251,-0.6162,-0.6149,-0.5897,-0.581,-0.5912,-0.5786,-0.5716,-0.5685,-0.559,-0.5561,-0.567,-0.5593,-0.5529,-0.5638,-0.5698,-0.5504,-0.5161,-0.5184,-0.5094,-0.4807,-0.4899,-0.542,-0.9899,-1.0046,-1.0279,-1.047,-1.0657,-1.1182,-1.1564,-1.1797,-1.1805,-1.1819,-1.1762,-1.1445,-1.1203,-1.0954,-1.0653,-1.0508,-1.0476,-1.0248,-1.0223,-1.034,-1.0049,-0.983,-0.9717,-0.9648,-0.9448,-0.9208,-0.9267,-0.9165,-0.8901,-0.8735,-0.8442,-0.8065,-0.7787,-0.7695,-0.7695,-0.7695,-0.7647,-0.7564,-0.7549,-0.7404,-0.7114,-0.7007,-0.6943,-0.6943,-0.6948,-0.7073,-0.736,-0.7119,-0.6992,-0.708,-0.6753,-0.6729,-0.707,-0.7522,-0.7967,-0.8366,-0.8601,-0.8656,-0.8517,-0.8023,-0.7695,-0.7695,-0.7695,-0.7622,-0.7456,-0.7386,-0.7177,-0.6726,-0.6621,-0.6603,-0.6713,-0.6627,-0.6529,-0.6518,-0.6233,-0.6098,-0.6088,-0.6041,-0.5994,-0.5998,-0.5994,-0.5972,-0.6,-0.6002,-0.5993,-0.597,-0.5988,-0.6003,-0.5985,-0.6002,-0.6006,-0.5982,-0.5811,-0.5791,-0.5979,-0.5621,-0.5457,-0.56,-0.5456,-0.5332,-0.5208,-0.4973,-0.4871,-0.5052,-0.493,-0.4924,-0.5113,-0.5186,-0.5052,-0.4754,-0.4855,-0.4832,-0.4443,-0.4607,-0.5068,-0.9803,-1.0322,-1.0403,-1.0705,-1.1227,-1.1608,-1.1776,-1.1797,-1.1819,-1.1819,-1.1776,-1.1445,-1.1273,-1.1212,-1.097,-1.0849,-1.0849,-1.0818,-1.066,-1.0365,-1.0062,-0.9645,-0.9196,-0.8879,-0.8628,-0.8499,-0.8892,-0.9081,-0.8985,-0.8488,-0.7884,-0.7333,-0.7534,-0.7661,-0.7676,-0.7671,-0.7501,-0.7168,-0.7163,-0.7139,-0.708,-0.6689,-0.647,-0.6475,-0.6465,-0.6484,-0.6577,-0.6479,-0.667,-0.7056,-0.7021,-0.7031,-0.7136,-0.7789,-0.7933,-0.7355,-0.7938,-0.82,-0.7865,-0.772,-0.7695,-0.7695,-0.7666,-0.739,-0.6731,-0.6643,-0.6708,-0.6714,-0.6496,-0.6311,-0.6263,-0.6253,-0.6233,-0.6219,-0.5935,-0.5752,-0.5728,-0.5518,-0.5361,-0.5393,-0.5463,-0.5405,-0.5476,-0.5456,-0.5452,-0.5491,-0.5513,-0.5499,-0.5504,-0.5503,-0.5484,-0.5494,-0.5544,-0.559,-0.5501,-0.5379,-0.5313,-0.5358,-0.5306,-0.5163,-0.4922,-0.4812,-0.4764,-0.4708,-0.4526,-0.4577,-0.4754,-0.4849,-0.4815,-0.4515,-0.4496,-0.4493,-0.413,-0.3956,-0.4065,-1.026,-1.0715,-1.0855,-1.1182,-1.1593,-1.1754,-1.1819,-1.1819,-1.1819,-1.1819,-1.1797,-1.1652,-1.149,-1.1303,-1.1196,-1.1134,-1.1141,-1.0977,-1.072,-1.0396,-1.0068,-0.9571,-0.8999,-0.8718,-0.8559,-0.8465,-0.8572,-0.8625,-0.8516,-0.7987,-0.7508,-0.7213,-0.7046,-0.6953,-0.6943,-0.6917,-0.686,-0.6685,-0.644,-0.6342,-0.6304,-0.6161,-0.603,-0.6035,-0.603,-0.6167,-0.6353,-0.6177,-0.6235,-0.6611,-0.6197,-0.6149,-0.666,-0.679,-0.6889,-0.7031,-0.7572,-0.7837,-0.7705,-0.7695,-0.7603,-0.7373,-0.7344,-0.7087,-0.6555,-0.6503,-0.6458,-0.6301,-0.608,-0.6003,-0.6119,-0.6035,-0.5895,-0.5858,-0.5631,-0.5461,-0.5451,-0.5357,-0.5312,-0.5312,-0.5312,-0.5312,-0.5312,-0.5312,-0.5312,-0.5312,-0.5312,-0.5312,-0.5312,-0.5312,-0.5312,-0.5307,-0.5392,-0.5418,-0.5317,-0.5312,-0.5239,-0.5062,-0.4996,-0.4881,-0.4632,-0.4401,-0.437,-0.4568,-0.4444,-0.4449,-0.4764,-0.4743,-0.4679,-0.4337,-0.3758,-0.3586,-0.3688,-0.355,-0.3619,-1.0189,-1.0526,-1.098,-1.1402,-1.1797,-1.1819,-1.1819,-1.1819,-1.1819,-1.1819,-1.1819,-1.1819,-1.1548,-1.122,-1.1336,-1.1351,-1.1154,-1.0961,-1.059,-1.0127,-0.9776,-0.9265,-0.8702,-0.8428,-0.8284,-0.822,-0.8245,-0.8179,-0.803,-0.767,-0.7316,-0.7063,-0.6764,-0.657,-0.6537,-0.6508,-0.6419,-0.6216,-0.594,-0.5744,-0.5625,-0.5601,-0.5601,-0.5605,-0.5601,-0.5747,-0.6007,-0.5757,-0.5801,-0.6191,-0.5635,-0.5581,-0.6167,-0.6164,-0.6378,-0.6947,-0.729,-0.7504,-0.7539,-0.7637,-0.7573,-0.7275,-0.7173,-0.6952,-0.6563,-0.6407,-0.6148,-0.5797,-0.5621,-0.5719,-0.5877,-0.5756,-0.5608,-0.5578,-0.5391,-0.5316,-0.5319,-0.5312,-0.5312,-0.5312,-0.5312,-0.5312,-0.5312,-0.5312,-0.5312,-0.5312,-0.5312,-0.5312,-0.5312,-0.5312,-0.5312,-0.5312,-0.5242,-0.5176,-0.5169,-0.5134,-0.5007,-0.4813,-0.4696,-0.4619,-0.4361,-0.4122,-0.3933,-0.4136,-0.4168,-0.4244,-0.4392,-0.4472,-0.4524,-0.4034,-0.3606,-0.3451,-0.396,-0.3746,-0.363,-0.9176,-0.9595,-1.0449,-1.1193,-1.1767,-1.1759,-1.1789,-1.1787,-1.1759,-1.1774,-1.1714,-1.1723,-1.141,-1.0847,-1.1353,-1.1389,-1.0854,-1.0782,-1.0289,-0.9501,-0.9129,-0.8672,-0.8137,-0.7806,-0.7551,-0.7476,-0.7839,-0.7837,-0.747,-0.7554,-0.7283,-0.6593,-0.687,-0.6964,-0.6751,-0.666,-0.6429,-0.5901,-0.5779,-0.5576,-0.5219,-0.5156,-0.5166,-0.5171,-0.5146,-0.5195,-0.521,-0.5166,-0.5351,-0.5801,-0.5759,-0.5769,-0.5899,-0.648,-0.6852,-0.695,-0.7052,-0.7112,-0.7183,-0.7485,-0.7647,-0.7564,-0.7246,-0.6905,-0.6419,-0.6091,-0.5762,-0.5375,-0.5371,-0.5383,-0.5406,-0.542,-0.5373,-0.5363,-0.5336,-0.5312,-0.5312,-0.5312,-0.5312,-0.5312,-0.5312,-0.5312,-0.5312,-0.5312,-0.5312,-0.5312,-0.5312,-0.5312,-0.5306,-0.5309,-0.5269,-0.521,-0.5041,-0.484,-0.4837,-0.4834,-0.4716,-0.4563,-0.4454,-0.4367,-0.4152,-0.3964,-0.3842,-0.3739,-0.3768,-0.3852,-0.3962,-0.4074,-0.4155,-0.4016,-0.4041,-0.4092,-0.3985,-0.4205,-0.408,-0.953,-0.9866,-1.0107,-1.0682,-1.1323,-1.0933,-1.1036,-1.1517,-1.0956,-1.0723,-1.0686,-1.0628,-1.0458,-1.0234,-1.0466,-1.0458,-1.0223,-1.0226,-0.9805,-0.9129,-0.8953,-0.8577,-0.7977,-0.7707,-0.7553,-0.7475,-0.7412,-0.7213,-0.6916,-0.6963,-0.6783,-0.6369,-0.6341,-0.6313,-0.6203,-0.606,-0.5832,-0.5618,-0.5447,-0.5258,-0.5108,-0.5093,-0.5093,-0.5093,-0.5093,-0.5093,-0.5093,-0.5093,-0.5307,-0.5788,-0.5513,-0.5493,-0.5754,-0.5787,-0.5926,-0.6189,-0.6255,-0.6499,-0.7021,-0.7241,-0.7182,-0.6952,-0.682,-0.6419,-0.5886,-0.5589,-0.5463,-0.534,-0.5312,-0.5312,-0.5312,-0.5312,-0.5312,-0.5312,-0.5312,-0.5312,-0.5312,-0.5312,-0.5312,-0.5312,-0.5312,-0.5312,-0.5312,-0.5312,-0.5312,-0.5312,-0.5312,-0.5312,-0.5279,-0.5137,-0.4993,-0.4954,-0.4723,-0.4501,-0.4304,-0.446,-0.4489,-0.4402,-0.4294,-0.4159,-0.3978,-0.3835,-0.3716,-0.3897,-0.3798,-0.3768,-0.3958,-0.3811,-0.3872,-0.3822,-0.3872,-0.3928,-0.3802,-0.3906,-0.3912,-0.9351,-0.9672,-0.9674,-1.0101,-1.0746,-1.0384,-1.0515,-1.0986,-1.0451,-1.0173,-1.0104,-1.0058,-0.9964,-0.9773,-0.9735,-0.9557,-0.9368,-0.9485,-0.9218,-0.8619,-0.8566,-0.8342,-0.7945,-0.7753,-0.7694,-0.7635,-0.7261,-0.6989,-0.6884,-0.6702,-0.6493,-0.6342,-0.6111,-0.5961,-0.5863,-0.5638,-0.5473,-0.5373,-0.5209,-0.5093,-0.5093,-0.5093,-0.5093,-0.5093,-0.5093,-0.5093,-0.5093,-0.5093,-0.5229,-0.5479,-0.5268,-0.5244,-0.5503,-0.5278,-0.5239,-0.5542,-0.573,-0.6089,-0.6737,-0.6901,-0.6836,-0.6683,-0.6419,-0.6029,-0.556,-0.5362,-0.5309,-0.5312,-0.5312,-0.5312,-0.5312,-0.5312,-0.5312,-0.5312,-0.5312,-0.5312,-0.5312,-0.5312,-0.5312,-0.5312,-0.5312,-0.5312,-0.5312,-0.5312,-0.5312,-0.5312,-0.5312,-0.5312,-0.5279,-0.5023,-0.4792,-0.4781,-0.4571,-0.4392,-0.4274,-0.4378,-0.4199,-0.4078,-0.4191,-0.4031,-0.3959,-0.3801,-0.378,-0.3985,-0.4017,-0.3943,-0.3801,-0.3629,-0.3534,-0.3485,-0.3558,-0.3674,-0.361,-0.3575,-0.3659,-0.8452,-0.8932,-0.9049,-0.9497,-1.0112,-1.0191,-1.0229,-1.0209,-1.0246,-1.008,-0.9943,-1.0182,-0.9813,-0.9471,-0.9338,-0.8946,-0.8476,-0.8735,-0.8582,-0.8042,-0.7996,-0.7974,-0.7899,-0.7885,-0.7863,-0.7848,-0.7433,-0.7291,-0.7317,-0.6874,-0.6604,-0.6552,-0.6307,-0.6112,-0.5918,-0.567,-0.5387,-0.5219,-0.5136,-0.5049,-0.5083,-0.5001,-0.4991,-0.5059,-0.5025,-0.5035,-0.5069,-0.5093,-0.5108,-0.5127,-0.5108,-0.5093,-0.5137,-0.5103,-0.5103,-0.521,-0.5537,-0.5975,-0.6353,-0.646,-0.6638,-0.6737,-0.6332,-0.5887,-0.5738,-0.5494,-0.5312,-0.5312,-0.5312,-0.5312,-0.5312,-0.5312,-0.5312,-0.5312,-0.5312,-0.5312,-0.5312,-0.5312,-0.5312,-0.5312,-0.5312,-0.5312,-0.5312,-0.5312,-0.5312,-0.5312,-0.5312,-0.5277,-0.5199,-0.4917,-0.4794,-0.4719,-0.4499,-0.4266,-0.4293,-0.4321,-0.4012,-0.3766,-0.3956,-0.3998,-0.4093,-0.4022,-0.3937,-0.4067,-0.3879,-0.3808,-0.3699,-0.3534,-0.3534,-0.3506,-0.3509,-0.3485,-0.3475,-0.3465,-0.3558,-0.8483,-0.8727,-0.8647,-0.9115,-0.9775,-0.9427,-0.9509,-0.9932,-0.9512,-0.9194,-0.9132,-0.9042,-0.8908,-0.8757,-0.8709,-0.8576,-0.8325,-0.8336,-0.818,-0.7965,-0.7989,-0.7983,-0.7905,-0.7892,-0.7899,-0.7848,-0.762,-0.7261,-0.6951,-0.6835,-0.674,-0.6569,-0.6336,-0.6277,-0.6325,-0.5819,-0.553,-0.5571,-0.4997,-0.4679,-0.4668,-0.4419,-0.4414,-0.4628,-0.4519,-0.452,-0.4811,-0.4991,-0.5093,-0.5093,-0.5093,-0.5093,-0.5093,-0.5093,-0.5093,-0.5117,-0.5224,-0.5518,-0.5914,-0.6013,-0.607,-0.6179,-0.5998,-0.5786,-0.5526,-0.539,-0.5312,-0.5312,-0.5312,-0.5312,-0.5312,-0.5312,-0.5312,-0.5312,-0.5312,-0.5312,-0.5312,-0.5312,-0.5312,-0.5312,-0.5312,-0.5312,-0.5312,-0.5312,-0.5312,-0.5306,-0.5302,-0.5226,-0.4966,-0.4749,-0.4522,-0.4498,-0.4285,-0.4186,-0.4219,-0.4333,-0.4242,-0.406,-0.4115,-0.4139,-0.4224,-0.4252,-0.4183,-0.4021,-0.3831,-0.3682,-0.3573,-0.3534,-0.3555,-0.346,-0.3411,-0.3387,-0.3366,-0.3382,-0.344,-0.8632,-0.8703,-0.8607,-0.8883,-0.9371,-0.8938,-0.9042,-0.9421,-0.9,-0.8744,-0.8701,-0.8636,-0.8587,-0.8575,-0.8542,-0.8467,-0.8403,-0.8261,-0.8092,-0.7927,-0.7975,-0.7855,-0.7577,-0.754,-0.77,-0.783,-0.7701,-0.7342,-0.6865,-0.6869,-0.6834,-0.6666,-0.6295,-0.6207,-0.6342,-0.5747,-0.5472,-0.5598,-0.5079,-0.4736,-0.4692,-0.4478,-0.4468,-0.4667,-0.457,-0.4608,-0.4854,-0.5005,-0.501,-0.4853,-0.4814,-0.4809,-0.4809,-0.4888,-0.4952,-0.4952,-0.4994,-0.5154,-0.5562,-0.5511,-0.554,-0.5653,-0.5692,-0.5582,-0.5344,-0.5312,-0.5312,-0.5312,-0.5312,-0.5312,-0.5312,-0.5312,-0.5312,-0.5312,-0.5312,-0.5312,-0.5312,-0.5312,-0.5312,-0.5312,-0.5312,-0.5312,-0.5312,-0.5312,-0.5312,-0.5302,-0.518,-0.5087,-0.4789,-0.4574,-0.4424,-0.4348,-0.4348,-0.4258,-0.4175,-0.4272,-0.4437,-0.4424,-0.4428,-0.4384,-0.4377,-0.4411,-0.4357,-0.4102,-0.3905,-0.3776,-0.3668,-0.3692,-0.3678,-0.3509,-0.3369,-0.3388,-0.3401,-0.3232,-0.3195,-0.8832,-0.8821,-0.8821,-0.8849,-0.8922,-0.8929,-0.8917,-0.8828,-0.8908,-0.8877,-0.8778,-0.8874,-0.8902,-0.8869,-0.8766,-0.866,-0.8459,-0.8428,-0.8277,-0.8068,-0.7968,-0.7714,-0.724,-0.7212,-0.7472,-0.7811,-0.7711,-0.7453,-0.7142,-0.696,-0.6884,-0.6767,-0.6272,-0.6039,-0.613,-0.5537,-0.5339,-0.5528,-0.5235,-0.5019,-0.4976,-0.4895,-0.49,-0.4919,-0.4824,-0.4819,-0.485,-0.4849,-0.4726,-0.4426,-0.4451,-0.443,-0.441,-0.4551,-0.4671,-0.4691,-0.4666,-0.4889,-0.5142,-0.5042,-0.4989,-0.5315,-0.5316,-0.5274,-0.5302,-0.5312,-0.5312,-0.5312,-0.5312,-0.5312,-0.5312,-0.5312,-0.5312,-0.5312,-0.5312,-0.5312,-0.5312,-0.5312,-0.5312,-0.5312,-0.5312,-0.5312,-0.5295,-0.5265,-0.5239,-0.517,-0.4983,-0.4782,-0.4664,-0.4451,-0.429,-0.4297,-0.4375,-0.4497,-0.4455,-0.456,-0.4714,-0.4704,-0.4715,-0.4648,-0.4555,-0.4552,-0.4391,-0.415,-0.3971,-0.3859,-0.3754,-0.3699,-0.3657,-0.353,-0.3477,-0.3513,-0.338,-0.3146,-0.2986,-0.9102,-0.9028,-0.9017,-0.9071,-0.9162,-0.924,-0.922,-0.9159,-0.9212,-0.9142,-0.904,-0.9175,-0.9104,-0.8916,-0.9021,-0.896,-0.8773,-0.8665,-0.8592,-0.8487,-0.8317,-0.8061,-0.7709,-0.7622,-0.7668,-0.7822,-0.7686,-0.745,-0.7193,-0.7,-0.6834,-0.6661,-0.6295,-0.6207,-0.6354,-0.59,-0.5745,-0.5698,-0.5223,-0.4858,-0.4645,-0.4237,-0.4086,-0.4302,-0.4036,-0.4017,-0.4151,-0.4031,-0.4309,-0.4849,-0.4691,-0.4606,-0.4511,-0.4446,-0.441,-0.441,-0.4419,-0.4461,-0.4597,-0.4578,-0.4661,-0.4905,-0.4972,-0.505,-0.5299,-0.5312,-0.5312,-0.5312,-0.5312,-0.5312,-0.5312,-0.5312,-0.5312,-0.5312,-0.5312,-0.5312,-0.5312,-0.5312,-0.5312,-0.5312,-0.5312,-0.5309,-0.5301,-0.5138,-0.5029,-0.4967,-0.4771,-0.4498,-0.4421,-0.4452,-0.4375,-0.4377,-0.4479,-0.4671,-0.4811,-0.4912,-0.4981,-0.4997,-0.4973,-0.4937,-0.4822,-0.4704,-0.4403,-0.4045,-0.3963,-0.3868,-0.3677,-0.357,-0.3526,-0.3545,-0.34,-0.3346,-0.3175,-0.2987,-0.2874,-0.9436,-0.9297,-0.926,-0.9256,-0.9285,-0.9277,-0.9286,-0.9312,-0.9314,-0.9268,-0.9192,-0.9188,-0.9151,-0.9088,-0.9159,-0.9101,-0.8953,-0.8807,-0.8746,-0.8723,-0.8551,-0.8178,-0.7784,-0.7646,-0.752,-0.7403,-0.7603,-0.765,-0.7453,-0.7098,-0.6848,-0.6653,-0.6177,-0.6052,-0.6218,-0.5821,-0.5617,-0.5603,-0.5237,-0.4894,-0.4718,-0.4376,-0.4167,-0.4209,-0.3944,-0.3972,-0.3922,-0.3862,-0.4072,-0.4329,-0.4289,-0.4191,-0.4191,-0.4175,-0.4126,-0.4134,-0.415,-0.4169,-0.4171,-0.4201,-0.4353,-0.46,-0.4718,-0.4987,-0.5238,-0.5312,-0.5312,-0.5312,-0.5312,-0.5312,-0.5312,-0.5312,-0.5312,-0.5312,-0.5312,-0.5312,-0.5312,-0.5312,-0.5312,-0.5312,-0.5309,-0.5386,-0.5508,-0.5206,-0.5112,-0.5125,-0.4919,-0.4574,-0.4316,-0.4402,-0.4464,-0.4403,-0.4545,-0.4744,-0.4773,-0.4815,-0.4919,-0.4974,-0.5067,-0.5074,-0.4853,-0.4684,-0.4273,-0.3948,-0.3927,-0.3833,-0.365,-0.3536,-0.3609,-0.3567,-0.335,-0.3269,-0.3199,-0.3178,-0.3036,-0.976,-0.9606,-0.9483,-0.9411,-0.9383,-0.9262,-0.9338,-0.9367,-0.9376,-0.9323,-0.9277,-0.9107,-0.9151,-0.9274,-0.9236,-0.9167,-0.8993,-0.8863,-0.8821,-0.8773,-0.8648,-0.8321,-0.7817,-0.7411,-0.7214,-0.7062,-0.7572,-0.772,-0.7574,-0.7149,-0.6845,-0.6552,-0.5883,-0.5627,-0.5704,-0.5347,-0.5238,-0.5247,-0.5054,-0.4814,-0.4679,-0.4513,-0.4276,-0.4028,-0.4063,-0.3938,-0.3812,-0.3847,-0.3879,-0.3442,-0.346,-0.3605,-0.3601,-0.379,-0.3831,-0.3852,-0.3873,-0.3859,-0.3879,-0.3913,-0.411,-0.4385,-0.4628,-0.4917,-0.5184,-0.5312,-0.5312,-0.5312,-0.5312,-0.5312,-0.5312,-0.5312,-0.5312,-0.5312,-0.5312,-0.5312,-0.5312,-0.5312,-0.5312,-0.5312,-0.5312,-0.5494,-0.5594,-0.5523,-0.5281,-0.5096,-0.4868,-0.4499,-0.4291,-0.4308,-0.4309,-0.4284,-0.4508,-0.482,-0.4752,-0.4655,-0.4763,-0.4865,-0.5029,-0.502,-0.4672,-0.4431,-0.4044,-0.3812,-0.388,-0.3794,-0.359,-0.3567,-0.3703,-0.3755,-0.3671,-0.3604,-0.3534,-0.3579,-0.3506,-1.002,-0.9756,-0.9733,-0.9766,-0.9861,-0.9869,-0.9863,-0.9831,-0.9803,-0.957,-0.9482,-0.956,-0.9385,-0.9055,-0.9358,-0.9323,-0.9028,-0.8955,-0.8883,-0.8866,-0.8852,-0.8776,-0.8343,-0.7699,-0.7374,-0.7419,-0.7204,-0.7285,-0.733,-0.6922,-0.6497,-0.6252,-0.5661,-0.5208,-0.5251,-0.5126,-0.4885,-0.4628,-0.447,-0.4232,-0.3892,-0.3712,-0.355,-0.3369,-0.3256,-0.3093,-0.3011,-0.3014,-0.2992,-0.2995,-0.3208,-0.3416,-0.3594,-0.3426,-0.3387,-0.352,-0.3563,-0.3559,-0.3576,-0.3602,-0.3835,-0.4261,-0.4384,-0.4719,-0.5255,-0.5246,-0.5277,-0.5309,-0.5312,-0.5217,-0.5246,-0.5281,-0.5281,-0.5277,-0.5281,-0.5281,-0.5312,-0.5312,-0.5312,-0.5312,-0.5312,-0.5337,-0.5408,-0.5181,-0.5048,-0.4997,-0.4752,-0.4355,-0.426,-0.4237,-0.4268,-0.428,-0.4573,-0.4894,-0.4923,-0.4826,-0.486,-0.4914,-0.5015,-0.4996,-0.4667,-0.4468,-0.4207,-0.4017,-0.3881,-0.3791,-0.3787,-0.3787,-0.3946,-0.3975,-0.397,-0.3774,-0.3676,-0.3808,-0.3713,-1.0192,-1.0037,-1.0035,-0.9982,-0.992,-0.9952,-0.9969,-0.9889,-0.9431,-0.9437,-0.9638,-0.9761,-0.9613,-0.9445,-0.9685,-0.9663,-0.9481,-0.942,-0.9383,-0.9348,-0.931,-0.9247,-0.8871,-0.8053,-0.7545,-0.7552,-0.6918,-0.675,-0.6695,-0.6435,-0.6124,-0.5988,-0.5344,-0.5146,-0.4982,-0.4696,-0.4402,-0.4071,-0.3665,-0.3359,-0.3078,-0.2938,-0.2757,-0.2619,-0.2311,-0.2058,-0.2033,-0.2209,-0.2187,-0.2163,-0.2328,-0.2759,-0.3208,-0.3065,-0.3001,-0.3089,-0.3132,-0.3132,-0.3135,-0.3143,-0.3344,-0.3864,-0.3888,-0.4196,-0.4546,-0.4698,-0.4698,-0.4698,-0.4701,-0.4736,-0.4925,-0.4762,-0.4826,-0.5182,-0.5084,-0.5087,-0.5249,-0.5312,-0.5312,-0.5312,-0.5312,-0.5421,-0.538,-0.5168,-0.512,-0.5217,-0.4923,-0.4531,-0.4215,-0.4206,-0.4346,-0.4451,-0.4715,-0.4943,-0.5044,-0.5049,-0.5025,-0.504,-0.5064,-0.4967,-0.4721,-0.4626,-0.4535,-0.4316,-0.4106,-0.4286,-0.429,-0.4275,-0.4118,-0.4134,-0.4071,-0.3855,-0.3604,-0.3441,-0.3329,-0.9139,-0.9556,-0.9923,-1.0022,-0.9857,-0.9679,-0.9683,-0.9744,-0.8919,-0.8936,-0.9422,-0.9377,-0.9252,-0.9587,-0.978,-0.9883,-0.9905,-0.987,-0.9716,-0.9653,-0.9596,-0.9471,-0.9115,-0.8526,-0.7517,-0.7021,-0.5844,-0.5552,-0.5645,-0.5535,-0.508,-0.5178,-0.4755,-0.4252,-0.428,-0.3962,-0.3413,-0.3203,-0.273,-0.2391,-0.2243,-0.2156,-0.1918,-0.1697,-0.1382,-0.1239,-0.1306,-0.1415,-0.1411,-0.1262,-0.1241,-0.1659,-0.2189,-0.2478,-0.2613,-0.2651,-0.2713,-0.2713,-0.2783,-0.2785,-0.2923,-0.3243,-0.3316,-0.3537,-0.3905,-0.4089,-0.4153,-0.4088,-0.4153,-0.4218,-0.4441,-0.4315,-0.4473,-0.4794,-0.4695,-0.473,-0.4992,-0.5116,-0.5052,-0.5277,-0.5204,-0.5204,-0.5435,-0.5419,-0.5414,-0.5361,-0.507,-0.477,-0.4472,-0.4386,-0.4638,-0.4768,-0.5044,-0.502,-0.5093,-0.5093,-0.5093,-0.5087,-0.5097,-0.5044,-0.4914,-0.5053,-0.4989,-0.4549,-0.4402,-0.4517,-0.4445,-0.4174,-0.412,-0.4218,-0.4113,-0.383,-0.3445,-0.3026,-0.3005,-0.3986,-0.6166,-0.8371,-0.9629,-0.9998,-0.9172,-0.9098,-0.9396,-0.9065,-0.8482,-0.7921,-0.8004,-0.8233,-0.848,-0.8975,-0.9354,-0.9696,-0.98,-0.9747,-0.9689,-0.9579,-0.9389,-0.8294,-0.9011,-0.755,-0.5249,-0.3658,-0.3185,-0.3833,-0.3732,-0.3354,-0.3201,-0.2723,-0.2403,-0.24,-0.2181,-0.1916,-0.1718,-0.1381,-0.117,-0.1002,-0.0717,-0.0498,-0.0415,-0.022,-0.0375,-0.0643,-0.0508,-0.0507,-0.0912,-0.0959,-0.1023,-0.1156,-0.1352,-0.1782,-0.232,-0.232,-0.2274,-0.2438,-0.2596,-0.2808,-0.3084,-0.3082,-0.3344,-0.3663,-0.3851,-0.3779,-0.3861,-0.3893,-0.3993,-0.4088,-0.3926,-0.4029,-0.4188,-0.4218,-0.4186,-0.425,-0.4312,-0.457,-0.4985,-0.4935,-0.4982,-0.5315,-0.5564,-0.554,-0.5531,-0.5407,-0.5233,-0.507,-0.5071,-0.5256,-0.5344,-0.5421,-0.5273,-0.5122,-0.5117,-0.5088,-0.5074,-0.5119,-0.5308,-0.5303,-0.5568,-0.5462,-0.5028,-0.4579,-0.4439,-0.4283,-0.4172,-0.4042,-0.4102,-0.396,-0.3784,-0.3375,-0.3001,-0.3177,-0.0319,-0.315,-0.449,-0.6734,-0.9086,-0.9451,-0.9212,-0.8894,-0.8566,-0.8248,-0.7907,-0.7669,-0.7787,-0.8246,-0.8789,-0.9382,-0.968,-0.9958,-0.996,-0.9944,-0.9825,-0.7485,-0.5962,-0.7866,-0.5634,-0.2027,0.0555,0.0266,-0.1233,-0.1243,-0.1082,-0.0965,-0.0635,-0.0543,-0.0489,-0.0184,-0.0042,0.0147,0.0426,0.0646,0.0654,0.0915,0.0899,0.0922,0.0923,0.077,0.0661,0.0727,0.0814,0.0573,0.0507,0.0396,0.0244,0.0046,-0.0422,-0.1424,-0.1612,-0.1587,-0.1755,-0.177,-0.1831,-0.2008,-0.216,-0.2272,-0.2529,-0.2726,-0.3066,-0.327,-0.3337,-0.3436,-0.3593,-0.3462,-0.3567,-0.3863,-0.3826,-0.3761,-0.3861,-0.3756,-0.4148,-0.4669,-0.4925,-0.5103,-0.5359,-0.5542,-0.5584,-0.5637,-0.565,-0.5598,-0.554,-0.5621,-0.5685,-0.5433,-0.5372,-0.5249,-0.5137,-0.5176,-0.5193,-0.5169,-0.5171,-0.5352,-0.5513,-0.5716,-0.574,-0.5511,-0.5087,-0.4789,-0.4744,-0.4833,-0.4421,-0.3925,-0.3748,-0.3528,-0.3224,-0.3092,-0.3162,0.312,0.057,-0.0437,-0.3239,-0.6871,-0.8349,-0.8414,-0.7803,-0.7099,-0.728,-0.7923,-0.6968,-0.6811,-0.7621,-0.7982,-0.8299,-0.8523,-0.8079,-0.7846,-0.7796,-0.7656,-0.4907,-0.3196,-0.2374,-0.1862,0.357,0.5164,0.4584,0.2141,0.16,0.1468,0.1424,0.1415,0.1303,0.1347,0.1764,0.193,0.2129,0.2421,0.2729,0.2565,0.2228,0.2117,0.2162,0.2164,0.2078,0.1835,0.2029,0.1988,0.188,0.1837,0.1768,0.1541,0.1566,0.1034,-0.0025,-0.0476,-0.0675,-0.0789,-0.0814,-0.0976,-0.1254,-0.1071,-0.1115,-0.1367,-0.1839,-0.2043,-0.2343,-0.2442,-0.2608,-0.2834,-0.274,-0.2973,-0.337,-0.3401,-0.3298,-0.356,-0.3695,-0.3876,-0.4366,-0.4818,-0.5153,-0.5373,-0.5439,-0.5498,-0.5719,-0.5753,-0.5719,-0.5668,-0.5831,-0.5796,-0.5348,-0.5156,-0.5111,-0.5132,-0.5283,-0.5325,-0.5352,-0.534,-0.5421,-0.5577,-0.5749,-0.5822,-0.6006,-0.5917,-0.5662,-0.5584,-0.5154,-0.4468,-0.3928,-0.3607,-0.3369,-0.3195,-0.2955,-0.2885,0.721,0.6433,0.2192,-0.0577,-0.2218,-0.3627,-0.4686,-0.519,-0.4218,-0.5038,-0.6082,-0.4799,-0.4414,-0.5109,-0.5283,-0.4114,-0.2726,-0.2119,-0.2169,-0.2192,-0.1964,-0.132,0.0609,0.6106,0.5567,0.8232,0.8969,0.7676,0.5379,0.4599,0.4239,0.392,0.3815,0.3691,0.3545,0.3734,0.3617,0.364,0.3724,0.3851,0.3831,0.3264,0.3192,0.3366,0.3386,0.3111,0.2826,0.3043,0.3126,0.2628,0.2562,0.2396,0.2154,0.2101,0.21,0.1533,0.0831,-0.0025,-0.0106,-0.0051,-0.0176,-0.0387,-0.0436,-0.0697,-0.0821,-0.1047,-0.1303,-0.1405,-0.1504,-0.1739,-0.2141,-0.2111,-0.2377,-0.261,-0.274,-0.2937,-0.3231,-0.2993,-0.3272,-0.4271,-0.4799,-0.5072,-0.5296,-0.5342,-0.5397,-0.5656,-0.5823,-0.5827,-0.5856,-0.6047,-0.5943,-0.5526,-0.5435,-0.5401,-0.531,-0.5457,-0.5518,-0.5539,-0.5572,-0.5588,-0.5881,-0.6141,-0.6411,-0.6525,-0.6449,-0.5958,-0.5359,-0.4802,-0.4258,-0.3946,-0.3698,-0.3484,-0.3299,-0.3024,-0.2679,0.7764,0.7206,0.5086,0.2941,0.0988,0.027,-0.0227,-0.0661,-0.0783,-0.0947,-0.1505,-0.1909,-0.2084,-0.2184,-0.138,0.0199,0.1806,0.2726,0.3704,0.3899,0.4059,0.4403,0.5482,0.7541,0.9095,1.0012,1.0126,0.9606,0.8035,0.7395,0.7041,0.6419,0.6348,0.6226,0.579,0.5854,0.567,0.5442,0.5237,0.5264,0.5281,0.4895,0.4524,0.4777,0.4716,0.4343,0.4099,0.4339,0.4284,0.3799,0.3683,0.3818,0.376,0.3739,0.3678,0.36,0.2842,0.201,0.1342,0.1333,0.1052,0.0914,0.0851,0.077,0.0317,-0.0033,-0.0365,-0.0563,-0.1033,-0.1337,-0.1471,-0.1607,-0.1708,-0.1841,-0.2006,-0.2469,-0.2664,-0.2299,-0.2502,-0.366,-0.4678,-0.4734,-0.4932,-0.5256,-0.5354,-0.5621,-0.5925,-0.6136,-0.6198,-0.6319,-0.609,-0.5716,-0.5769,-0.5889,-0.5731,-0.5727,-0.5784,-0.5826,-0.5918,-0.6014,-0.634,-0.6622,-0.6425,-0.6466,-0.6405,-0.5838,-0.5044,-0.4662,-0.4367,-0.4082,-0.3794,-0.3419,-0.3072,-0.2885,-0.2578,0.7482,0.6893,0.6961,0.5621,0.3498,0.3298,0.3158,0.3084,0.2447,0.254,0.2645,0.1568,0.0981,0.1456,0.2795,0.3859,0.4915,0.6285,0.7284,0.8016,0.8396,0.8289,0.8154,0.849,0.8806,0.9715,1.002,0.9901,0.983,0.944,0.8826,0.845,0.816,0.8036,0.7834,0.7622,0.7401,0.7023,0.6653,0.6646,0.6729,0.6322,0.6076,0.6026,0.5947,0.5721,0.5449,0.5651,0.5508,0.5245,0.5181,0.5372,0.5576,0.5612,0.5591,0.5564,0.5128,0.4583,0.3689,0.3146,0.2671,0.2333,0.2212,0.1844,0.1628,0.1252,0.102,0.0758,0.0,-0.0366,-0.0565,-0.0732,-0.1068,-0.1135,-0.1267,-0.1797,-0.2194,-0.1826,-0.192,-0.2978,-0.375,-0.3985,-0.4317,-0.4934,-0.5313,-0.5602,-0.594,-0.6275,-0.6265,-0.6165,-0.6104,-0.5757,-0.612,-0.5978,-0.5313,-0.5397,-0.5638,-0.5727,-0.58,-0.5772,-0.5695,-0.5543,-0.5288,-0.5539,-0.593,-0.5188,-0.4104,-0.4289,-0.4434,-0.3739,-0.3123,-0.3022,-0.2778,-0.2598,-0.2442,0.6988,0.6553,0.6887,0.6532,0.5679,0.5189,0.491,0.4778,0.4753,0.4727,0.4793,0.4635,0.4744,0.5528,0.5563,0.6329,0.7476,0.7738,0.7855,0.8004,0.8185,0.8385,0.856,0.8791,0.898,0.9451,0.9853,1.0058,1.0066,1.0006,0.9657,0.9365,0.9203,0.9044,0.8806,0.8575,0.8557,0.8249,0.7916,0.7759,0.774,0.7467,0.7232,0.7158,0.7031,0.6887,0.6848,0.6955,0.6984,0.6763,0.6845,0.7045,0.7345,0.7399,0.7428,0.7455,0.7352,0.6834,0.6102,0.465,0.3169,0.26,0.2641,0.3017,0.2869,0.2609,0.2408,0.2334,0.1579,0.1318,0.1022,0.0562,0.0231,0.023,0.0164,-0.0624,-0.105,-0.1352,-0.1544,-0.2387,-0.2919,-0.3211,-0.3659,-0.4298,-0.4517,-0.4759,-0.4774,-0.5048,-0.5357,-0.5378,-0.5752,-0.5836,-0.6354,-0.5932,-0.4538,-0.4528,-0.4908,-0.4681,-0.4487,-0.4397,-0.432,-0.4199,-0.4436,-0.4382,-0.4649,-0.3902,-0.3397,-0.3542,-0.3458,-0.2869,-0.2479,-0.2463,-0.2253,-0.1968,-0.1905,0.753,0.738,0.75,0.691,0.5917,0.5945,0.5795,0.5616,0.5842,0.596,0.593,0.598,0.6146,0.643,0.6537,0.6907,0.7536,0.7317,0.7739,0.8114,0.8268,0.84,0.8694,0.9067,0.9372,0.9561,0.9863,1.0058,1.0096,1.0135,1.0134,0.9938,0.9772,0.9563,0.9357,0.9138,0.908,0.9073,0.8819,0.8599,0.8633,0.835,0.8066,0.7926,0.7891,0.7849,0.7941,0.8297,0.839,0.8446,0.8519,0.8774,0.9017,0.9055,0.9101,0.9142,0.8995,0.8514,0.7878,0.6559,0.5546,0.4763,0.491,0.5025,0.4485,0.4154,0.4183,0.391,0.3263,0.2803,0.2885,0.2593,0.2363,0.2296,0.1745,0.0842,0.0324,0.0098,-0.0559,-0.1112,-0.1977,-0.2676,-0.3143,-0.3626,-0.3756,-0.3852,-0.3802,-0.3851,-0.4199,-0.4608,-0.4939,-0.5094,-0.5481,-0.5185,-0.382,-0.3879,-0.4154,-0.354,-0.2999,-0.2794,-0.2694,-0.3834,-0.3997,-0.3789,-0.3232,-0.2668,-0.2411,-0.2689,-0.2563,-0.2161,-0.2001,-0.1994,-0.1705,-0.1178,-0.1224,0.7812,0.7724,0.7834,0.7251,0.6333,0.6566,0.6437,0.6112,0.6334,0.6426,0.6335,0.6422,0.6535,0.6568,0.6659,0.7107,0.7614,0.7673,0.7973,0.824,0.8453,0.8565,0.8988,0.9339,0.9549,0.9679,0.9894,1.0077,1.0099,1.0154,1.0162,1.0146,1.0085,0.9894,0.9719,0.9476,0.9405,0.9471,0.9351,0.9185,0.9269,0.9025,0.9088,0.9029,0.9125,0.9321,0.9589,0.997,1.0102,1.0075,1.0128,1.0366,1.0562,1.067,1.0647,1.0523,1.029,0.9749,0.912,0.789,0.7215,0.6352,0.658,0.6635,0.633,0.5793,0.5804,0.5736,0.4765,0.4155,0.4524,0.4056,0.3804,0.3574,0.3285,0.2539,0.2217,0.19,0.1012,0.0263,-0.0232,-0.0066,0.0097,-0.0161,-0.1485,-0.2193,-0.3671,-0.3451,-0.3155,-0.3605,-0.408,-0.4155,-0.423,-0.3661,-0.3,-0.2944,-0.2628,-0.1133,-0.069,-0.0752,-0.1035,-0.2031,-0.1799,-0.0383,-0.0142,-0.0909,-0.0723,-0.0026,-0.0686,-0.1559,-0.1289,-0.0906,0.0086,0.0551,-0.0104,0.7643,0.7294,0.7709,0.7606,0.7141,0.7171,0.694,0.6522,0.6533,0.6413,0.6251,0.6478,0.6724,0.6871,0.7021,0.7504,0.8112,0.8331,0.8501,0.851,0.8685,0.8773,0.902,0.935,0.966,0.9671,0.9869,1.0049,1.0113,1.0135,1.0169,1.0201,1.0176,1.0122,1.0078,0.9956,0.9887,0.9876,0.9732,0.9805,0.9772,0.9746,1.0154,1.0403,1.0531,1.0708,1.1228,1.1528,1.1656,1.1674,1.165,1.1938,1.2342,1.2248,1.224,1.231,1.2279,1.1952,1.1355,0.8815,0.7914,0.7779,0.807,0.7846,0.7632,0.7403,0.7259,0.7102,0.6233,0.5986,0.5706,0.5294,0.5219,0.5093,0.4858,0.4469,0.4137,0.3871,0.3093,0.2247,0.3014,0.3768,0.4068,0.3729,0.1704,-0.0123,-0.2653,-0.2959,-0.178,-0.1374,-0.1421,-0.1623,-0.1477,-0.1191,-0.0664,-0.1406,-0.1024,0.0633,0.1572,0.1529,0.1689,0.1499,0.2074,0.3155,0.2545,0.1385,0.2167,0.3152,0.2072,0.1037,0.0331,0.066,0.1713,0.2182,0.1498,0.7812,0.7672,0.7827,0.7812,0.7672,0.7658,0.7402,0.7014,0.6968,0.7062,0.7228,0.7398,0.7459,0.7531,0.7556,0.7867,0.8319,0.8546,0.8591,0.8863,0.8966,0.9164,0.9341,0.9499,0.9742,0.9857,0.9987,1.0065,1.017,1.0157,1.0164,1.02,1.0231,1.0224,1.018,1.0115,1.0099,1.0221,1.0483,1.0794,1.0716,1.1081,1.1442,1.1663,1.1682,1.2012,1.2606,1.2836,1.2973,1.3149,1.3192,1.3391,1.3641,1.3514,1.3565,1.3531,1.3395,1.279,1.2219,1.089,1.0256,0.9828,0.9435,0.9281,0.9034,0.828,0.8251,0.8377,0.7871,0.7761,0.7645,0.7625,0.7559,0.7357,0.7059,0.65,0.6126,0.5943,0.545,0.4502,0.4605,0.52,0.5615,0.6233,0.4853,0.4262,0.2306,0.1455,0.221,0.2656,0.2763,0.2289,0.2122,0.2054,0.1859,0.127,0.177,0.3575,0.4042,0.3854,0.4079,0.4608,0.4366,0.4618,0.4167,0.376,0.4167,0.4507,0.4472,0.3816,0.338,0.2761,0.3245,0.3482,0.3039,0.7899,0.7899,0.7899,0.7899,0.7899,0.7899,0.7702,0.7463,0.7463,0.7628,0.7841,0.7892,0.7905,0.7923,0.7953,0.8146,0.848,0.8762,0.8838,0.9106,0.914,0.9267,0.9445,0.9656,0.9737,0.9907,1.0033,1.0123,1.0154,1.0164,1.0178,1.0212,1.0252,1.0264,1.0247,1.0221,1.0394,1.0653,1.1094,1.1436,1.1686,1.2116,1.2493,1.2667,1.2819,1.3046,1.3541,1.3859,1.4018,1.436,1.4449,1.444,1.4439,1.4364,1.434,1.4155,1.3956,1.348,1.3126,1.3072,1.2406,1.1896,1.1449,1.0936,1.0554,1.0133,0.9991,0.9917,0.9517,0.9414,0.9433,0.9489,0.9299,0.9077,0.8878,0.8311,0.8203,0.8021,0.7908,0.697,0.6708,0.7042,0.7338,0.7738,0.7789,0.7705,0.7539,0.6691,0.5684,0.5665,0.5732,0.5203,0.4687,0.4317,0.4171,0.4102,0.4945,0.6553,0.6558,0.6249,0.7091,0.7648,0.6841,0.6115,0.6057,0.5933,0.5627,0.57,0.6322,0.6772,0.683,0.6123,0.5272,0.4824,0.4595,0.7899,0.7899,0.7899,0.7906,0.7899,0.7899,0.7885,0.7885,0.7892,0.7892,0.7899,0.7949,0.8018,0.8067,0.7961,0.8182,0.8632,0.9035,0.9134,0.9162,0.9218,0.9322,0.9455,0.9627,0.9763,0.9836,0.9943,1.0098,1.0098,1.0124,1.0169,1.0207,1.0249,1.0273,1.0271,1.0299,1.053,1.0863,1.1491,1.1896,1.2343,1.2867,1.3378,1.3671,1.3908,1.4104,1.4468,1.4756,1.4787,1.4826,1.4732,1.4723,1.4644,1.4471,1.4386,1.4353,1.4346,1.4253,1.4213,1.4248,1.4185,1.3528,1.2897,1.2442,1.1984,1.1635,1.1363,1.1276,1.1002,1.0907,1.0865,1.0694,1.054,1.0464,1.0448,1.0247,1.0224,1.0177,1.0177,0.9895,0.9818,0.9986,1.0179,1.047,0.9926,1.0172,0.9843,0.9016,0.806,0.7292,0.729,0.7095,0.6599,0.6209,0.626,0.6794,0.7614,0.9041,0.8878,0.8759,0.9747,1.0109,0.9056,0.8335,0.8349,0.8128,0.7629,0.8015,0.8877,0.9188,0.8938,0.8344,0.7136,0.6614,0.6338,0.8004,0.792,0.8164,0.8123,0.7928,0.7899,0.7899,0.7914,0.7989,0.8036,0.8057,0.8197,0.8243,0.8298,0.8029,0.8274,0.8602,0.8928,0.9109,0.9206,0.9303,0.9455,0.9617,0.9763,0.9853,0.9932,1.002,1.01,1.0119,1.0134,1.0159,1.0197,1.0225,1.0261,1.0263,1.0238,1.0487,1.0907,1.1693,1.2428,1.3123,1.3787,1.4301,1.4632,1.4709,1.4868,1.5002,1.5105,1.5089,1.5066,1.5043,1.5053,1.5046,1.4985,1.4947,1.4939,1.4882,1.4797,1.4816,1.4811,1.4747,1.4672,1.4187,1.364,1.3084,1.26,1.2335,1.2313,1.2225,1.2042,1.1942,1.1804,1.1654,1.1586,1.1574,1.1561,1.1521,1.1489,1.1508,1.1573,1.1549,1.1734,1.2066,1.1831,1.1395,1.1937,1.1922,1.1147,1.0405,0.9631,0.9162,0.8984,0.8906,0.8618,0.9334,0.9962,1.0611,1.1259,1.1123,1.1064,1.15,1.1554,1.0848,1.0223,0.9681,0.953,0.9421,0.9898,1.0255,1.0306,1.0095,0.9635,0.9131,0.8519,0.8029,0.7969,0.7927,0.8109,0.8108,0.7997,0.7983,0.8018,0.8088,0.8098,0.8137,0.8227,0.8343,0.8399,0.8367,0.8217,0.8335,0.87,0.899,0.9178,0.9265,0.9403,0.9558,0.9745,0.9838,0.9881,0.9971,1.0034,1.0084,1.0115,1.0157,1.0198,1.0195,1.019,1.025,1.0371,1.0623,1.0793,1.1248,1.1937,1.2939,1.3846,1.4621,1.4993,1.5205,1.5205,1.5195,1.5195,1.5195,1.5195,1.5195,1.5195,1.5195,1.5199,1.5189,1.5206,1.5186,1.5155,1.5105,1.5101,1.5078,1.5034,1.4987,1.4973,1.4578,1.4116,1.3654,1.3471,1.3345,1.3167,1.3007,1.2958,1.2899,1.2773,1.2629,1.2654,1.2661,1.2617,1.2554,1.2582,1.2669,1.2777,1.2936,1.2941,1.2741,1.2806,1.3213,1.3491,1.3328,1.2629,1.1922,1.1496,1.1259,1.1284,1.1273,1.2023,1.2441,1.2764,1.3125,1.3467,1.3447,1.3535,1.2734,1.1768,1.1143,1.0622,1.0652,1.0815,1.0848,1.1088,1.1217,1.1261,1.0761,1.043,1.0174,0.9745,0.7906,0.7899,0.7899,0.799,0.8075,0.8096,0.8206,0.8382,0.8246,0.8267,0.8412,0.8446,0.848,0.8534,0.8464,0.8703,0.8996,0.9236,0.9414,0.9402,0.9525,0.968,0.9723,0.9777,0.9899,0.9933,0.9986,1.007,1.0115,1.0151,1.0175,1.0193,1.0194,1.0228,1.0371,1.1045,1.1396,1.1827,1.2552,1.3486,1.4523,1.5091,1.5207,1.5226,1.5216,1.5191,1.5195,1.5195,1.5195,1.5201,1.5207,1.5212,1.5215,1.522,1.5254,1.5265,1.5252,1.5251,1.5243,1.523,1.5202,1.5151,1.5094,1.4992,1.4694,1.4438,1.4237,1.4182,1.4015,1.3944,1.3899,1.3862,1.3755,1.3669,1.3652,1.3656,1.3629,1.3542,1.3484,1.3556,1.3605,1.3745,1.3772,1.3572,1.3495,1.4139,1.4417,1.4538,1.4326,1.3662,1.3428,1.3174,1.3193,1.3193,1.353,1.3955,1.4365,1.4805,1.5019,1.5029,1.4541,1.3633,1.2598,1.1973,1.1436,1.1943,1.2183,1.2158,1.2256,1.2652,1.2514,1.1916,1.1597,1.1424,1.0956,0.7989,0.7899,0.7899,0.7961,0.8096,0.8081,0.8227,0.8399,0.8521,0.8571,0.864,0.8711,0.8818,0.8857,0.8792,0.9123,0.9813,1.0048,0.9852,0.9951,1.0016,0.9913,0.9794,0.9916,0.9959,1.0001,1.0044,1.0078,1.0108,1.0121,1.0148,1.0191,1.0198,1.0241,1.0488,1.1289,1.1943,1.2529,1.3365,1.3883,1.4441,1.5031,1.5272,1.5264,1.526,1.5235,1.5229,1.5201,1.5234,1.5275,1.5275,1.5283,1.5283,1.527,1.5274,1.529,1.53,1.5303,1.5302,1.53,1.5282,1.5283,1.5255,1.5248,1.5161,1.5013,1.4916,1.4891,1.4845,1.4785,1.4741,1.4707,1.4664,1.4611,1.4557,1.4554,1.456,1.4447,1.4343,1.4354,1.4373,1.4415,1.4457,1.4453,1.4404,1.4512,1.4699,1.4834,1.4932,1.459,1.4609,1.4473,1.4707,1.4834,1.5,1.4941,1.5068,1.5156,1.5244,1.5332,1.5371,1.4346,1.3203,1.2656,1.2334,1.2871,1.3252,1.332,1.3516,1.3799,1.3279,1.2474,1.2493,1.2413,1.1808,0.7969,0.7914,0.7899,0.8032,0.8214,0.8232,0.8383,0.8604,0.8739,0.8794,0.8794,0.8869,0.8962,0.9111,0.9068,0.9584,1.0592,1.1464,1.1429,1.1242,1.066,1.0454,1.0323,1.0194,0.9984,1.0006,1.0065,1.0104,1.0229,1.0106,1.0125,1.0253,1.0275,1.0498,1.0898,1.1748,1.2578,1.3428,1.4209,1.4551,1.4561,1.5034,1.5293,1.5289,1.5281,1.5274,1.5264,1.5231,1.5255,1.5294,1.5289,1.5323,1.5321,1.5309,1.5314,1.5327,1.5348,1.5352,1.5338,1.5332,1.5342,1.5342,1.5352,1.5342,1.5332,1.5177,1.5108,1.507,1.4964,1.4906,1.4906,1.4877,1.4877,1.4835,1.4818,1.4806,1.4833,1.482,1.4777,1.4798,1.4836,1.4881,1.4922,1.4971,1.4941,1.4952,1.5122,1.5088,1.5186,1.5205,1.5332,1.54,1.54,1.541,1.5264,1.5234,1.5303,1.5391,1.541,1.5098,1.4863,1.4443,1.3828,1.333,1.3271,1.3857,1.416,1.4121,1.4297,1.4512,1.3778,1.2867,1.3057,1.3174,1.249,0.7899,0.7899,0.7899,0.8074,0.8327,0.8395,0.8563,0.8843,0.888,0.8902,0.8936,0.8944,0.9001,0.9101,0.9269,0.9948,1.1021,1.2732,1.3037,1.2354,1.1514,1.1349,1.1096,1.0804,1.0749,1.0684,1.0716,1.0709,1.0756,1.076,1.0791,1.0564,1.0686,1.0947,1.1784,1.2588,1.3389,1.3994,1.4648,1.5225,1.5352,1.5355,1.5319,1.5306,1.53,1.5316,1.5303,1.5294,1.5287,1.531,1.5321,1.5346,1.5361,1.535,1.5359,1.5376,1.5384,1.5395,1.54,1.5391,1.54,1.541,1.541,1.54,1.5381,1.5349,1.527,1.5217,1.5111,1.5077,1.5077,1.5078,1.5078,1.5078,1.5059,1.5049,1.5088,1.5127,1.5156,1.5176,1.5215,1.5254,1.5293,1.5352,1.5371,1.54,1.54,1.5391,1.5361,1.5322,1.5361,1.5381,1.5371,1.5381,1.54,1.541,1.54,1.54,1.5322,1.4824,1.4473,1.4473,1.4355,1.4072,1.418,1.459,1.4697,1.4639,1.4873,1.5049,1.459,1.3828,1.3457,1.3447,1.2949,0.7899,0.7899,0.7899,0.8018,0.8171,0.8335,0.8521,0.8736,0.8872,0.8966,0.911,0.909,0.9087,0.9123,0.9249,1.0083,1.184,1.3737,1.3894,1.3197,1.2452,1.2291,1.2148,1.1869,1.2122,1.2017,1.1897,1.2113,1.1703,1.1896,1.2139,1.2042,1.209,1.2294,1.2592,1.3322,1.3916,1.4453,1.4883,1.541,1.541,1.5391,1.5381,1.5365,1.5366,1.5341,1.5311,1.529,1.5326,1.5358,1.5382,1.5388,1.5389,1.5388,1.538,1.5381,1.54,1.54,1.54,1.5391,1.5381,1.5391,1.5391,1.5391,1.5378,1.538,1.5342,1.5351,1.5287,1.5287,1.5293,1.5293,1.5293,1.5293,1.5283,1.5283,1.5303,1.5312,1.5322,1.5332,1.5342,1.5352,1.5361,1.5391,1.5391,1.5407,1.5388,1.5381,1.5352,1.5361,1.5373,1.5365,1.535,1.5361,1.5391,1.5391,1.5391,1.5381,1.5303,1.4941,1.4785,1.4922,1.4785,1.4502,1.4669,1.5039,1.5088,1.499,1.5127,1.5244,1.5293,1.4912,1.4375,1.3809,1.3369]}]]